<?xml version="1.0" encoding="UTF-8" standalone="no" ?>
<gpx xmlns="http://www.topografix.com/GPX/1/1" xmlns:xsi="http://www.w3.org/2001/XMLSchema-instance" xsi:schemaLocation="http://www.topografix.com/GPX/1/1 http://www.topografix.com/GPX/1/1/gpx.xsd" version="1.1" creator="VisuGPX - https://www.visugpx.com">
  <metadata>
    <name>Plouarzel - Belgrade</name>
    <desc><![CDATA[Arrivée à Belgrade le 11 juillet. 66 jours pédalés. 7 jours de repos.
]]></desc>
  </metadata>
  <trk>
    <name><![CDATA[Sortie à vélo]]></name>
    <extensions>
      <line xmlns="http://www.topografix.com/GPX/gpx_style/0/2">
        <color>0000FF</color>
        <width>4</width>
      </line>
    </extensions>
    <trkseg>
      <trkpt lat="47.36669" lon="-1.01279">
        <ele>61.768771</ele>
        <time>2023-05-08T10:43:13.211Z</time>
      </trkpt>
      <trkpt lat="47.3667" lon="-1.01264">
        <ele>61.768771</ele>
        <time>2023-05-08T10:44:56.652Z</time>
      </trkpt>
      <trkpt lat="47.36679" lon="-1.01258">
        <ele>61.768771</ele>
        <time>2023-05-08T10:49:25.659Z</time>
      </trkpt>
      <trkpt lat="47.36688" lon="-1.01256">
        <ele>61.768771</ele>
        <time>2023-05-08T10:49:30.659Z</time>
      </trkpt>
      <trkpt lat="47.36695" lon="-1.01266">
        <ele>61.768771</ele>
        <time>2023-05-08T10:49:36.660Z</time>
      </trkpt>
      <trkpt lat="47.36686" lon="-1.01271">
        <ele>61.768771</ele>
        <time>2023-05-08T10:49:42.644Z</time>
      </trkpt>
      <trkpt lat="47.36677" lon="-1.01268">
        <ele>61.768771</ele>
        <time>2023-05-08T10:49:49.658Z</time>
      </trkpt>
      <trkpt lat="47.36681" lon="-1.01255">
        <ele>61.768771</ele>
        <time>2023-05-08T10:49:58.655Z</time>
      </trkpt>
      <trkpt lat="47.36691" lon="-1.0126">
        <ele>61.768771</ele>
        <time>2023-05-08T10:50:03.666Z</time>
      </trkpt>
      <trkpt lat="47.3669" lon="-1.01273">
        <ele>61.768771</ele>
        <time>2023-05-08T10:50:10.656Z</time>
      </trkpt>
      <trkpt lat="47.3668" lon="-1.0127">
        <ele>61.826394</ele>
        <time>2023-05-08T10:50:15.661Z</time>
      </trkpt>
      <trkpt lat="47.36677" lon="-1.01257">
        <ele>61.90175</ele>
        <time>2023-05-08T10:50:22.658Z</time>
      </trkpt>
      <trkpt lat="47.36687" lon="-1.01253">
        <ele>61.983933</ele>
        <time>2023-05-08T10:50:29.655Z</time>
      </trkpt>
      <trkpt lat="47.36694" lon="-1.01262">
        <ele>62.059413</ele>
        <time>2023-05-08T10:50:33.659Z</time>
      </trkpt>
      <trkpt lat="47.36702" lon="-1.01271">
        <ele>62.142987</ele>
        <time>2023-05-08T10:50:37.655Z</time>
      </trkpt>
      <trkpt lat="47.3671" lon="-1.0128">
        <ele>62.227932</ele>
        <time>2023-05-08T10:50:41.660Z</time>
      </trkpt>
      <trkpt lat="47.36715" lon="-1.01293">
        <ele>62.310559</ele>
        <time>2023-05-08T10:50:46.661Z</time>
      </trkpt>
      <trkpt lat="47.36712" lon="-1.01308">
        <ele>62.402447</ele>
        <time>2023-05-08T10:50:51.656Z</time>
      </trkpt>
      <trkpt lat="47.36707" lon="-1.01321">
        <ele>62.479891</ele>
        <time>2023-05-08T10:50:55.650Z</time>
      </trkpt>
      <trkpt lat="47.36703" lon="-1.01334">
        <ele>62.559776</ele>
        <time>2023-05-08T10:50:59.652Z</time>
      </trkpt>
      <trkpt lat="47.367" lon="-1.01347">
        <ele>62.637655</ele>
        <time>2023-05-08T10:51:04.659Z</time>
      </trkpt>
      <trkpt lat="47.36694" lon="-1.0136">
        <ele>62.725127</ele>
        <time>2023-05-08T10:51:10.661Z</time>
      </trkpt>
      <trkpt lat="47.36691" lon="-1.01374">
        <ele>62.807796</ele>
        <time>2023-05-08T10:51:15.658Z</time>
      </trkpt>
      <trkpt lat="47.36687" lon="-1.01389">
        <ele>62.896789</ele>
        <time>2023-05-08T10:51:20.662Z</time>
      </trkpt>
      <trkpt lat="47.36685" lon="-1.01402">
        <ele>62.971099</ele>
        <time>2023-05-08T10:51:24.660Z</time>
      </trkpt>
      <trkpt lat="47.36685" lon="-1.01418">
        <ele>63.057964</ele>
        <time>2023-05-08T10:51:29.662Z</time>
      </trkpt>
      <trkpt lat="47.3669" lon="-1.01429">
        <ele>63.133494</ele>
        <time>2023-05-08T10:52:32.659Z</time>
      </trkpt>
      <trkpt lat="47.367" lon="-1.01432">
        <ele>63.216836</ele>
        <time>2023-05-08T10:52:39.658Z</time>
      </trkpt>
      <trkpt lat="47.36709" lon="-1.01432">
        <ele>63.28908</ele>
        <time>2023-05-08T10:52:44.656Z</time>
      </trkpt>
      <trkpt lat="47.3672" lon="-1.01434">
        <ele>63.368216</ele>
        <time>2023-05-08T10:52:48.658Z</time>
      </trkpt>
      <trkpt lat="47.3673" lon="-1.01436">
        <ele>63.434343</ele>
        <time>2023-05-08T10:52:51.667Z</time>
      </trkpt>
      <trkpt lat="47.36739" lon="-1.01439">
        <ele>63.499639</ele>
        <time>2023-05-08T10:52:54.667Z</time>
      </trkpt>
      <trkpt lat="47.3675" lon="-1.01443">
        <ele>63.57766</ele>
        <time>2023-05-08T10:52:58.656Z</time>
      </trkpt>
      <trkpt lat="47.3676" lon="-1.01446">
        <ele>63.649681</ele>
        <time>2023-05-08T10:53:02.664Z</time>
      </trkpt>
      <trkpt lat="47.36768" lon="-1.0145">
        <ele>63.713654</ele>
        <time>2023-05-08T10:53:05.646Z</time>
      </trkpt>
      <trkpt lat="47.36778" lon="-1.01455">
        <ele>63.788479</ele>
        <time>2023-05-08T10:53:08.651Z</time>
      </trkpt>
      <trkpt lat="47.36788" lon="-1.0146">
        <ele>63.861719</ele>
        <time>2023-05-08T10:53:11.648Z</time>
      </trkpt>
      <trkpt lat="47.36797" lon="-1.01465">
        <ele>63.930132</ele>
        <time>2023-05-08T10:53:14.652Z</time>
      </trkpt>
      <trkpt lat="47.36807" lon="-1.01471">
        <ele>64.002112</ele>
        <time>2023-05-08T10:53:17.663Z</time>
      </trkpt>
      <trkpt lat="47.36817" lon="-1.01477">
        <ele>64.077802</ele>
        <time>2023-05-08T10:53:20.657Z</time>
      </trkpt>
      <trkpt lat="47.36827" lon="-1.01483">
        <ele>64.155628</ele>
        <time>2023-05-08T10:53:23.657Z</time>
      </trkpt>
      <trkpt lat="47.36837" lon="-1.0149">
        <ele>64.235963</ele>
        <time>2023-05-08T10:53:26.660Z</time>
      </trkpt>
      <trkpt lat="47.36848" lon="-1.01497">
        <ele>64.315528</ele>
        <time>2023-05-08T10:53:29.650Z</time>
      </trkpt>
      <trkpt lat="47.36858" lon="-1.01504">
        <ele>64.392911</ele>
        <time>2023-05-08T10:53:32.653Z</time>
      </trkpt>
      <trkpt lat="47.36867" lon="-1.01509">
        <ele>64.463805</ele>
        <time>2023-05-08T10:53:35.647Z</time>
      </trkpt>
      <trkpt lat="47.36876" lon="-1.01514">
        <ele>64.54767</ele>
        <time>2023-05-08T10:53:38.647Z</time>
      </trkpt>
      <trkpt lat="47.36884" lon="-1.0152">
        <ele>64.671797</ele>
        <time>2023-05-08T10:53:41.653Z</time>
      </trkpt>
      <trkpt lat="47.36893" lon="-1.01525">
        <ele>64.799298</ele>
        <time>2023-05-08T10:53:44.652Z</time>
      </trkpt>
      <trkpt lat="47.36902" lon="-1.01531">
        <ele>64.928875</ele>
        <time>2023-05-08T10:53:47.645Z</time>
      </trkpt>
      <trkpt lat="47.36911" lon="-1.01538">
        <ele>65.059901</ele>
        <time>2023-05-08T10:53:50.659Z</time>
      </trkpt>
      <trkpt lat="47.3692" lon="-1.01542">
        <ele>65.187111</ele>
        <time>2023-05-08T10:53:53.651Z</time>
      </trkpt>
      <trkpt lat="47.36931" lon="-1.01549">
        <ele>65.348182</ele>
        <time>2023-05-08T10:53:57.656Z</time>
      </trkpt>
      <trkpt lat="47.36939" lon="-1.01554">
        <ele>65.469329</ele>
        <time>2023-05-08T10:54:00.663Z</time>
      </trkpt>
      <trkpt lat="47.36948" lon="-1.0156">
        <ele>65.604033</ele>
        <time>2023-05-08T10:54:03.654Z</time>
      </trkpt>
      <trkpt lat="47.36959" lon="-1.01566">
        <ele>65.750985</ele>
        <time>2023-05-08T10:54:06.662Z</time>
      </trkpt>
      <trkpt lat="47.3697" lon="-1.01571">
        <ele>65.902921</ele>
        <time>2023-05-08T10:54:09.671Z</time>
      </trkpt>
      <trkpt lat="47.3698" lon="-1.01577">
        <ele>66.052727</ele>
        <time>2023-05-08T10:54:12.664Z</time>
      </trkpt>
      <trkpt lat="47.3699" lon="-1.01583">
        <ele>66.194948</ele>
        <time>2023-05-08T10:54:15.667Z</time>
      </trkpt>
      <trkpt lat="47.36999" lon="-1.01589">
        <ele>66.329652</ele>
        <time>2023-05-08T10:54:18.660Z</time>
      </trkpt>
      <trkpt lat="47.37008" lon="-1.01594">
        <ele>66.462225</ele>
        <time>2023-05-08T10:54:21.665Z</time>
      </trkpt>
      <trkpt lat="47.37018" lon="-1.01601">
        <ele>66.607444</ele>
        <time>2023-05-08T10:54:24.663Z</time>
      </trkpt>
      <trkpt lat="47.37029" lon="-1.01607">
        <ele>66.761305</ele>
        <time>2023-05-08T10:54:27.660Z</time>
      </trkpt>
      <trkpt lat="47.3704" lon="-1.01613">
        <ele>66.906114</ele>
        <time>2023-05-08T10:54:30.665Z</time>
      </trkpt>
      <trkpt lat="47.3705" lon="-1.0162">
        <ele>66.636066</ele>
        <time>2023-05-08T10:54:33.646Z</time>
      </trkpt>
      <trkpt lat="47.3706" lon="-1.01625">
        <ele>66.377967</ele>
        <time>2023-05-08T10:54:36.662Z</time>
      </trkpt>
      <trkpt lat="47.3707" lon="-1.01631">
        <ele>66.128166</ele>
        <time>2023-05-08T10:54:39.665Z</time>
      </trkpt>
      <trkpt lat="47.3708" lon="-1.01637">
        <ele>65.86886</ele>
        <time>2023-05-08T10:54:42.662Z</time>
      </trkpt>
      <trkpt lat="47.3709" lon="-1.01643">
        <ele>65.598388</ele>
        <time>2023-05-08T10:54:45.664Z</time>
      </trkpt>
      <trkpt lat="47.37101" lon="-1.0165">
        <ele>65.318214</ele>
        <time>2023-05-08T10:54:48.659Z</time>
      </trkpt>
      <trkpt lat="47.37112" lon="-1.01656">
        <ele>65.042674</ele>
        <time>2023-05-08T10:54:51.659Z</time>
      </trkpt>
      <trkpt lat="47.37122" lon="-1.01661">
        <ele>64.789697</ele>
        <time>2023-05-08T10:54:54.668Z</time>
      </trkpt>
      <trkpt lat="47.37132" lon="-1.01668">
        <ele>64.516809</ele>
        <time>2023-05-08T10:54:58.654Z</time>
      </trkpt>
      <trkpt lat="47.37141" lon="-1.01665">
        <ele>64.292086</ele>
        <time>2023-05-08T10:55:41.658Z</time>
      </trkpt>
      <trkpt lat="47.37147" lon="-1.01649">
        <ele>64.002305</ele>
        <time>2023-05-08T10:55:53.658Z</time>
      </trkpt>
      <trkpt lat="47.3715" lon="-1.0163">
        <ele>63.677452</ele>
        <time>2023-05-08T10:55:56.656Z</time>
      </trkpt>
      <trkpt lat="47.37154" lon="-1.01616">
        <ele>63.43024</ele>
        <time>2023-05-08T10:55:58.652Z</time>
      </trkpt>
      <trkpt lat="47.37158" lon="-1.01601">
        <ele>63.172044</ele>
        <time>2023-05-08T10:56:00.661Z</time>
      </trkpt>
      <trkpt lat="47.37162" lon="-1.01585">
        <ele>62.892599</ele>
        <time>2023-05-08T10:56:02.661Z</time>
      </trkpt>
      <trkpt lat="47.37165" lon="-1.01569">
        <ele>62.629657</ele>
        <time>2023-05-08T10:56:04.653Z</time>
      </trkpt>
      <trkpt lat="47.37168" lon="-1.01555">
        <ele>62.557438</ele>
        <time>2023-05-08T10:56:06.665Z</time>
      </trkpt>
      <trkpt lat="47.37172" lon="-1.01539">
        <ele>62.515461</ele>
        <time>2023-05-08T10:56:08.649Z</time>
      </trkpt>
      <trkpt lat="47.37174" lon="-1.01525">
        <ele>62.477888</ele>
        <time>2023-05-08T10:56:10.657Z</time>
      </trkpt>
      <trkpt lat="47.37176" lon="-1.0151">
        <ele>62.440728</ele>
        <time>2023-05-08T10:56:12.659Z</time>
      </trkpt>
      <trkpt lat="47.37178" lon="-1.01496">
        <ele>62.403606</ele>
        <time>2023-05-08T10:56:14.674Z</time>
      </trkpt>
      <trkpt lat="47.37179" lon="-1.01481">
        <ele>62.366339</ele>
        <time>2023-05-08T10:56:16.646Z</time>
      </trkpt>
      <trkpt lat="47.37179" lon="-1.01467">
        <ele>62.330754</ele>
        <time>2023-05-08T10:56:18.657Z</time>
      </trkpt>
      <trkpt lat="47.37181" lon="-1.01454">
        <ele>62.296727</ele>
        <time>2023-05-08T10:56:20.659Z</time>
      </trkpt>
      <trkpt lat="47.37182" lon="-1.0144">
        <ele>62.262043</ele>
        <time>2023-05-08T10:56:22.660Z</time>
      </trkpt>
      <trkpt lat="47.37183" lon="-1.01422">
        <ele>62.214686</ele>
        <time>2023-05-08T10:56:25.661Z</time>
      </trkpt>
      <trkpt lat="47.37185" lon="-1.01405">
        <ele>62.171905</ele>
        <time>2023-05-08T10:56:28.660Z</time>
      </trkpt>
      <trkpt lat="47.37188" lon="-1.01391">
        <ele>62.133567</ele>
        <time>2023-05-08T10:56:31.664Z</time>
      </trkpt>
      <trkpt lat="47.3719" lon="-1.01378">
        <ele>62.099711</ele>
        <time>2023-05-08T10:56:34.663Z</time>
      </trkpt>
      <trkpt lat="47.37193" lon="-1.01363">
        <ele>62.060743</ele>
        <time>2023-05-08T10:56:38.661Z</time>
      </trkpt>
      <trkpt lat="47.37197" lon="-1.01351">
        <ele>62.025329</ele>
        <time>2023-05-08T10:56:41.660Z</time>
      </trkpt>
      <trkpt lat="47.37199" lon="-1.01336">
        <ele>61.986849</ele>
        <time>2023-05-08T10:56:44.662Z</time>
      </trkpt>
      <trkpt lat="47.372" lon="-1.01322">
        <ele>61.951515</ele>
        <time>2023-05-08T10:56:47.664Z</time>
      </trkpt>
      <trkpt lat="47.37202" lon="-1.01307">
        <ele>61.920071</ele>
        <time>2023-05-08T10:56:50.665Z</time>
      </trkpt>
      <trkpt lat="47.37206" lon="-1.01292">
        <ele>61.97794</ele>
        <time>2023-05-08T10:56:53.659Z</time>
      </trkpt>
      <trkpt lat="47.3721" lon="-1.01276">
        <ele>62.040301</ele>
        <time>2023-05-08T10:56:56.661Z</time>
      </trkpt>
      <trkpt lat="47.37214" lon="-1.01259">
        <ele>62.10589</ele>
        <time>2023-05-08T10:56:59.665Z</time>
      </trkpt>
      <trkpt lat="47.37217" lon="-1.01244">
        <ele>62.163928</ele>
        <time>2023-05-08T10:57:02.663Z</time>
      </trkpt>
      <trkpt lat="47.37221" lon="-1.01228">
        <ele>62.225417</ele>
        <time>2023-05-08T10:57:06.649Z</time>
      </trkpt>
      <trkpt lat="47.37224" lon="-1.01212">
        <ele>62.285403</ele>
        <time>2023-05-08T10:57:10.659Z</time>
      </trkpt>
      <trkpt lat="47.37226" lon="-1.01195">
        <ele>62.348941</ele>
        <time>2023-05-08T10:57:14.661Z</time>
      </trkpt>
      <trkpt lat="47.37228" lon="-1.01181">
        <ele>62.399024</ele>
        <time>2023-05-08T10:57:17.664Z</time>
      </trkpt>
      <trkpt lat="47.3723" lon="-1.01165">
        <ele>62.45715</ele>
        <time>2023-05-08T10:57:20.661Z</time>
      </trkpt>
      <trkpt lat="47.37234" lon="-1.01151">
        <ele>62.512649</ele>
        <time>2023-05-08T10:57:23.655Z</time>
      </trkpt>
      <trkpt lat="47.37237" lon="-1.01138">
        <ele>62.562616</ele>
        <time>2023-05-08T10:57:26.659Z</time>
      </trkpt>
      <trkpt lat="47.37241" lon="-1.01124">
        <ele>62.619917</ele>
        <time>2023-05-08T10:57:30.665Z</time>
      </trkpt>
      <trkpt lat="47.37246" lon="-1.01108">
        <ele>62.681116</ele>
        <time>2023-05-08T10:57:34.673Z</time>
      </trkpt>
      <trkpt lat="47.37248" lon="-1.01095">
        <ele>62.731428</ele>
        <time>2023-05-08T10:57:37.663Z</time>
      </trkpt>
      <trkpt lat="47.37252" lon="-1.01082">
        <ele>62.782011</ele>
        <time>2023-05-08T10:57:40.662Z</time>
      </trkpt>
      <trkpt lat="47.37256" lon="-1.01069">
        <ele>62.831591</ele>
        <time>2023-05-08T10:57:43.650Z</time>
      </trkpt>
      <trkpt lat="47.37259" lon="-1.01053">
        <ele>62.850569</ele>
        <time>2023-05-08T10:57:47.656Z</time>
      </trkpt>
      <trkpt lat="47.37263" lon="-1.01038">
        <ele>62.734447</ele>
        <time>2023-05-08T10:57:51.662Z</time>
      </trkpt>
      <trkpt lat="47.37268" lon="-1.01022">
        <ele>62.605289</ele>
        <time>2023-05-08T10:57:55.659Z</time>
      </trkpt>
      <trkpt lat="47.37271" lon="-1.01009">
        <ele>62.500769</ele>
        <time>2023-05-08T10:57:58.670Z</time>
      </trkpt>
      <trkpt lat="47.37275" lon="-1.00995">
        <ele>62.393507</ele>
        <time>2023-05-08T10:58:01.668Z</time>
      </trkpt>
      <trkpt lat="47.37278" lon="-1.00981">
        <ele>62.283341</ele>
        <time>2023-05-08T10:58:04.655Z</time>
      </trkpt>
      <trkpt lat="47.37282" lon="-1.00967">
        <ele>62.177073</ele>
        <time>2023-05-08T10:58:07.662Z</time>
      </trkpt>
      <trkpt lat="47.37285" lon="-1.00954">
        <ele>62.07329</ele>
        <time>2023-05-08T10:58:10.662Z</time>
      </trkpt>
      <trkpt lat="47.37288" lon="-1.0094">
        <ele>61.965964</ele>
        <time>2023-05-08T10:58:13.661Z</time>
      </trkpt>
      <trkpt lat="47.37291" lon="-1.00925">
        <ele>61.853527</ele>
        <time>2023-05-08T10:58:16.669Z</time>
      </trkpt>
      <trkpt lat="47.37295" lon="-1.0091">
        <ele>61.736237</ele>
        <time>2023-05-08T10:58:19.672Z</time>
      </trkpt>
      <trkpt lat="47.37298" lon="-1.00895">
        <ele>61.619589</ele>
        <time>2023-05-08T10:58:22.661Z</time>
      </trkpt>
      <trkpt lat="47.37301" lon="-1.00881">
        <ele>61.511313</ele>
        <time>2023-05-08T10:58:25.661Z</time>
      </trkpt>
      <trkpt lat="47.37304" lon="-1.00868">
        <ele>61.410997</ele>
        <time>2023-05-08T10:58:28.661Z</time>
      </trkpt>
      <trkpt lat="47.37308" lon="-1.00851">
        <ele>61.284392</ele>
        <time>2023-05-08T10:58:32.659Z</time>
      </trkpt>
      <trkpt lat="47.37312" lon="-1.00836">
        <ele>61.162848</ele>
        <time>2023-05-08T10:58:36.663Z</time>
      </trkpt>
      <trkpt lat="47.37317" lon="-1.0082">
        <ele>61.036036</ele>
        <time>2023-05-08T10:58:40.664Z</time>
      </trkpt>
      <trkpt lat="47.3732" lon="-1.00807">
        <ele>60.939137</ele>
        <time>2023-05-08T10:58:43.678Z</time>
      </trkpt>
      <trkpt lat="47.37323" lon="-1.00794">
        <ele>60.924202</ele>
        <time>2023-05-08T10:58:46.667Z</time>
      </trkpt>
      <trkpt lat="47.37326" lon="-1.00782">
        <ele>60.909476</ele>
        <time>2023-05-08T10:58:49.657Z</time>
      </trkpt>
      <trkpt lat="47.37329" lon="-1.00767">
        <ele>60.892605</ele>
        <time>2023-05-08T10:58:53.659Z</time>
      </trkpt>
      <trkpt lat="47.37333" lon="-1.00753">
        <ele>60.875416</ele>
        <time>2023-05-08T10:58:57.661Z</time>
      </trkpt>
      <trkpt lat="47.37336" lon="-1.00739">
        <ele>60.858525</ele>
        <time>2023-05-08T10:59:01.663Z</time>
      </trkpt>
      <trkpt lat="47.37339" lon="-1.00726">
        <ele>60.843855</ele>
        <time>2023-05-08T10:59:04.657Z</time>
      </trkpt>
      <trkpt lat="47.37343" lon="-1.0071">
        <ele>60.824939</ele>
        <time>2023-05-08T10:59:08.661Z</time>
      </trkpt>
      <trkpt lat="47.37347" lon="-1.00693">
        <ele>60.805079</ele>
        <time>2023-05-08T10:59:12.664Z</time>
      </trkpt>
      <trkpt lat="47.37351" lon="-1.0068">
        <ele>60.789615</ele>
        <time>2023-05-08T10:59:15.659Z</time>
      </trkpt>
      <trkpt lat="47.37354" lon="-1.00667">
        <ele>60.773888</ele>
        <time>2023-05-08T10:59:18.666Z</time>
      </trkpt>
      <trkpt lat="47.37358" lon="-1.00653">
        <ele>60.757435</ele>
        <time>2023-05-08T10:59:21.664Z</time>
      </trkpt>
      <trkpt lat="47.37362" lon="-1.00638">
        <ele>60.73995</ele>
        <time>2023-05-08T10:59:24.658Z</time>
      </trkpt>
      <trkpt lat="47.37366" lon="-1.00624">
        <ele>60.722484</ele>
        <time>2023-05-08T10:59:27.661Z</time>
      </trkpt>
      <trkpt lat="47.37369" lon="-1.00608">
        <ele>60.704094</ele>
        <time>2023-05-08T10:59:30.665Z</time>
      </trkpt>
      <trkpt lat="47.37374" lon="-1.00593">
        <ele>60.685995</ele>
        <time>2023-05-08T10:59:33.662Z</time>
      </trkpt>
      <trkpt lat="47.37377" lon="-1.00578">
        <ele>60.669116</ele>
        <time>2023-05-08T10:59:36.659Z</time>
      </trkpt>
      <trkpt lat="47.3738" lon="-1.00565">
        <ele>60.653713</ele>
        <time>2023-05-08T10:59:39.658Z</time>
      </trkpt>
      <trkpt lat="47.37384" lon="-1.00548">
        <ele>60.68966</ele>
        <time>2023-05-08T10:59:43.662Z</time>
      </trkpt>
      <trkpt lat="47.37387" lon="-1.00534">
        <ele>60.750479</ele>
        <time>2023-05-08T10:59:46.668Z</time>
      </trkpt>
      <trkpt lat="47.3739" lon="-1.0052">
        <ele>60.814062</ele>
        <time>2023-05-08T10:59:49.656Z</time>
      </trkpt>
      <trkpt lat="47.37394" lon="-1.00506">
        <ele>60.872811</ele>
        <time>2023-05-08T10:59:52.664Z</time>
      </trkpt>
      <trkpt lat="47.37397" lon="-1.00493">
        <ele>60.932206</ele>
        <time>2023-05-08T10:59:55.659Z</time>
      </trkpt>
      <trkpt lat="47.374" lon="-1.00479">
        <ele>60.992628</ele>
        <time>2023-05-08T10:59:58.662Z</time>
      </trkpt>
      <trkpt lat="47.37403" lon="-1.00465">
        <ele>61.052809</ele>
        <time>2023-05-08T11:00:01.662Z</time>
      </trkpt>
      <trkpt lat="47.37406" lon="-1.00451">
        <ele>61.11482</ele>
        <time>2023-05-08T11:00:04.656Z</time>
      </trkpt>
      <trkpt lat="47.37409" lon="-1.00436">
        <ele>61.178731</ele>
        <time>2023-05-08T11:00:07.664Z</time>
      </trkpt>
      <trkpt lat="47.37413" lon="-1.00421">
        <ele>61.244992</ele>
        <time>2023-05-08T11:00:10.670Z</time>
      </trkpt>
      <trkpt lat="47.37417" lon="-1.00406">
        <ele>61.310949</ele>
        <time>2023-05-08T11:00:13.664Z</time>
      </trkpt>
      <trkpt lat="47.37421" lon="-1.0039">
        <ele>61.381999</ele>
        <time>2023-05-08T11:00:16.662Z</time>
      </trkpt>
      <trkpt lat="47.37425" lon="-1.00375">
        <ele>61.449496</ele>
        <time>2023-05-08T11:00:19.661Z</time>
      </trkpt>
      <trkpt lat="47.37429" lon="-1.00361">
        <ele>61.514685</ele>
        <time>2023-05-08T11:00:22.662Z</time>
      </trkpt>
      <trkpt lat="47.37433" lon="-1.00346">
        <ele>61.581026</ele>
        <time>2023-05-08T11:00:25.662Z</time>
      </trkpt>
      <trkpt lat="47.37437" lon="-1.00331">
        <ele>61.643573</ele>
        <time>2023-05-08T11:00:28.662Z</time>
      </trkpt>
      <trkpt lat="47.37441" lon="-1.00317">
        <ele>61.709087</ele>
        <time>2023-05-08T11:00:31.655Z</time>
      </trkpt>
      <trkpt lat="47.37445" lon="-1.00301">
        <ele>61.70299</ele>
        <time>2023-05-08T11:00:34.660Z</time>
      </trkpt>
      <trkpt lat="47.37448" lon="-1.00285">
        <ele>61.613121</ele>
        <time>2023-05-08T11:00:37.665Z</time>
      </trkpt>
      <trkpt lat="47.37451" lon="-1.00269">
        <ele>61.523662</ele>
        <time>2023-05-08T11:00:40.661Z</time>
      </trkpt>
      <trkpt lat="47.37455" lon="-1.00254">
        <ele>61.439267</ele>
        <time>2023-05-08T11:00:43.656Z</time>
      </trkpt>
      <trkpt lat="47.37459" lon="-1.00239">
        <ele>61.35271</ele>
        <time>2023-05-08T11:00:46.662Z</time>
      </trkpt>
      <trkpt lat="47.37464" lon="-1.00225">
        <ele>61.264711</ele>
        <time>2023-05-08T11:00:49.655Z</time>
      </trkpt>
      <trkpt lat="47.37471" lon="-1.00211">
        <ele>61.174308</ele>
        <time>2023-05-08T11:00:52.665Z</time>
      </trkpt>
      <trkpt lat="47.37478" lon="-1.00198">
        <ele>61.085986</ele>
        <time>2023-05-08T11:00:55.657Z</time>
      </trkpt>
      <trkpt lat="47.37484" lon="-1.00186">
        <ele>61.002848</ele>
        <time>2023-05-08T11:00:58.660Z</time>
      </trkpt>
      <trkpt lat="47.37491" lon="-1.00174">
        <ele>60.915547</ele>
        <time>2023-05-08T11:01:01.666Z</time>
      </trkpt>
      <trkpt lat="47.37497" lon="-1.00161">
        <ele>60.831806</ele>
        <time>2023-05-08T11:01:04.658Z</time>
      </trkpt>
      <trkpt lat="47.37503" lon="-1.00148">
        <ele>60.748056</ele>
        <time>2023-05-08T11:01:07.661Z</time>
      </trkpt>
      <trkpt lat="47.3751" lon="-1.00133">
        <ele>60.655454</ele>
        <time>2023-05-08T11:01:10.663Z</time>
      </trkpt>
      <trkpt lat="47.37516" lon="-1.00119">
        <ele>60.565065</ele>
        <time>2023-05-08T11:01:13.663Z</time>
      </trkpt>
      <trkpt lat="47.37522" lon="-1.00106">
        <ele>60.479936</ele>
        <time>2023-05-08T11:01:16.664Z</time>
      </trkpt>
      <trkpt lat="47.37528" lon="-1.00093">
        <ele>60.397962</ele>
        <time>2023-05-08T11:01:19.659Z</time>
      </trkpt>
      <trkpt lat="47.37533" lon="-1.0008">
        <ele>60.317392</ele>
        <time>2023-05-08T11:01:22.652Z</time>
      </trkpt>
      <trkpt lat="47.37539" lon="-1.00067">
        <ele>60.255949</ele>
        <time>2023-05-08T11:01:25.670Z</time>
      </trkpt>
      <trkpt lat="47.37545" lon="-1.00053">
        <ele>60.194158</ele>
        <time>2023-05-08T11:01:28.670Z</time>
      </trkpt>
      <trkpt lat="47.37551" lon="-1.0004">
        <ele>60.129809</ele>
        <time>2023-05-08T11:01:31.664Z</time>
      </trkpt>
      <trkpt lat="47.37558" lon="-1.00026">
        <ele>60.061541</ele>
        <time>2023-05-08T11:01:34.655Z</time>
      </trkpt>
      <trkpt lat="47.37565" lon="-1.00011">
        <ele>59.993639</ele>
        <time>2023-05-08T11:01:37.662Z</time>
      </trkpt>
      <trkpt lat="47.37572" lon="-0.99997">
        <ele>59.925076</ele>
        <time>2023-05-08T11:01:40.658Z</time>
      </trkpt>
      <trkpt lat="47.37578" lon="-0.99983">
        <ele>59.857801</ele>
        <time>2023-05-08T11:01:43.665Z</time>
      </trkpt>
      <trkpt lat="47.37585" lon="-0.9997">
        <ele>59.796667</ele>
        <time>2023-05-08T11:01:46.661Z</time>
      </trkpt>
      <trkpt lat="47.3759" lon="-0.99958">
        <ele>59.739439</ele>
        <time>2023-05-08T11:01:49.655Z</time>
      </trkpt>
      <trkpt lat="47.37595" lon="-0.99945">
        <ele>59.680039</ele>
        <time>2023-05-08T11:01:52.671Z</time>
      </trkpt>
      <trkpt lat="47.376" lon="-0.99932">
        <ele>59.624551</ele>
        <time>2023-05-08T11:01:55.663Z</time>
      </trkpt>
      <trkpt lat="47.37605" lon="-0.9992">
        <ele>59.565995</ele>
        <time>2023-05-08T11:01:58.659Z</time>
      </trkpt>
      <trkpt lat="47.37611" lon="-0.99906">
        <ele>59.501607</ele>
        <time>2023-05-08T11:02:01.664Z</time>
      </trkpt>
      <trkpt lat="47.37617" lon="-0.9989">
        <ele>59.432585</ele>
        <time>2023-05-08T11:02:04.659Z</time>
      </trkpt>
      <trkpt lat="47.37622" lon="-0.99875">
        <ele>59.364783</ele>
        <time>2023-05-08T11:02:07.661Z</time>
      </trkpt>
      <trkpt lat="47.37628" lon="-0.99859">
        <ele>59.297144</ele>
        <time>2023-05-08T11:02:10.662Z</time>
      </trkpt>
      <trkpt lat="47.37632" lon="-0.99844">
        <ele>59.348051</ele>
        <time>2023-05-08T11:02:13.662Z</time>
      </trkpt>
      <trkpt lat="47.37637" lon="-0.99828">
        <ele>59.423168</ele>
        <time>2023-05-08T11:02:16.661Z</time>
      </trkpt>
      <trkpt lat="47.37642" lon="-0.99812">
        <ele>59.497671</ele>
        <time>2023-05-08T11:02:19.656Z</time>
      </trkpt>
      <trkpt lat="47.37647" lon="-0.99796">
        <ele>59.571599</ele>
        <time>2023-05-08T11:02:22.648Z</time>
      </trkpt>
      <trkpt lat="47.37651" lon="-0.9978">
        <ele>59.648015</ele>
        <time>2023-05-08T11:02:25.652Z</time>
      </trkpt>
      <trkpt lat="47.37656" lon="-0.99764">
        <ele>59.72082</ele>
        <time>2023-05-08T11:02:28.666Z</time>
      </trkpt>
      <trkpt lat="47.3766" lon="-0.99748">
        <ele>59.794906</ele>
        <time>2023-05-08T11:02:31.662Z</time>
      </trkpt>
      <trkpt lat="47.37665" lon="-0.99733">
        <ele>59.867675</ele>
        <time>2023-05-08T11:02:34.657Z</time>
      </trkpt>
      <trkpt lat="47.3767" lon="-0.99717">
        <ele>59.940971</ele>
        <time>2023-05-08T11:02:37.652Z</time>
      </trkpt>
      <trkpt lat="47.37675" lon="-0.99701">
        <ele>60.01752</ele>
        <time>2023-05-08T11:02:40.666Z</time>
      </trkpt>
      <trkpt lat="47.3768" lon="-0.99685">
        <ele>60.090698</ele>
        <time>2023-05-08T11:02:43.663Z</time>
      </trkpt>
      <trkpt lat="47.37685" lon="-0.9967">
        <ele>60.165035</ele>
        <time>2023-05-08T11:02:46.664Z</time>
      </trkpt>
      <trkpt lat="47.3769" lon="-0.99654">
        <ele>60.241079</ele>
        <time>2023-05-08T11:02:49.658Z</time>
      </trkpt>
      <trkpt lat="47.37694" lon="-0.99637">
        <ele>60.31786</ele>
        <time>2023-05-08T11:02:52.659Z</time>
      </trkpt>
      <trkpt lat="47.37698" lon="-0.99621">
        <ele>60.390916</ele>
        <time>2023-05-08T11:02:55.661Z</time>
      </trkpt>
      <trkpt lat="47.37702" lon="-0.99605">
        <ele>60.436409</ele>
        <time>2023-05-08T11:02:58.662Z</time>
      </trkpt>
      <trkpt lat="47.37704" lon="-0.99589">
        <ele>60.457985</ele>
        <time>2023-05-08T11:03:01.662Z</time>
      </trkpt>
      <trkpt lat="47.37705" lon="-0.99573">
        <ele>60.480321</ele>
        <time>2023-05-08T11:03:04.656Z</time>
      </trkpt>
      <trkpt lat="47.37706" lon="-0.99556">
        <ele>60.50326</ele>
        <time>2023-05-08T11:03:07.653Z</time>
      </trkpt>
      <trkpt lat="47.37707" lon="-0.99538">
        <ele>60.527438</ele>
        <time>2023-05-08T11:03:10.667Z</time>
      </trkpt>
      <trkpt lat="47.37707" lon="-0.9952">
        <ele>60.551489</ele>
        <time>2023-05-08T11:03:13.662Z</time>
      </trkpt>
      <trkpt lat="47.37707" lon="-0.99503">
        <ele>60.574192</ele>
        <time>2023-05-08T11:03:16.658Z</time>
      </trkpt>
      <trkpt lat="47.37707" lon="-0.99487">
        <ele>60.595146</ele>
        <time>2023-05-08T11:03:19.659Z</time>
      </trkpt>
      <trkpt lat="47.37707" lon="-0.99472">
        <ele>60.615029</ele>
        <time>2023-05-08T11:03:22.662Z</time>
      </trkpt>
      <trkpt lat="47.37708" lon="-0.99457">
        <ele>60.636193</ele>
        <time>2023-05-08T11:03:25.663Z</time>
      </trkpt>
      <trkpt lat="47.37708" lon="-0.99442">
        <ele>60.656222</ele>
        <time>2023-05-08T11:03:28.664Z</time>
      </trkpt>
      <trkpt lat="47.37709" lon="-0.99426">
        <ele>60.677578</ele>
        <time>2023-05-08T11:03:31.662Z</time>
      </trkpt>
      <trkpt lat="47.37711" lon="-0.9941">
        <ele>60.699828</ele>
        <time>2023-05-08T11:03:34.654Z</time>
      </trkpt>
      <trkpt lat="47.37713" lon="-0.99393">
        <ele>60.722839</ele>
        <time>2023-05-08T11:03:37.661Z</time>
      </trkpt>
      <trkpt lat="47.37715" lon="-0.99377">
        <ele>60.744335</ele>
        <time>2023-05-08T11:03:40.665Z</time>
      </trkpt>
      <trkpt lat="47.37718" lon="-0.99362">
        <ele>60.76556</ele>
        <time>2023-05-08T11:03:43.661Z</time>
      </trkpt>
      <trkpt lat="47.3772" lon="-0.99346">
        <ele>60.750408</ele>
        <time>2023-05-08T11:03:46.660Z</time>
      </trkpt>
      <trkpt lat="47.37722" lon="-0.9933">
        <ele>60.640828</ele>
        <time>2023-05-08T11:03:49.655Z</time>
      </trkpt>
      <trkpt lat="47.37724" lon="-0.99314">
        <ele>60.532219</ele>
        <time>2023-05-08T11:03:52.663Z</time>
      </trkpt>
      <trkpt lat="47.37725" lon="-0.99297">
        <ele>60.417584</ele>
        <time>2023-05-08T11:03:55.658Z</time>
      </trkpt>
      <trkpt lat="47.37726" lon="-0.9928">
        <ele>60.303243</ele>
        <time>2023-05-08T11:03:58.647Z</time>
      </trkpt>
      <trkpt lat="47.37727" lon="-0.99263">
        <ele>60.189661</ele>
        <time>2023-05-08T11:04:01.662Z</time>
      </trkpt>
      <trkpt lat="47.37729" lon="-0.99246">
        <ele>60.073794</ele>
        <time>2023-05-08T11:04:04.661Z</time>
      </trkpt>
      <trkpt lat="47.3773" lon="-0.99229">
        <ele>59.95916</ele>
        <time>2023-05-08T11:04:07.663Z</time>
      </trkpt>
      <trkpt lat="47.37731" lon="-0.99212">
        <ele>59.8386</ele>
        <time>2023-05-08T11:04:10.653Z</time>
      </trkpt>
      <trkpt lat="47.37732" lon="-0.99193">
        <ele>59.716412</ele>
        <time>2023-05-08T11:04:13.660Z</time>
      </trkpt>
      <trkpt lat="47.37731" lon="-0.99176">
        <ele>59.601124</ele>
        <time>2023-05-08T11:04:16.658Z</time>
      </trkpt>
      <trkpt lat="47.37731" lon="-0.9916">
        <ele>59.493944</ele>
        <time>2023-05-08T11:04:19.667Z</time>
      </trkpt>
      <trkpt lat="47.3773" lon="-0.99144">
        <ele>59.383126</ele>
        <time>2023-05-08T11:04:22.663Z</time>
      </trkpt>
      <trkpt lat="47.3773" lon="-0.99127">
        <ele>59.271206</ele>
        <time>2023-05-08T11:04:25.658Z</time>
      </trkpt>
      <trkpt lat="47.37731" lon="-0.99111">
        <ele>59.159256</ele>
        <time>2023-05-08T11:04:28.663Z</time>
      </trkpt>
      <trkpt lat="47.37731" lon="-0.99095">
        <ele>59.050455</ele>
        <time>2023-05-08T11:04:31.662Z</time>
      </trkpt>
      <trkpt lat="47.37733" lon="-0.99079">
        <ele>59.046377</ele>
        <time>2023-05-08T11:04:34.659Z</time>
      </trkpt>
      <trkpt lat="47.37734" lon="-0.99063">
        <ele>59.160498</ele>
        <time>2023-05-08T11:04:37.664Z</time>
      </trkpt>
      <trkpt lat="47.37736" lon="-0.99048">
        <ele>59.27062</ele>
        <time>2023-05-08T11:04:40.664Z</time>
      </trkpt>
      <trkpt lat="47.37738" lon="-0.99034">
        <ele>59.380148</ele>
        <time>2023-05-08T11:04:43.662Z</time>
      </trkpt>
      <trkpt lat="47.3774" lon="-0.99018">
        <ele>59.496561</ele>
        <time>2023-05-08T11:04:46.662Z</time>
      </trkpt>
      <trkpt lat="47.37742" lon="-0.99003">
        <ele>59.613397</ele>
        <time>2023-05-08T11:04:49.660Z</time>
      </trkpt>
      <trkpt lat="47.37745" lon="-0.98986">
        <ele>59.740212</ele>
        <time>2023-05-08T11:04:52.661Z</time>
      </trkpt>
      <trkpt lat="47.37747" lon="-0.98968">
        <ele>59.872966</ele>
        <time>2023-05-08T11:04:55.658Z</time>
      </trkpt>
      <trkpt lat="47.37747" lon="-0.9895">
        <ele>60.006013</ele>
        <time>2023-05-08T11:04:58.660Z</time>
      </trkpt>
      <trkpt lat="47.37746" lon="-0.98934">
        <ele>60.127707</ele>
        <time>2023-05-08T11:05:01.657Z</time>
      </trkpt>
      <trkpt lat="47.37743" lon="-0.98919">
        <ele>60.239572</ele>
        <time>2023-05-08T11:05:04.661Z</time>
      </trkpt>
      <trkpt lat="47.37742" lon="-0.98902">
        <ele>60.366799</ele>
        <time>2023-05-08T11:05:07.656Z</time>
      </trkpt>
      <trkpt lat="47.3775" lon="-0.98887">
        <ele>60.499451</ele>
        <time>2023-05-08T11:05:10.656Z</time>
      </trkpt>
      <trkpt lat="47.37753" lon="-0.98872">
        <ele>60.615976</ele>
        <time>2023-05-08T11:05:13.665Z</time>
      </trkpt>
      <trkpt lat="47.37751" lon="-0.98854">
        <ele>60.749774</ele>
        <time>2023-05-08T11:05:16.672Z</time>
      </trkpt>
      <trkpt lat="47.37749" lon="-0.98836">
        <ele>60.881956</ele>
        <time>2023-05-08T11:05:19.661Z</time>
      </trkpt>
      <trkpt lat="47.37749" lon="-0.9882">
        <ele>60.937847</ele>
        <time>2023-05-08T11:05:22.659Z</time>
      </trkpt>
      <trkpt lat="47.37747" lon="-0.98805">
        <ele>60.929624</ele>
        <time>2023-05-08T11:05:25.657Z</time>
      </trkpt>
      <trkpt lat="47.37744" lon="-0.98791">
        <ele>60.921848</ele>
        <time>2023-05-08T11:05:28.665Z</time>
      </trkpt>
      <trkpt lat="47.37741" lon="-0.98775">
        <ele>60.91272</ele>
        <time>2023-05-08T11:05:32.661Z</time>
      </trkpt>
      <trkpt lat="47.3774" lon="-0.9876">
        <ele>60.904761</ele>
        <time>2023-05-08T11:05:35.656Z</time>
      </trkpt>
      <trkpt lat="47.37738" lon="-0.98742">
        <ele>60.895078</ele>
        <time>2023-05-08T11:05:38.664Z</time>
      </trkpt>
      <trkpt lat="47.37736" lon="-0.98724">
        <ele>60.885386</ele>
        <time>2023-05-08T11:05:41.661Z</time>
      </trkpt>
      <trkpt lat="47.37734" lon="-0.98708">
        <ele>60.876768</ele>
        <time>2023-05-08T11:05:44.661Z</time>
      </trkpt>
      <trkpt lat="47.37732" lon="-0.98693">
        <ele>60.868694</ele>
        <time>2023-05-08T11:05:47.650Z</time>
      </trkpt>
      <trkpt lat="47.3773" lon="-0.9868">
        <ele>60.861267</ele>
        <time>2023-05-08T11:05:50.655Z</time>
      </trkpt>
      <trkpt lat="47.37728" lon="-0.98665">
        <ele>60.853087</ele>
        <time>2023-05-08T11:05:53.661Z</time>
      </trkpt>
      <trkpt lat="47.37727" lon="-0.98649">
        <ele>60.844405</ele>
        <time>2023-05-08T11:05:56.665Z</time>
      </trkpt>
      <trkpt lat="47.37724" lon="-0.98631">
        <ele>60.834984</ele>
        <time>2023-05-08T11:05:59.662Z</time>
      </trkpt>
      <trkpt lat="47.37722" lon="-0.98615">
        <ele>60.825922</ele>
        <time>2023-05-08T11:06:02.664Z</time>
      </trkpt>
      <trkpt lat="47.37722" lon="-0.98598">
        <ele>60.817155</ele>
        <time>2023-05-08T11:06:05.655Z</time>
      </trkpt>
      <trkpt lat="47.37719" lon="-0.98583">
        <ele>60.809035</ele>
        <time>2023-05-08T11:06:08.660Z</time>
      </trkpt>
      <trkpt lat="47.37719" lon="-0.98569">
        <ele>60.801186</ele>
        <time>2023-05-08T11:06:11.656Z</time>
      </trkpt>
      <trkpt lat="47.37718" lon="-0.98554">
        <ele>60.727393</ele>
        <time>2023-05-08T11:06:14.659Z</time>
      </trkpt>
      <trkpt lat="47.37717" lon="-0.98538">
        <ele>60.636724</ele>
        <time>2023-05-08T11:06:17.662Z</time>
      </trkpt>
      <trkpt lat="47.37715" lon="-0.98521">
        <ele>60.544064</ele>
        <time>2023-05-08T11:06:20.655Z</time>
      </trkpt>
      <trkpt lat="47.37714" lon="-0.98507">
        <ele>60.464144</ele>
        <time>2023-05-08T11:06:23.661Z</time>
      </trkpt>
      <trkpt lat="47.37712" lon="-0.98493">
        <ele>60.386961</ele>
        <time>2023-05-08T11:06:26.666Z</time>
      </trkpt>
      <trkpt lat="47.37711" lon="-0.98479">
        <ele>60.30908</ele>
        <time>2023-05-08T11:06:29.655Z</time>
      </trkpt>
      <trkpt lat="47.3771" lon="-0.98466">
        <ele>60.232299</ele>
        <time>2023-05-08T11:06:32.656Z</time>
      </trkpt>
      <trkpt lat="47.37709" lon="-0.98451">
        <ele>60.151294</ele>
        <time>2023-05-08T11:06:35.654Z</time>
      </trkpt>
      <trkpt lat="47.37707" lon="-0.98435">
        <ele>60.063664</ele>
        <time>2023-05-08T11:06:38.661Z</time>
      </trkpt>
      <trkpt lat="47.37707" lon="-0.98419">
        <ele>59.975253</ele>
        <time>2023-05-08T11:06:41.663Z</time>
      </trkpt>
      <trkpt lat="47.37707" lon="-0.98404">
        <ele>59.891276</ele>
        <time>2023-05-08T11:06:44.653Z</time>
      </trkpt>
      <trkpt lat="47.37709" lon="-0.98391">
        <ele>59.814131</ele>
        <time>2023-05-08T11:06:47.659Z</time>
      </trkpt>
      <trkpt lat="47.37709" lon="-0.98376">
        <ele>59.73108</ele>
        <time>2023-05-08T11:06:50.654Z</time>
      </trkpt>
      <trkpt lat="47.3771" lon="-0.9836">
        <ele>59.643901</ele>
        <time>2023-05-08T11:06:53.663Z</time>
      </trkpt>
      <trkpt lat="47.37708" lon="-0.98343">
        <ele>59.54707</ele>
        <time>2023-05-08T11:06:56.658Z</time>
      </trkpt>
      <trkpt lat="47.37707" lon="-0.98328">
        <ele>59.462753</ele>
        <time>2023-05-08T11:06:59.659Z</time>
      </trkpt>
      <trkpt lat="47.37706" lon="-0.98311">
        <ele>59.370876</ele>
        <time>2023-05-08T11:07:02.658Z</time>
      </trkpt>
      <trkpt lat="47.37705" lon="-0.98295">
        <ele>59.351826</ele>
        <time>2023-05-08T11:07:05.654Z</time>
      </trkpt>
      <trkpt lat="47.37705" lon="-0.98277">
        <ele>59.405388</ele>
        <time>2023-05-08T11:07:08.658Z</time>
      </trkpt>
      <trkpt lat="47.37705" lon="-0.9826">
        <ele>59.458942</ele>
        <time>2023-05-08T11:07:11.665Z</time>
      </trkpt>
      <trkpt lat="47.37707" lon="-0.98243">
        <ele>59.512518</ele>
        <time>2023-05-08T11:07:14.653Z</time>
      </trkpt>
      <trkpt lat="47.37707" lon="-0.98227">
        <ele>59.55989</ele>
        <time>2023-05-08T11:07:17.657Z</time>
      </trkpt>
      <trkpt lat="47.37708" lon="-0.98214">
        <ele>59.603116</ele>
        <time>2023-05-08T11:07:20.661Z</time>
      </trkpt>
      <trkpt lat="47.37709" lon="-0.98199">
        <ele>59.64846</ele>
        <time>2023-05-08T11:07:23.657Z</time>
      </trkpt>
      <trkpt lat="47.3771" lon="-0.98183">
        <ele>59.698833</ele>
        <time>2023-05-08T11:07:26.664Z</time>
      </trkpt>
      <trkpt lat="47.37712" lon="-0.98167">
        <ele>59.750073</ele>
        <time>2023-05-08T11:07:29.657Z</time>
      </trkpt>
      <trkpt lat="47.37713" lon="-0.9815">
        <ele>59.802517</ele>
        <time>2023-05-08T11:07:32.665Z</time>
      </trkpt>
      <trkpt lat="47.37716" lon="-0.98133">
        <ele>59.854764</ele>
        <time>2023-05-08T11:07:35.654Z</time>
      </trkpt>
      <trkpt lat="47.37718" lon="-0.98116">
        <ele>59.908868</ele>
        <time>2023-05-08T11:07:38.663Z</time>
      </trkpt>
      <trkpt lat="47.37721" lon="-0.98099">
        <ele>59.96391</ele>
        <time>2023-05-08T11:07:41.658Z</time>
      </trkpt>
      <trkpt lat="47.37725" lon="-0.98082">
        <ele>60.018358</ele>
        <time>2023-05-08T11:07:44.661Z</time>
      </trkpt>
      <trkpt lat="47.37729" lon="-0.98066">
        <ele>60.070737</ele>
        <time>2023-05-08T11:07:47.656Z</time>
      </trkpt>
      <trkpt lat="47.37733" lon="-0.98051">
        <ele>60.122665</ele>
        <time>2023-05-08T11:07:50.652Z</time>
      </trkpt>
      <trkpt lat="47.37736" lon="-0.98034">
        <ele>60.24584</ele>
        <time>2023-05-08T11:07:53.662Z</time>
      </trkpt>
      <trkpt lat="47.3774" lon="-0.98017">
        <ele>60.434025</ele>
        <time>2023-05-08T11:07:56.662Z</time>
      </trkpt>
      <trkpt lat="47.37744" lon="-0.98001">
        <ele>60.617185</ele>
        <time>2023-05-08T11:07:59.660Z</time>
      </trkpt>
      <trkpt lat="47.37748" lon="-0.97984">
        <ele>60.803773</ele>
        <time>2023-05-08T11:08:02.660Z</time>
      </trkpt>
      <trkpt lat="47.37751" lon="-0.97966">
        <ele>61.003999</ele>
        <time>2023-05-08T11:08:05.655Z</time>
      </trkpt>
      <trkpt lat="47.37754" lon="-0.97948">
        <ele>61.207712</ele>
        <time>2023-05-08T11:08:08.660Z</time>
      </trkpt>
      <trkpt lat="47.37757" lon="-0.9793">
        <ele>61.400243</ele>
        <time>2023-05-08T11:08:11.666Z</time>
      </trkpt>
      <trkpt lat="47.37759" lon="-0.97913">
        <ele>61.581324</ele>
        <time>2023-05-08T11:08:14.660Z</time>
      </trkpt>
      <trkpt lat="47.37762" lon="-0.97898">
        <ele>61.755498</ele>
        <time>2023-05-08T11:08:17.659Z</time>
      </trkpt>
      <trkpt lat="47.37763" lon="-0.97883">
        <ele>61.910097</ele>
        <time>2023-05-08T11:08:20.655Z</time>
      </trkpt>
      <trkpt lat="47.37765" lon="-0.97869">
        <ele>62.068394</ele>
        <time>2023-05-08T11:08:23.666Z</time>
      </trkpt>
      <trkpt lat="47.37767" lon="-0.97854">
        <ele>62.228051</ele>
        <time>2023-05-08T11:08:26.661Z</time>
      </trkpt>
      <trkpt lat="47.37769" lon="-0.97836">
        <ele>62.416776</ele>
        <time>2023-05-08T11:08:29.660Z</time>
      </trkpt>
      <trkpt lat="47.37771" lon="-0.97819">
        <ele>62.606513</ele>
        <time>2023-05-08T11:08:32.664Z</time>
      </trkpt>
      <trkpt lat="47.37774" lon="-0.97802">
        <ele>62.790712</ele>
        <time>2023-05-08T11:08:35.656Z</time>
      </trkpt>
      <trkpt lat="47.37777" lon="-0.97785">
        <ele>62.975297</ele>
        <time>2023-05-08T11:08:38.662Z</time>
      </trkpt>
      <trkpt lat="47.3778" lon="-0.97769">
        <ele>62.890668</ele>
        <time>2023-05-08T11:08:41.664Z</time>
      </trkpt>
      <trkpt lat="47.37784" lon="-0.97752">
        <ele>62.803043</ele>
        <time>2023-05-08T11:08:44.658Z</time>
      </trkpt>
      <trkpt lat="47.37788" lon="-0.97735">
        <ele>62.716797</ele>
        <time>2023-05-08T11:08:47.664Z</time>
      </trkpt>
      <trkpt lat="47.37791" lon="-0.97718">
        <ele>62.633058</ele>
        <time>2023-05-08T11:08:50.654Z</time>
      </trkpt>
      <trkpt lat="47.37794" lon="-0.97701">
        <ele>62.547247</ele>
        <time>2023-05-08T11:08:53.662Z</time>
      </trkpt>
      <trkpt lat="47.37796" lon="-0.97683">
        <ele>62.454585</ele>
        <time>2023-05-08T11:08:56.658Z</time>
      </trkpt>
      <trkpt lat="47.37797" lon="-0.97664">
        <ele>62.362648</ele>
        <time>2023-05-08T11:08:59.660Z</time>
      </trkpt>
      <trkpt lat="47.37797" lon="-0.97646">
        <ele>62.276396</ele>
        <time>2023-05-08T11:09:02.662Z</time>
      </trkpt>
      <trkpt lat="47.37797" lon="-0.97629">
        <ele>62.192687</ele>
        <time>2023-05-08T11:09:05.657Z</time>
      </trkpt>
      <trkpt lat="47.37797" lon="-0.97613">
        <ele>62.115351</ele>
        <time>2023-05-08T11:09:08.658Z</time>
      </trkpt>
      <trkpt lat="47.37798" lon="-0.97598">
        <ele>62.040671</ele>
        <time>2023-05-08T11:09:11.659Z</time>
      </trkpt>
      <trkpt lat="47.37799" lon="-0.97583">
        <ele>61.967385</ele>
        <time>2023-05-08T11:09:14.653Z</time>
      </trkpt>
      <trkpt lat="47.378" lon="-0.97568">
        <ele>61.894429</ele>
        <time>2023-05-08T11:09:17.663Z</time>
      </trkpt>
      <trkpt lat="47.37801" lon="-0.97555">
        <ele>61.827801</ele>
        <time>2023-05-08T11:09:20.656Z</time>
      </trkpt>
      <trkpt lat="47.37802" lon="-0.97541">
        <ele>61.758333</ele>
        <time>2023-05-08T11:09:23.655Z</time>
      </trkpt>
      <trkpt lat="47.37804" lon="-0.97525">
        <ele>61.681464</ele>
        <time>2023-05-08T11:09:26.657Z</time>
      </trkpt>
      <trkpt lat="47.37806" lon="-0.97512">
        <ele>61.705704</ele>
        <time>2023-05-08T11:09:29.663Z</time>
      </trkpt>
      <trkpt lat="47.37807" lon="-0.97496">
        <ele>61.742498</ele>
        <time>2023-05-08T11:09:32.658Z</time>
      </trkpt>
      <trkpt lat="47.37809" lon="-0.9748">
        <ele>61.779795</ele>
        <time>2023-05-08T11:09:35.655Z</time>
      </trkpt>
      <trkpt lat="47.37811" lon="-0.97463">
        <ele>61.818896</ele>
        <time>2023-05-08T11:09:38.662Z</time>
      </trkpt>
      <trkpt lat="47.37812" lon="-0.97446">
        <ele>61.858939</ele>
        <time>2023-05-08T11:09:41.670Z</time>
      </trkpt>
      <trkpt lat="47.37813" lon="-0.97428">
        <ele>61.900642</ele>
        <time>2023-05-08T11:09:44.659Z</time>
      </trkpt>
      <trkpt lat="47.37814" lon="-0.97412">
        <ele>61.938795</ele>
        <time>2023-05-08T11:09:47.668Z</time>
      </trkpt>
      <trkpt lat="47.37815" lon="-0.97397">
        <ele>61.973722</ele>
        <time>2023-05-08T11:09:50.650Z</time>
      </trkpt>
      <trkpt lat="47.37816" lon="-0.97379">
        <ele>62.014273</ele>
        <time>2023-05-08T11:09:53.657Z</time>
      </trkpt>
      <trkpt lat="47.37816" lon="-0.97362">
        <ele>62.053416</ele>
        <time>2023-05-08T11:09:56.661Z</time>
      </trkpt>
      <trkpt lat="47.37819" lon="-0.97344">
        <ele>62.096105</ele>
        <time>2023-05-08T11:09:59.661Z</time>
      </trkpt>
      <trkpt lat="47.37822" lon="-0.97325">
        <ele>62.140194</ele>
        <time>2023-05-08T11:10:02.656Z</time>
      </trkpt>
      <trkpt lat="47.37824" lon="-0.97313">
        <ele>62.170995</ele>
        <time>2023-05-08T11:10:04.658Z</time>
      </trkpt>
      <trkpt lat="47.37829" lon="-0.97295">
        <ele>62.214556</ele>
        <time>2023-05-08T11:10:07.665Z</time>
      </trkpt>
      <trkpt lat="47.37832" lon="-0.97279">
        <ele>62.252294</ele>
        <time>2023-05-08T11:10:10.659Z</time>
      </trkpt>
      <trkpt lat="47.37834" lon="-0.97265">
        <ele>62.285558</ele>
        <time>2023-05-08T11:10:13.663Z</time>
      </trkpt>
      <trkpt lat="47.37836" lon="-0.9725">
        <ele>62.293443</ele>
        <time>2023-05-08T11:10:16.657Z</time>
      </trkpt>
      <trkpt lat="47.37839" lon="-0.97235">
        <ele>62.298169</ele>
        <time>2023-05-08T11:10:19.654Z</time>
      </trkpt>
      <trkpt lat="47.37842" lon="-0.97218">
        <ele>62.303071</ele>
        <time>2023-05-08T11:10:22.658Z</time>
      </trkpt>
      <trkpt lat="47.37845" lon="-0.97202">
        <ele>62.307997</ele>
        <time>2023-05-08T11:10:25.662Z</time>
      </trkpt>
      <trkpt lat="47.3785" lon="-0.97186">
        <ele>62.312955</ele>
        <time>2023-05-08T11:10:28.656Z</time>
      </trkpt>
      <trkpt lat="47.37854" lon="-0.9717">
        <ele>62.317958</ele>
        <time>2023-05-08T11:10:31.680Z</time>
      </trkpt>
      <trkpt lat="47.37858" lon="-0.97156">
        <ele>62.322462</ele>
        <time>2023-05-08T11:10:34.663Z</time>
      </trkpt>
      <trkpt lat="47.37862" lon="-0.97142">
        <ele>62.326854</ele>
        <time>2023-05-08T11:10:37.668Z</time>
      </trkpt>
      <trkpt lat="47.37866" lon="-0.97127">
        <ele>62.331596</ele>
        <time>2023-05-08T11:10:40.659Z</time>
      </trkpt>
      <trkpt lat="47.3787" lon="-0.9711">
        <ele>62.336701</ele>
        <time>2023-05-08T11:10:43.656Z</time>
      </trkpt>
      <trkpt lat="47.37872" lon="-0.97093">
        <ele>62.341726</ele>
        <time>2023-05-08T11:10:46.665Z</time>
      </trkpt>
      <trkpt lat="47.37876" lon="-0.97076">
        <ele>62.346767</ele>
        <time>2023-05-08T11:10:49.658Z</time>
      </trkpt>
      <trkpt lat="47.37879" lon="-0.9706">
        <ele>62.351804</ele>
        <time>2023-05-08T11:10:52.664Z</time>
      </trkpt>
      <trkpt lat="47.37884" lon="-0.97044">
        <ele>62.356922</ele>
        <time>2023-05-08T11:10:55.656Z</time>
      </trkpt>
      <trkpt lat="47.37888" lon="-0.97028">
        <ele>62.361938</ele>
        <time>2023-05-08T11:10:58.661Z</time>
      </trkpt>
      <trkpt lat="47.37892" lon="-0.97012">
        <ele>62.365109</ele>
        <time>2023-05-08T11:11:01.658Z</time>
      </trkpt>
      <trkpt lat="47.37896" lon="-0.96997">
        <ele>62.337402</ele>
        <time>2023-05-08T11:11:04.657Z</time>
      </trkpt>
      <trkpt lat="47.37898" lon="-0.96982">
        <ele>62.310675</ele>
        <time>2023-05-08T11:11:07.662Z</time>
      </trkpt>
      <trkpt lat="47.37901" lon="-0.96968">
        <ele>62.284265</ele>
        <time>2023-05-08T11:11:10.658Z</time>
      </trkpt>
      <trkpt lat="47.37904" lon="-0.96951">
        <ele>62.254902</ele>
        <time>2023-05-08T11:11:14.660Z</time>
      </trkpt>
      <trkpt lat="47.37907" lon="-0.96937">
        <ele>62.228533</ele>
        <time>2023-05-08T11:11:18.672Z</time>
      </trkpt>
      <trkpt lat="47.37909" lon="-0.96924">
        <ele>62.205</ele>
        <time>2023-05-08T11:11:21.656Z</time>
      </trkpt>
      <trkpt lat="47.37911" lon="-0.96909">
        <ele>62.177634</ele>
        <time>2023-05-08T11:11:24.657Z</time>
      </trkpt>
      <trkpt lat="47.37913" lon="-0.96892">
        <ele>62.147454</ele>
        <time>2023-05-08T11:11:27.660Z</time>
      </trkpt>
      <trkpt lat="47.37915" lon="-0.96875">
        <ele>62.116632</ele>
        <time>2023-05-08T11:11:30.663Z</time>
      </trkpt>
      <trkpt lat="47.37917" lon="-0.96857">
        <ele>62.085719</ele>
        <time>2023-05-08T11:11:33.668Z</time>
      </trkpt>
      <trkpt lat="47.3792" lon="-0.9684">
        <ele>62.053336</ele>
        <time>2023-05-08T11:11:36.661Z</time>
      </trkpt>
      <trkpt lat="47.37924" lon="-0.96823">
        <ele>62.022447</ele>
        <time>2023-05-08T11:11:39.665Z</time>
      </trkpt>
      <trkpt lat="47.37926" lon="-0.96805">
        <ele>61.990583</ele>
        <time>2023-05-08T11:11:42.661Z</time>
      </trkpt>
      <trkpt lat="47.3793" lon="-0.96787">
        <ele>61.958172</ele>
        <time>2023-05-08T11:11:45.662Z</time>
      </trkpt>
      <trkpt lat="47.37932" lon="-0.9677">
        <ele>61.928135</ele>
        <time>2023-05-08T11:11:48.668Z</time>
      </trkpt>
      <trkpt lat="47.37934" lon="-0.96756">
        <ele>61.902491</ele>
        <time>2023-05-08T11:11:51.660Z</time>
      </trkpt>
      <trkpt lat="47.37936" lon="-0.96738">
        <ele>61.824382</ele>
        <time>2023-05-08T11:11:55.663Z</time>
      </trkpt>
      <trkpt lat="47.37938" lon="-0.96723">
        <ele>61.755208</ele>
        <time>2023-05-08T11:11:58.655Z</time>
      </trkpt>
      <trkpt lat="47.3794" lon="-0.96707">
        <ele>61.682492</ele>
        <time>2023-05-08T11:12:01.656Z</time>
      </trkpt>
      <trkpt lat="47.37942" lon="-0.96691">
        <ele>61.608737</ele>
        <time>2023-05-08T11:12:04.661Z</time>
      </trkpt>
      <trkpt lat="47.37942" lon="-0.96674">
        <ele>61.532761</ele>
        <time>2023-05-08T11:12:07.665Z</time>
      </trkpt>
      <trkpt lat="47.37943" lon="-0.96658">
        <ele>61.460003</ele>
        <time>2023-05-08T11:12:10.659Z</time>
      </trkpt>
      <trkpt lat="47.37944" lon="-0.96642">
        <ele>61.387374</ele>
        <time>2023-05-08T11:12:13.662Z</time>
      </trkpt>
      <trkpt lat="47.37945" lon="-0.96626">
        <ele>61.311294</ele>
        <time>2023-05-08T11:12:16.651Z</time>
      </trkpt>
      <trkpt lat="47.37947" lon="-0.96608">
        <ele>61.231788</ele>
        <time>2023-05-08T11:12:19.668Z</time>
      </trkpt>
      <trkpt lat="47.37947" lon="-0.96591">
        <ele>61.155774</ele>
        <time>2023-05-08T11:12:22.662Z</time>
      </trkpt>
      <trkpt lat="47.37947" lon="-0.96574">
        <ele>61.078094</ele>
        <time>2023-05-08T11:12:25.658Z</time>
      </trkpt>
      <trkpt lat="47.37948" lon="-0.96557">
        <ele>60.999333</ele>
        <time>2023-05-08T11:12:28.657Z</time>
      </trkpt>
      <trkpt lat="47.37949" lon="-0.96539">
        <ele>60.918671</ele>
        <time>2023-05-08T11:12:31.655Z</time>
      </trkpt>
      <trkpt lat="47.3795" lon="-0.96521">
        <ele>60.839411</ele>
        <time>2023-05-08T11:12:34.665Z</time>
      </trkpt>
      <trkpt lat="47.37952" lon="-0.96506">
        <ele>60.768274</ele>
        <time>2023-05-08T11:12:37.659Z</time>
      </trkpt>
      <trkpt lat="47.37953" lon="-0.96491">
        <ele>60.701167</ele>
        <time>2023-05-08T11:12:40.656Z</time>
      </trkpt>
      <trkpt lat="47.37954" lon="-0.96477">
        <ele>60.760829</ele>
        <time>2023-05-08T11:12:43.660Z</time>
      </trkpt>
      <trkpt lat="47.37956" lon="-0.96461">
        <ele>60.82892</ele>
        <time>2023-05-08T11:12:46.656Z</time>
      </trkpt>
      <trkpt lat="47.37958" lon="-0.96444">
        <ele>60.900661</ele>
        <time>2023-05-08T11:12:49.666Z</time>
      </trkpt>
      <trkpt lat="47.37959" lon="-0.96427">
        <ele>60.971688</ele>
        <time>2023-05-08T11:12:52.650Z</time>
      </trkpt>
      <trkpt lat="47.37959" lon="-0.96411">
        <ele>61.039123</ele>
        <time>2023-05-08T11:12:55.665Z</time>
      </trkpt>
      <trkpt lat="47.37962" lon="-0.96397">
        <ele>61.099876</ele>
        <time>2023-05-08T11:12:58.651Z</time>
      </trkpt>
      <trkpt lat="47.37967" lon="-0.96384">
        <ele>61.160486</ele>
        <time>2023-05-08T11:13:01.659Z</time>
      </trkpt>
      <trkpt lat="47.37974" lon="-0.96376">
        <ele>61.220332</ele>
        <time>2023-05-08T11:13:04.655Z</time>
      </trkpt>
      <trkpt lat="47.37984" lon="-0.96374">
        <ele>61.279455</ele>
        <time>2023-05-08T11:13:07.653Z</time>
      </trkpt>
      <trkpt lat="47.37996" lon="-0.96379">
        <ele>61.353818</ele>
        <time>2023-05-08T11:13:11.653Z</time>
      </trkpt>
      <trkpt lat="47.38007" lon="-0.96379">
        <ele>61.424817</ele>
        <time>2023-05-08T11:13:15.652Z</time>
      </trkpt>
      <trkpt lat="47.38015" lon="-0.96369">
        <ele>61.490461</ele>
        <time>2023-05-08T11:13:19.652Z</time>
      </trkpt>
      <trkpt lat="47.38018" lon="-0.96355">
        <ele>61.551636</ele>
        <time>2023-05-08T11:13:23.656Z</time>
      </trkpt>
      <trkpt lat="47.3802" lon="-0.96339">
        <ele>61.61841</ele>
        <time>2023-05-08T11:13:27.660Z</time>
      </trkpt>
      <trkpt lat="47.38021" lon="-0.96322">
        <ele>61.688679</ele>
        <time>2023-05-08T11:13:31.656Z</time>
      </trkpt>
      <trkpt lat="47.38023" lon="-0.96306">
        <ele>61.758225</ele>
        <time>2023-05-08T11:13:35.662Z</time>
      </trkpt>
      <trkpt lat="47.38026" lon="-0.96291">
        <ele>61.822079</ele>
        <time>2023-05-08T11:13:39.656Z</time>
      </trkpt>
      <trkpt lat="47.38027" lon="-0.96274">
        <ele>61.884489</ele>
        <time>2023-05-08T11:13:43.655Z</time>
      </trkpt>
      <trkpt lat="47.3803" lon="-0.96257">
        <ele>61.946481</ele>
        <time>2023-05-08T11:13:47.662Z</time>
      </trkpt>
      <trkpt lat="47.38032" lon="-0.96241">
        <ele>62.00751</ele>
        <time>2023-05-08T11:13:51.655Z</time>
      </trkpt>
      <trkpt lat="47.38035" lon="-0.96227">
        <ele>62.058346</ele>
        <time>2023-05-08T11:13:55.662Z</time>
      </trkpt>
      <trkpt lat="47.38034" lon="-0.96212">
        <ele>62.113226</ele>
        <time>2023-05-08T11:14:01.655Z</time>
      </trkpt>
      <trkpt lat="47.38029" lon="-0.962">
        <ele>62.162847</ele>
        <time>2023-05-08T11:14:52.656Z</time>
      </trkpt>
      <trkpt lat="47.38022" lon="-0.96189">
        <ele>62.217038</ele>
        <time>2023-05-08T11:14:59.655Z</time>
      </trkpt>
      <trkpt lat="47.38013" lon="-0.96182">
        <ele>62.276308</ele>
        <time>2023-05-08T11:15:04.656Z</time>
      </trkpt>
      <trkpt lat="47.38006" lon="-0.96172">
        <ele>62.328596</ele>
        <time>2023-05-08T11:15:08.652Z</time>
      </trkpt>
      <trkpt lat="47.37999" lon="-0.96162">
        <ele>62.379349</ele>
        <time>2023-05-08T11:15:12.663Z</time>
      </trkpt>
      <trkpt lat="47.37994" lon="-0.96149">
        <ele>62.433452</ele>
        <time>2023-05-08T11:15:17.659Z</time>
      </trkpt>
      <trkpt lat="47.37995" lon="-0.96132">
        <ele>62.494351</ele>
        <time>2023-05-08T11:15:22.660Z</time>
      </trkpt>
      <trkpt lat="47.37997" lon="-0.96118">
        <ele>62.545709</ele>
        <time>2023-05-08T11:15:26.650Z</time>
      </trkpt>
      <trkpt lat="47.38" lon="-0.96102">
        <ele>62.604495</ele>
        <time>2023-05-08T11:15:30.656Z</time>
      </trkpt>
      <trkpt lat="47.38002" lon="-0.96086">
        <ele>62.666973</ele>
        <time>2023-05-08T11:15:34.661Z</time>
      </trkpt>
      <trkpt lat="47.38006" lon="-0.96069">
        <ele>62.730496</ele>
        <time>2023-05-08T11:15:38.658Z</time>
      </trkpt>
      <trkpt lat="47.3801" lon="-0.96057">
        <ele>62.778019</ele>
        <time>2023-05-08T11:15:41.655Z</time>
      </trkpt>
      <trkpt lat="47.38013" lon="-0.96044">
        <ele>62.742422</ele>
        <time>2023-05-08T11:15:44.663Z</time>
      </trkpt>
      <trkpt lat="47.38019" lon="-0.96031">
        <ele>62.704403</ele>
        <time>2023-05-08T11:15:47.653Z</time>
      </trkpt>
      <trkpt lat="47.38025" lon="-0.96017">
        <ele>62.664077</ele>
        <time>2023-05-08T11:15:50.660Z</time>
      </trkpt>
      <trkpt lat="47.38031" lon="-0.96005">
        <ele>62.625934</ele>
        <time>2023-05-08T11:15:53.665Z</time>
      </trkpt>
      <trkpt lat="47.38037" lon="-0.95994">
        <ele>62.58961</ele>
        <time>2023-05-08T11:15:56.667Z</time>
      </trkpt>
      <trkpt lat="47.38044" lon="-0.95983">
        <ele>62.554611</ele>
        <time>2023-05-08T11:15:59.671Z</time>
      </trkpt>
      <trkpt lat="47.38052" lon="-0.95973">
        <ele>62.51384</ele>
        <time>2023-05-08T11:16:03.660Z</time>
      </trkpt>
      <trkpt lat="47.3806" lon="-0.95966">
        <ele>62.479453</ele>
        <time>2023-05-08T11:16:07.645Z</time>
      </trkpt>
      <trkpt lat="47.3807" lon="-0.95956">
        <ele>62.436153</ele>
        <time>2023-05-08T11:16:11.652Z</time>
      </trkpt>
      <trkpt lat="47.38079" lon="-0.95947">
        <ele>62.398064</ele>
        <time>2023-05-08T11:16:14.662Z</time>
      </trkpt>
      <trkpt lat="47.38085" lon="-0.95938">
        <ele>62.364721</ele>
        <time>2023-05-08T11:16:17.657Z</time>
      </trkpt>
      <trkpt lat="47.38091" lon="-0.95927">
        <ele>62.330983</ele>
        <time>2023-05-08T11:16:20.663Z</time>
      </trkpt>
      <trkpt lat="47.38096" lon="-0.95916">
        <ele>62.295656</ele>
        <time>2023-05-08T11:16:23.656Z</time>
      </trkpt>
      <trkpt lat="47.38102" lon="-0.95904">
        <ele>62.258468</ele>
        <time>2023-05-08T11:16:26.662Z</time>
      </trkpt>
      <trkpt lat="47.38108" lon="-0.95892">
        <ele>62.223332</ele>
        <time>2023-05-08T11:16:29.661Z</time>
      </trkpt>
      <trkpt lat="47.38114" lon="-0.95878">
        <ele>62.181391</ele>
        <time>2023-05-08T11:16:33.661Z</time>
      </trkpt>
      <trkpt lat="47.38122" lon="-0.95861">
        <ele>62.130368</ele>
        <time>2023-05-08T11:17:55.654Z</time>
      </trkpt>
      <trkpt lat="47.38128" lon="-0.95849">
        <ele>62.107736</ele>
        <time>2023-05-08T11:18:00.658Z</time>
      </trkpt>
      <trkpt lat="47.38136" lon="-0.95836">
        <ele>62.093552</ele>
        <time>2023-05-08T11:18:04.658Z</time>
      </trkpt>
      <trkpt lat="47.38143" lon="-0.95821">
        <ele>62.079036</ele>
        <time>2023-05-08T11:18:08.658Z</time>
      </trkpt>
      <trkpt lat="47.38148" lon="-0.95809">
        <ele>62.067304</ele>
        <time>2023-05-08T11:18:11.655Z</time>
      </trkpt>
      <trkpt lat="47.38153" lon="-0.95797">
        <ele>62.055161</ele>
        <time>2023-05-08T11:18:14.657Z</time>
      </trkpt>
      <trkpt lat="47.38159" lon="-0.95783">
        <ele>62.04186</ele>
        <time>2023-05-08T11:18:17.652Z</time>
      </trkpt>
      <trkpt lat="47.38165" lon="-0.95768">
        <ele>62.028208</ele>
        <time>2023-05-08T11:18:20.658Z</time>
      </trkpt>
      <trkpt lat="47.3817" lon="-0.95754">
        <ele>62.015229</ele>
        <time>2023-05-08T11:18:23.659Z</time>
      </trkpt>
      <trkpt lat="47.38175" lon="-0.95742">
        <ele>62.002942</ele>
        <time>2023-05-08T11:18:26.658Z</time>
      </trkpt>
      <trkpt lat="47.3818" lon="-0.9573">
        <ele>61.991676</ele>
        <time>2023-05-08T11:18:29.657Z</time>
      </trkpt>
      <trkpt lat="47.38185" lon="-0.95719">
        <ele>61.980825</ele>
        <time>2023-05-08T11:18:32.653Z</time>
      </trkpt>
      <trkpt lat="47.3819" lon="-0.95706">
        <ele>61.96905</ele>
        <time>2023-05-08T11:18:35.660Z</time>
      </trkpt>
      <trkpt lat="47.38194" lon="-0.95693">
        <ele>61.956865</ele>
        <time>2023-05-08T11:18:38.667Z</time>
      </trkpt>
      <trkpt lat="47.382" lon="-0.9568">
        <ele>61.94432</ele>
        <time>2023-05-08T11:18:41.660Z</time>
      </trkpt>
      <trkpt lat="47.38206" lon="-0.95668">
        <ele>61.932452</ele>
        <time>2023-05-08T11:18:44.653Z</time>
      </trkpt>
      <trkpt lat="47.38211" lon="-0.95657">
        <ele>61.921058</ele>
        <time>2023-05-08T11:18:47.649Z</time>
      </trkpt>
      <trkpt lat="47.38216" lon="-0.95645">
        <ele>61.909391</ele>
        <time>2023-05-08T11:18:50.659Z</time>
      </trkpt>
      <trkpt lat="47.38222" lon="-0.95632">
        <ele>61.894876</ele>
        <time>2023-05-08T11:18:53.661Z</time>
      </trkpt>
      <trkpt lat="47.38228" lon="-0.95618">
        <ele>61.869762</ele>
        <time>2023-05-08T11:18:56.661Z</time>
      </trkpt>
      <trkpt lat="47.38233" lon="-0.95603">
        <ele>61.844157</ele>
        <time>2023-05-08T11:18:59.666Z</time>
      </trkpt>
      <trkpt lat="47.38238" lon="-0.9559">
        <ele>61.820613</ele>
        <time>2023-05-08T11:19:02.655Z</time>
      </trkpt>
      <trkpt lat="47.38244" lon="-0.95574">
        <ele>61.794381</ele>
        <time>2023-05-08T11:19:06.660Z</time>
      </trkpt>
      <trkpt lat="47.38248" lon="-0.95562">
        <ele>61.77344</ele>
        <time>2023-05-08T11:19:09.660Z</time>
      </trkpt>
      <trkpt lat="47.38254" lon="-0.9555">
        <ele>61.750534</ele>
        <time>2023-05-08T11:19:12.651Z</time>
      </trkpt>
      <trkpt lat="47.3826" lon="-0.95536">
        <ele>61.725084</ele>
        <time>2023-05-08T11:19:15.666Z</time>
      </trkpt>
      <trkpt lat="47.38266" lon="-0.95521">
        <ele>61.698722</ele>
        <time>2023-05-08T11:19:18.662Z</time>
      </trkpt>
      <trkpt lat="47.38272" lon="-0.95507">
        <ele>61.672526</ele>
        <time>2023-05-08T11:19:21.662Z</time>
      </trkpt>
      <trkpt lat="47.38278" lon="-0.95494">
        <ele>61.649103</ele>
        <time>2023-05-08T11:19:24.662Z</time>
      </trkpt>
      <trkpt lat="47.38285" lon="-0.95482">
        <ele>61.625097</ele>
        <time>2023-05-08T11:19:27.658Z</time>
      </trkpt>
      <trkpt lat="47.38292" lon="-0.95473">
        <ele>61.603865</ele>
        <time>2023-05-08T11:19:30.657Z</time>
      </trkpt>
      <trkpt lat="47.38299" lon="-0.9546">
        <ele>61.578869</ele>
        <time>2023-05-08T11:19:34.662Z</time>
      </trkpt>
      <trkpt lat="47.38306" lon="-0.95449">
        <ele>61.555157</ele>
        <time>2023-05-08T11:19:38.658Z</time>
      </trkpt>
      <trkpt lat="47.38314" lon="-0.95438">
        <ele>61.530603</ele>
        <time>2023-05-08T11:19:42.650Z</time>
      </trkpt>
      <trkpt lat="47.38321" lon="-0.95428">
        <ele>61.508669</ele>
        <time>2023-05-08T11:19:45.665Z</time>
      </trkpt>
      <trkpt lat="47.38328" lon="-0.95417">
        <ele>61.52261</ele>
        <time>2023-05-08T11:19:48.659Z</time>
      </trkpt>
      <trkpt lat="47.38336" lon="-0.95407">
        <ele>61.627419</ele>
        <time>2023-05-08T11:19:51.654Z</time>
      </trkpt>
      <trkpt lat="47.38344" lon="-0.95398">
        <ele>61.735753</ele>
        <time>2023-05-08T11:19:54.659Z</time>
      </trkpt>
      <trkpt lat="47.38352" lon="-0.95388">
        <ele>61.847162</ele>
        <time>2023-05-08T11:19:57.655Z</time>
      </trkpt>
      <trkpt lat="47.3836" lon="-0.95377">
        <ele>61.962007</ele>
        <time>2023-05-08T11:20:00.659Z</time>
      </trkpt>
      <trkpt lat="47.38368" lon="-0.95366">
        <ele>62.077316</ele>
        <time>2023-05-08T11:20:03.660Z</time>
      </trkpt>
      <trkpt lat="47.38377" lon="-0.95356">
        <ele>62.192954</ele>
        <time>2023-05-08T11:20:06.662Z</time>
      </trkpt>
      <trkpt lat="47.38385" lon="-0.95345">
        <ele>62.309984</ele>
        <time>2023-05-08T11:20:09.659Z</time>
      </trkpt>
      <trkpt lat="47.38393" lon="-0.95334">
        <ele>62.424385</ele>
        <time>2023-05-08T11:20:12.653Z</time>
      </trkpt>
      <trkpt lat="47.384" lon="-0.95323">
        <ele>62.532807</ele>
        <time>2023-05-08T11:20:15.659Z</time>
      </trkpt>
      <trkpt lat="47.38408" lon="-0.95311">
        <ele>62.646984</ele>
        <time>2023-05-08T11:20:18.661Z</time>
      </trkpt>
      <trkpt lat="47.38415" lon="-0.95297">
        <ele>62.769972</ele>
        <time>2023-05-08T11:20:21.652Z</time>
      </trkpt>
      <trkpt lat="47.38422" lon="-0.95285">
        <ele>62.884127</ele>
        <time>2023-05-08T11:20:24.655Z</time>
      </trkpt>
      <trkpt lat="47.38429" lon="-0.95274">
        <ele>62.989743</ele>
        <time>2023-05-08T11:20:27.653Z</time>
      </trkpt>
      <trkpt lat="47.38434" lon="-0.95263">
        <ele>63.089033</ele>
        <time>2023-05-08T11:20:30.662Z</time>
      </trkpt>
      <trkpt lat="47.3844" lon="-0.95251">
        <ele>63.192898</ele>
        <time>2023-05-08T11:20:33.656Z</time>
      </trkpt>
      <trkpt lat="47.38446" lon="-0.95238">
        <ele>63.303222</ele>
        <time>2023-05-08T11:20:36.662Z</time>
      </trkpt>
      <trkpt lat="47.38452" lon="-0.95225">
        <ele>63.360374</ele>
        <time>2023-05-08T11:20:39.659Z</time>
      </trkpt>
      <trkpt lat="47.38458" lon="-0.95211">
        <ele>63.316494</ele>
        <time>2023-05-08T11:20:42.681Z</time>
      </trkpt>
      <trkpt lat="47.38465" lon="-0.95198">
        <ele>63.272226</ele>
        <time>2023-05-08T11:20:45.659Z</time>
      </trkpt>
      <trkpt lat="47.38473" lon="-0.95186">
        <ele>63.22749</ele>
        <time>2023-05-08T11:20:48.661Z</time>
      </trkpt>
      <trkpt lat="47.38481" lon="-0.95174">
        <ele>63.182278</ele>
        <time>2023-05-08T11:20:51.658Z</time>
      </trkpt>
      <trkpt lat="47.38489" lon="-0.95162">
        <ele>63.137518</ele>
        <time>2023-05-08T11:20:54.659Z</time>
      </trkpt>
      <trkpt lat="47.38497" lon="-0.95151">
        <ele>63.095482</ele>
        <time>2023-05-08T11:20:57.652Z</time>
      </trkpt>
      <trkpt lat="47.38504" lon="-0.95139">
        <ele>63.051651</ele>
        <time>2023-05-08T11:21:00.659Z</time>
      </trkpt>
      <trkpt lat="47.38511" lon="-0.95127">
        <ele>63.009473</ele>
        <time>2023-05-08T11:21:03.661Z</time>
      </trkpt>
      <trkpt lat="47.38518" lon="-0.95114">
        <ele>62.966567</ele>
        <time>2023-05-08T11:21:06.657Z</time>
      </trkpt>
      <trkpt lat="47.38525" lon="-0.95102">
        <ele>62.924809</ele>
        <time>2023-05-08T11:21:09.653Z</time>
      </trkpt>
      <trkpt lat="47.38532" lon="-0.9509">
        <ele>62.88243</ele>
        <time>2023-05-08T11:21:12.649Z</time>
      </trkpt>
      <trkpt lat="47.3854" lon="-0.95078">
        <ele>62.837309</ele>
        <time>2023-05-08T11:21:15.658Z</time>
      </trkpt>
      <trkpt lat="47.38549" lon="-0.95067">
        <ele>62.792441</ele>
        <time>2023-05-08T11:21:18.645Z</time>
      </trkpt>
      <trkpt lat="47.38558" lon="-0.95057">
        <ele>62.747665</ele>
        <time>2023-05-08T11:21:21.660Z</time>
      </trkpt>
      <trkpt lat="47.38568" lon="-0.95048">
        <ele>62.70242</ele>
        <time>2023-05-08T11:21:24.660Z</time>
      </trkpt>
      <trkpt lat="47.38577" lon="-0.95039">
        <ele>62.67353</ele>
        <time>2023-05-08T11:21:27.660Z</time>
      </trkpt>
      <trkpt lat="47.38587" lon="-0.9503">
        <ele>62.697145</ele>
        <time>2023-05-08T11:21:30.661Z</time>
      </trkpt>
      <trkpt lat="47.38597" lon="-0.95022">
        <ele>62.720288</ele>
        <time>2023-05-08T11:21:33.653Z</time>
      </trkpt>
      <trkpt lat="47.38606" lon="-0.95015">
        <ele>62.743146</ele>
        <time>2023-05-08T11:21:36.661Z</time>
      </trkpt>
      <trkpt lat="47.38615" lon="-0.95006">
        <ele>62.766182</ele>
        <time>2023-05-08T11:21:39.661Z</time>
      </trkpt>
      <trkpt lat="47.38625" lon="-0.94998">
        <ele>62.788459</ele>
        <time>2023-05-08T11:21:42.661Z</time>
      </trkpt>
      <trkpt lat="47.38634" lon="-0.9499">
        <ele>62.811248</ele>
        <time>2023-05-08T11:21:45.660Z</time>
      </trkpt>
      <trkpt lat="47.38644" lon="-0.94981">
        <ele>62.835242</ele>
        <time>2023-05-08T11:21:48.664Z</time>
      </trkpt>
      <trkpt lat="47.38653" lon="-0.94971">
        <ele>62.859447</ele>
        <time>2023-05-08T11:21:51.657Z</time>
      </trkpt>
      <trkpt lat="47.38662" lon="-0.9496">
        <ele>62.883419</ele>
        <time>2023-05-08T11:21:54.658Z</time>
      </trkpt>
      <trkpt lat="47.3867" lon="-0.94949">
        <ele>62.907459</ele>
        <time>2023-05-08T11:21:57.668Z</time>
      </trkpt>
      <trkpt lat="47.38679" lon="-0.94937">
        <ele>62.931628</ele>
        <time>2023-05-08T11:22:00.668Z</time>
      </trkpt>
      <trkpt lat="47.38687" lon="-0.94926">
        <ele>62.954699</ele>
        <time>2023-05-08T11:22:03.658Z</time>
      </trkpt>
      <trkpt lat="47.38695" lon="-0.94915">
        <ele>62.977658</ele>
        <time>2023-05-08T11:22:06.664Z</time>
      </trkpt>
      <trkpt lat="47.38703" lon="-0.94904">
        <ele>63.000255</ele>
        <time>2023-05-08T11:22:09.660Z</time>
      </trkpt>
      <trkpt lat="47.3871" lon="-0.94895">
        <ele>63.020688</ele>
        <time>2023-05-08T11:22:12.661Z</time>
      </trkpt>
      <trkpt lat="47.38717" lon="-0.94885">
        <ele>63.04011</ele>
        <time>2023-05-08T11:22:15.661Z</time>
      </trkpt>
      <trkpt lat="47.38723" lon="-0.94874">
        <ele>63.068822</ele>
        <time>2023-05-08T11:22:18.650Z</time>
      </trkpt>
      <trkpt lat="47.38731" lon="-0.94863">
        <ele>63.100465</ele>
        <time>2023-05-08T11:22:21.665Z</time>
      </trkpt>
      <trkpt lat="47.38737" lon="-0.94851">
        <ele>63.129846</ele>
        <time>2023-05-08T11:22:24.652Z</time>
      </trkpt>
      <trkpt lat="47.38743" lon="-0.9484">
        <ele>63.15979</ele>
        <time>2023-05-08T11:22:27.655Z</time>
      </trkpt>
      <trkpt lat="47.38751" lon="-0.94828">
        <ele>63.19241</ele>
        <time>2023-05-08T11:22:30.658Z</time>
      </trkpt>
      <trkpt lat="47.38759" lon="-0.94816">
        <ele>63.22653</ele>
        <time>2023-05-08T11:22:33.654Z</time>
      </trkpt>
      <trkpt lat="47.38767" lon="-0.94804">
        <ele>63.261151</ele>
        <time>2023-05-08T11:22:36.658Z</time>
      </trkpt>
      <trkpt lat="47.38776" lon="-0.94792">
        <ele>63.296335</ele>
        <time>2023-05-08T11:22:39.662Z</time>
      </trkpt>
      <trkpt lat="47.38784" lon="-0.9478">
        <ele>63.331947</ele>
        <time>2023-05-08T11:22:42.657Z</time>
      </trkpt>
      <trkpt lat="47.38793" lon="-0.94768">
        <ele>63.367978</ele>
        <time>2023-05-08T11:22:45.669Z</time>
      </trkpt>
      <trkpt lat="47.38802" lon="-0.94757">
        <ele>63.403225</ele>
        <time>2023-05-08T11:22:48.650Z</time>
      </trkpt>
      <trkpt lat="47.38812" lon="-0.94746">
        <ele>63.438557</ele>
        <time>2023-05-08T11:22:51.661Z</time>
      </trkpt>
      <trkpt lat="47.38821" lon="-0.94735">
        <ele>63.473888</ele>
        <time>2023-05-08T11:22:54.660Z</time>
      </trkpt>
      <trkpt lat="47.38831" lon="-0.94724">
        <ele>63.510771</ele>
        <time>2023-05-08T11:22:57.663Z</time>
      </trkpt>
      <trkpt lat="47.3884" lon="-0.94712">
        <ele>63.547561</ele>
        <time>2023-05-08T11:23:00.657Z</time>
      </trkpt>
      <trkpt lat="47.3885" lon="-0.94702">
        <ele>63.585231</ele>
        <time>2023-05-08T11:23:03.652Z</time>
      </trkpt>
      <trkpt lat="47.3886" lon="-0.94691">
        <ele>63.636044</ele>
        <time>2023-05-08T11:23:06.659Z</time>
      </trkpt>
      <trkpt lat="47.38869" lon="-0.94682">
        <ele>63.683286</ele>
        <time>2023-05-08T11:23:09.658Z</time>
      </trkpt>
      <trkpt lat="47.38878" lon="-0.94674">
        <ele>63.729484</ele>
        <time>2023-05-08T11:23:12.659Z</time>
      </trkpt>
      <trkpt lat="47.38889" lon="-0.94665">
        <ele>63.780262</ele>
        <time>2023-05-08T11:23:15.656Z</time>
      </trkpt>
      <trkpt lat="47.38899" lon="-0.94656">
        <ele>63.830242</ele>
        <time>2023-05-08T11:23:18.648Z</time>
      </trkpt>
      <trkpt lat="47.38909" lon="-0.94647">
        <ele>63.879503</ele>
        <time>2023-05-08T11:23:21.660Z</time>
      </trkpt>
      <trkpt lat="47.38918" lon="-0.94637">
        <ele>63.9281</ele>
        <time>2023-05-08T11:23:24.662Z</time>
      </trkpt>
      <trkpt lat="47.38927" lon="-0.94625">
        <ele>63.97913</ele>
        <time>2023-05-08T11:23:27.649Z</time>
      </trkpt>
      <trkpt lat="47.38936" lon="-0.94612">
        <ele>64.031211</ele>
        <time>2023-05-08T11:23:30.653Z</time>
      </trkpt>
      <trkpt lat="47.38945" lon="-0.94601">
        <ele>64.080849</ele>
        <time>2023-05-08T11:23:33.650Z</time>
      </trkpt>
      <trkpt lat="47.38953" lon="-0.94589">
        <ele>64.128422</ele>
        <time>2023-05-08T11:23:36.662Z</time>
      </trkpt>
      <trkpt lat="47.3896" lon="-0.94576">
        <ele>64.177491</ele>
        <time>2023-05-08T11:23:39.656Z</time>
      </trkpt>
      <trkpt lat="47.38968" lon="-0.94563">
        <ele>64.227979</ele>
        <time>2023-05-08T11:23:42.658Z</time>
      </trkpt>
      <trkpt lat="47.38976" lon="-0.94549">
        <ele>64.277976</ele>
        <time>2023-05-08T11:23:45.661Z</time>
      </trkpt>
      <trkpt lat="47.38983" lon="-0.94536">
        <ele>64.327482</ele>
        <time>2023-05-08T11:23:48.656Z</time>
      </trkpt>
      <trkpt lat="47.38991" lon="-0.94523">
        <ele>64.271602</ele>
        <time>2023-05-08T11:23:51.665Z</time>
      </trkpt>
      <trkpt lat="47.38998" lon="-0.9451">
        <ele>64.173629</ele>
        <time>2023-05-08T11:23:54.657Z</time>
      </trkpt>
      <trkpt lat="47.39006" lon="-0.94497">
        <ele>64.078404</ele>
        <time>2023-05-08T11:23:57.660Z</time>
      </trkpt>
      <trkpt lat="47.39012" lon="-0.94485">
        <ele>63.986568</ele>
        <time>2023-05-08T11:24:00.660Z</time>
      </trkpt>
      <trkpt lat="47.39019" lon="-0.94473">
        <ele>63.894935</ele>
        <time>2023-05-08T11:24:03.651Z</time>
      </trkpt>
      <trkpt lat="47.39027" lon="-0.94461">
        <ele>63.800024</ele>
        <time>2023-05-08T11:24:06.658Z</time>
      </trkpt>
      <trkpt lat="47.39035" lon="-0.9445">
        <ele>63.703897</ele>
        <time>2023-05-08T11:24:09.661Z</time>
      </trkpt>
      <trkpt lat="47.39043" lon="-0.94438">
        <ele>63.612426</ele>
        <time>2023-05-08T11:24:12.657Z</time>
      </trkpt>
      <trkpt lat="47.39051" lon="-0.94427">
        <ele>63.520141</ele>
        <time>2023-05-08T11:24:15.652Z</time>
      </trkpt>
      <trkpt lat="47.39058" lon="-0.94417">
        <ele>63.43342</ele>
        <time>2023-05-08T11:24:18.650Z</time>
      </trkpt>
      <trkpt lat="47.39066" lon="-0.94406">
        <ele>63.342216</ele>
        <time>2023-05-08T11:24:21.679Z</time>
      </trkpt>
      <trkpt lat="47.39073" lon="-0.94394">
        <ele>63.247585</ele>
        <time>2023-05-08T11:24:24.657Z</time>
      </trkpt>
      <trkpt lat="47.39081" lon="-0.94381">
        <ele>63.146769</ele>
        <time>2023-05-08T11:24:27.659Z</time>
      </trkpt>
      <trkpt lat="47.39089" lon="-0.94368">
        <ele>63.044856</ele>
        <time>2023-05-08T11:24:30.659Z</time>
      </trkpt>
      <trkpt lat="47.39098" lon="-0.94355">
        <ele>62.941942</ele>
        <time>2023-05-08T11:24:33.652Z</time>
      </trkpt>
      <trkpt lat="47.39106" lon="-0.94342">
        <ele>62.840291</ele>
        <time>2023-05-08T11:24:36.660Z</time>
      </trkpt>
      <trkpt lat="47.39114" lon="-0.94329">
        <ele>62.835654</ele>
        <time>2023-05-08T11:24:39.661Z</time>
      </trkpt>
      <trkpt lat="47.39122" lon="-0.94316">
        <ele>62.873604</ele>
        <time>2023-05-08T11:24:42.653Z</time>
      </trkpt>
      <trkpt lat="47.3913" lon="-0.94305">
        <ele>62.909045</ele>
        <time>2023-05-08T11:24:45.661Z</time>
      </trkpt>
      <trkpt lat="47.39137" lon="-0.94293">
        <ele>62.943727</ele>
        <time>2023-05-08T11:24:48.654Z</time>
      </trkpt>
      <trkpt lat="47.39145" lon="-0.94283">
        <ele>62.978738</ele>
        <time>2023-05-08T11:24:51.657Z</time>
      </trkpt>
      <trkpt lat="47.39154" lon="-0.94272">
        <ele>63.014422</ele>
        <time>2023-05-08T11:24:54.652Z</time>
      </trkpt>
      <trkpt lat="47.39163" lon="-0.94261">
        <ele>63.050705</ele>
        <time>2023-05-08T11:24:57.652Z</time>
      </trkpt>
      <trkpt lat="47.39171" lon="-0.94252">
        <ele>63.084519</ele>
        <time>2023-05-08T11:25:00.661Z</time>
      </trkpt>
      <trkpt lat="47.39179" lon="-0.94244">
        <ele>63.113721</ele>
        <time>2023-05-08T11:25:03.653Z</time>
      </trkpt>
      <trkpt lat="47.39188" lon="-0.94234">
        <ele>63.150885</ele>
        <time>2023-05-08T11:25:07.653Z</time>
      </trkpt>
      <trkpt lat="47.39195" lon="-0.94225">
        <ele>63.179872</ele>
        <time>2023-05-08T11:25:10.657Z</time>
      </trkpt>
      <trkpt lat="47.39202" lon="-0.94217">
        <ele>63.20866</ele>
        <time>2023-05-08T11:25:13.648Z</time>
      </trkpt>
      <trkpt lat="47.39209" lon="-0.94209">
        <ele>63.238383</ele>
        <time>2023-05-08T11:25:16.655Z</time>
      </trkpt>
      <trkpt lat="47.39217" lon="-0.94199">
        <ele>63.270796</ele>
        <time>2023-05-08T11:25:19.665Z</time>
      </trkpt>
      <trkpt lat="47.39225" lon="-0.94191">
        <ele>63.301511</ele>
        <time>2023-05-08T11:25:22.658Z</time>
      </trkpt>
      <trkpt lat="47.39233" lon="-0.9418">
        <ele>63.336232</ele>
        <time>2023-05-08T11:25:26.659Z</time>
      </trkpt>
      <trkpt lat="47.39242" lon="-0.94171">
        <ele>63.371188</ele>
        <time>2023-05-08T11:25:30.643Z</time>
      </trkpt>
      <trkpt lat="47.3925" lon="-0.94162">
        <ele>63.387813</ele>
        <time>2023-05-08T11:25:33.642Z</time>
      </trkpt>
      <trkpt lat="47.39258" lon="-0.94152">
        <ele>63.394709</ele>
        <time>2023-05-08T11:25:36.648Z</time>
      </trkpt>
      <trkpt lat="47.39267" lon="-0.94143">
        <ele>63.40208</ele>
        <time>2023-05-08T11:25:39.659Z</time>
      </trkpt>
      <trkpt lat="47.39275" lon="-0.94135">
        <ele>63.408782</ele>
        <time>2023-05-08T11:25:42.656Z</time>
      </trkpt>
      <trkpt lat="47.39286" lon="-0.94131">
        <ele>63.41589</ele>
        <time>2023-05-08T11:25:45.648Z</time>
      </trkpt>
      <trkpt lat="47.39296" lon="-0.94133">
        <ele>63.423196</ele>
        <time>2023-05-08T11:25:48.648Z</time>
      </trkpt>
      <trkpt lat="47.39307" lon="-0.94138">
        <ele>63.430738</ele>
        <time>2023-05-08T11:25:51.656Z</time>
      </trkpt>
      <trkpt lat="47.39318" lon="-0.94146">
        <ele>63.438821</ele>
        <time>2023-05-08T11:25:54.656Z</time>
      </trkpt>
      <trkpt lat="47.39328" lon="-0.94153">
        <ele>63.446272</ele>
        <time>2023-05-08T11:25:57.659Z</time>
      </trkpt>
      <trkpt lat="47.39337" lon="-0.94161">
        <ele>63.45319</ele>
        <time>2023-05-08T11:26:00.655Z</time>
      </trkpt>
      <trkpt lat="47.39345" lon="-0.9417">
        <ele>63.459925</ele>
        <time>2023-05-08T11:26:03.652Z</time>
      </trkpt>
      <trkpt lat="47.39355" lon="-0.94179">
        <ele>63.467543</ele>
        <time>2023-05-08T11:26:06.668Z</time>
      </trkpt>
      <trkpt lat="47.39366" lon="-0.94189">
        <ele>63.475879</ele>
        <time>2023-05-08T11:26:09.662Z</time>
      </trkpt>
      <trkpt lat="47.39376" lon="-0.942">
        <ele>63.484485</ele>
        <time>2023-05-08T11:26:12.659Z</time>
      </trkpt>
      <trkpt lat="47.39386" lon="-0.94211">
        <ele>63.492792</ele>
        <time>2023-05-08T11:26:15.654Z</time>
      </trkpt>
      <trkpt lat="47.39394" lon="-0.94222">
        <ele>63.500058</ele>
        <time>2023-05-08T11:26:18.649Z</time>
      </trkpt>
      <trkpt lat="47.39403" lon="-0.9423">
        <ele>63.471786</ele>
        <time>2023-05-08T11:26:21.677Z</time>
      </trkpt>
      <trkpt lat="47.39412" lon="-0.94238">
        <ele>63.401029</ele>
        <time>2023-05-08T11:26:24.660Z</time>
      </trkpt>
      <trkpt lat="47.39423" lon="-0.94247">
        <ele>63.320613</ele>
        <time>2023-05-08T11:26:27.659Z</time>
      </trkpt>
      <trkpt lat="47.39435" lon="-0.94254">
        <ele>63.235354</ele>
        <time>2023-05-08T11:26:30.658Z</time>
      </trkpt>
      <trkpt lat="47.39447" lon="-0.94255">
        <ele>63.154021</ele>
        <time>2023-05-08T11:26:33.653Z</time>
      </trkpt>
      <trkpt lat="47.39458" lon="-0.94254">
        <ele>63.080463</ele>
        <time>2023-05-08T11:26:36.654Z</time>
      </trkpt>
      <trkpt lat="47.3947" lon="-0.94252">
        <ele>63.004141</ele>
        <time>2023-05-08T11:26:39.658Z</time>
      </trkpt>
      <trkpt lat="47.39482" lon="-0.9425">
        <ele>62.922702</ele>
        <time>2023-05-08T11:26:42.661Z</time>
      </trkpt>
      <trkpt lat="47.39491" lon="-0.94249">
        <ele>62.86314</ele>
        <time>2023-05-08T11:26:44.661Z</time>
      </trkpt>
      <trkpt lat="47.39504" lon="-0.94247">
        <ele>62.778802</ele>
        <time>2023-05-08T11:26:47.658Z</time>
      </trkpt>
      <trkpt lat="47.39515" lon="-0.94245">
        <ele>62.700954</ele>
        <time>2023-05-08T11:26:50.659Z</time>
      </trkpt>
      <trkpt lat="47.39527" lon="-0.94243">
        <ele>62.623977</ele>
        <time>2023-05-08T11:26:53.649Z</time>
      </trkpt>
      <trkpt lat="47.3954" lon="-0.9424">
        <ele>62.537847</ele>
        <time>2023-05-08T11:26:56.657Z</time>
      </trkpt>
      <trkpt lat="47.3955" lon="-0.94237">
        <ele>62.472573</ele>
        <time>2023-05-08T11:26:58.647Z</time>
      </trkpt>
      <trkpt lat="47.39561" lon="-0.94232">
        <ele>62.392241</ele>
        <time>2023-05-08T11:27:01.654Z</time>
      </trkpt>
      <trkpt lat="47.3957" lon="-0.94227">
        <ele>62.331898</ele>
        <time>2023-05-08T11:27:03.652Z</time>
      </trkpt>
      <trkpt lat="47.39579" lon="-0.94216">
        <ele>62.246325</ele>
        <time>2023-05-08T11:27:06.650Z</time>
      </trkpt>
      <trkpt lat="47.39587" lon="-0.94205">
        <ele>62.161973</ele>
        <time>2023-05-08T11:27:09.654Z</time>
      </trkpt>
      <trkpt lat="47.39593" lon="-0.94191">
        <ele>62.080095</ele>
        <time>2023-05-08T11:27:12.655Z</time>
      </trkpt>
      <trkpt lat="47.39598" lon="-0.94177">
        <ele>62.004472</ele>
        <time>2023-05-08T11:27:15.650Z</time>
      </trkpt>
      <trkpt lat="47.39601" lon="-0.94163">
        <ele>61.926246</ele>
        <time>2023-05-08T11:27:18.645Z</time>
      </trkpt>
      <trkpt lat="47.39608" lon="-0.94151">
        <ele>61.852599</ele>
        <time>2023-05-08T11:27:21.649Z</time>
      </trkpt>
      <trkpt lat="47.39619" lon="-0.94152">
        <ele>61.772415</ele>
        <time>2023-05-08T11:27:24.655Z</time>
      </trkpt>
      <trkpt lat="47.39629" lon="-0.94157">
        <ele>61.691511</ele>
        <time>2023-05-08T11:27:27.648Z</time>
      </trkpt>
      <trkpt lat="47.39638" lon="-0.94159">
        <ele>61.624448</ele>
        <time>2023-05-08T11:27:30.662Z</time>
      </trkpt>
      <trkpt lat="47.3965" lon="-0.94159">
        <ele>61.532518</ele>
        <time>2023-05-08T11:27:34.653Z</time>
      </trkpt>
      <trkpt lat="47.3966" lon="-0.94158">
        <ele>61.458961</ele>
        <time>2023-05-08T11:27:37.658Z</time>
      </trkpt>
      <trkpt lat="47.39669" lon="-0.94155">
        <ele>61.390341</ele>
        <time>2023-05-08T11:27:40.652Z</time>
      </trkpt>
      <trkpt lat="47.39677" lon="-0.94145">
        <ele>61.313095</ele>
        <time>2023-05-08T11:27:44.666Z</time>
      </trkpt>
      <trkpt lat="47.39681" lon="-0.94132">
        <ele>61.244099</ele>
        <time>2023-05-08T11:27:48.659Z</time>
      </trkpt>
      <trkpt lat="47.39684" lon="-0.94117">
        <ele>61.163769</ele>
        <time>2023-05-08T11:27:52.659Z</time>
      </trkpt>
      <trkpt lat="47.39687" lon="-0.94104">
        <ele>61.09244</ele>
        <time>2023-05-08T11:27:55.661Z</time>
      </trkpt>
      <trkpt lat="47.39689" lon="-0.94089">
        <ele>61.017545</ele>
        <time>2023-05-08T11:27:58.654Z</time>
      </trkpt>
      <trkpt lat="47.39692" lon="-0.94074">
        <ele>60.955381</ele>
        <time>2023-05-08T11:28:01.657Z</time>
      </trkpt>
      <trkpt lat="47.39695" lon="-0.94059">
        <ele>60.901873</ele>
        <time>2023-05-08T11:28:04.665Z</time>
      </trkpt>
      <trkpt lat="47.39699" lon="-0.94043">
        <ele>60.846211</ele>
        <time>2023-05-08T11:28:07.658Z</time>
      </trkpt>
      <trkpt lat="47.39702" lon="-0.94026">
        <ele>60.788355</ele>
        <time>2023-05-08T11:28:10.657Z</time>
      </trkpt>
      <trkpt lat="47.39705" lon="-0.9401">
        <ele>60.733249</ele>
        <time>2023-05-08T11:28:13.657Z</time>
      </trkpt>
      <trkpt lat="47.39708" lon="-0.93993">
        <ele>60.675704</ele>
        <time>2023-05-08T11:28:16.651Z</time>
      </trkpt>
      <trkpt lat="47.39712" lon="-0.93977">
        <ele>60.617186</ele>
        <time>2023-05-08T11:28:19.648Z</time>
      </trkpt>
      <trkpt lat="47.39715" lon="-0.9396">
        <ele>60.557916</ele>
        <time>2023-05-08T11:28:22.655Z</time>
      </trkpt>
      <trkpt lat="47.39718" lon="-0.93943">
        <ele>60.499669</ele>
        <time>2023-05-08T11:28:25.659Z</time>
      </trkpt>
      <trkpt lat="47.39722" lon="-0.93927">
        <ele>60.444471</ele>
        <time>2023-05-08T11:28:28.660Z</time>
      </trkpt>
      <trkpt lat="47.39725" lon="-0.93912">
        <ele>60.39478</ele>
        <time>2023-05-08T11:28:31.662Z</time>
      </trkpt>
      <trkpt lat="47.39729" lon="-0.93898">
        <ele>60.343148</ele>
        <time>2023-05-08T11:28:34.652Z</time>
      </trkpt>
      <trkpt lat="47.39734" lon="-0.93882">
        <ele>60.285027</ele>
        <time>2023-05-08T11:28:37.658Z</time>
      </trkpt>
      <trkpt lat="47.39738" lon="-0.93865">
        <ele>60.225492</ele>
        <time>2023-05-08T11:28:40.657Z</time>
      </trkpt>
      <trkpt lat="47.39743" lon="-0.93848">
        <ele>60.162464</ele>
        <time>2023-05-08T11:28:43.658Z</time>
      </trkpt>
      <trkpt lat="47.39749" lon="-0.93832">
        <ele>60.102956</ele>
        <time>2023-05-08T11:28:46.656Z</time>
      </trkpt>
      <trkpt lat="47.39754" lon="-0.93817">
        <ele>60.347494</ele>
        <time>2023-05-08T11:28:49.647Z</time>
      </trkpt>
      <trkpt lat="47.39759" lon="-0.93804">
        <ele>60.576299</ele>
        <time>2023-05-08T11:28:52.653Z</time>
      </trkpt>
      <trkpt lat="47.39762" lon="-0.93791">
        <ele>60.7857</ele>
        <time>2023-05-08T11:28:55.658Z</time>
      </trkpt>
      <trkpt lat="47.39767" lon="-0.93776">
        <ele>61.039652</ele>
        <time>2023-05-08T11:28:59.654Z</time>
      </trkpt>
      <trkpt lat="47.39772" lon="-0.93761">
        <ele>61.290251</ele>
        <time>2023-05-08T11:29:03.658Z</time>
      </trkpt>
      <trkpt lat="47.39775" lon="-0.93748">
        <ele>61.505942</ele>
        <time>2023-05-08T11:29:06.651Z</time>
      </trkpt>
      <trkpt lat="47.39779" lon="-0.93733">
        <ele>61.741955</ele>
        <time>2023-05-08T11:29:09.652Z</time>
      </trkpt>
      <trkpt lat="47.39783" lon="-0.93719">
        <ele>61.972356</ele>
        <time>2023-05-08T11:29:12.656Z</time>
      </trkpt>
      <trkpt lat="47.39787" lon="-0.93706">
        <ele>62.191614</ele>
        <time>2023-05-08T11:29:15.658Z</time>
      </trkpt>
      <trkpt lat="47.39791" lon="-0.93693">
        <ele>62.417298</ele>
        <time>2023-05-08T11:29:18.657Z</time>
      </trkpt>
      <trkpt lat="47.39796" lon="-0.93677">
        <ele>62.669633</ele>
        <time>2023-05-08T11:29:22.659Z</time>
      </trkpt>
      <trkpt lat="47.39799" lon="-0.93663">
        <ele>62.897112</ele>
        <time>2023-05-08T11:29:26.654Z</time>
      </trkpt>
      <trkpt lat="47.39802" lon="-0.93648">
        <ele>63.129355</ele>
        <time>2023-05-08T11:29:30.651Z</time>
      </trkpt>
      <trkpt lat="47.39806" lon="-0.93633">
        <ele>63.38274</ele>
        <time>2023-05-08T11:29:34.658Z</time>
      </trkpt>
      <trkpt lat="47.39811" lon="-0.93617">
        <ele>63.634592</ele>
        <time>2023-05-08T11:29:38.647Z</time>
      </trkpt>
      <trkpt lat="47.39815" lon="-0.93601">
        <ele>63.894174</ele>
        <time>2023-05-08T11:29:42.660Z</time>
      </trkpt>
      <trkpt lat="47.39818" lon="-0.93585">
        <ele>64.186431</ele>
        <time>2023-05-08T11:29:46.658Z</time>
      </trkpt>
      <trkpt lat="47.39823" lon="-0.93571">
        <ele>64.734851</ele>
        <time>2023-05-08T11:29:50.658Z</time>
      </trkpt>
      <trkpt lat="47.39826" lon="-0.93556">
        <ele>65.282069</ele>
        <time>2023-05-08T11:29:54.648Z</time>
      </trkpt>
      <trkpt lat="47.3983" lon="-0.93542">
        <ele>65.85368</ele>
        <time>2023-05-08T11:29:58.667Z</time>
      </trkpt>
      <trkpt lat="47.39835" lon="-0.93527">
        <ele>66.429561</ele>
        <time>2023-05-08T11:30:02.658Z</time>
      </trkpt>
      <trkpt lat="47.3984" lon="-0.93511">
        <ele>67.032255</ele>
        <time>2023-05-08T11:30:06.661Z</time>
      </trkpt>
      <trkpt lat="47.39845" lon="-0.93497">
        <ele>67.605592</ele>
        <time>2023-05-08T11:30:10.655Z</time>
      </trkpt>
      <trkpt lat="47.39851" lon="-0.93482">
        <ele>68.22329</ele>
        <time>2023-05-08T11:30:14.653Z</time>
      </trkpt>
      <trkpt lat="47.39856" lon="-0.9347">
        <ele>68.737742</ele>
        <time>2023-05-08T11:30:18.648Z</time>
      </trkpt>
      <trkpt lat="47.39862" lon="-0.93457">
        <ele>69.284603</ele>
        <time>2023-05-08T11:30:22.652Z</time>
      </trkpt>
      <trkpt lat="47.39868" lon="-0.93443">
        <ele>69.872109</ele>
        <time>2023-05-08T11:30:26.663Z</time>
      </trkpt>
      <trkpt lat="47.39875" lon="-0.93431">
        <ele>70.416407</ele>
        <time>2023-05-08T11:30:30.656Z</time>
      </trkpt>
      <trkpt lat="47.39882" lon="-0.93419">
        <ele>70.987946</ele>
        <time>2023-05-08T11:30:35.659Z</time>
      </trkpt>
      <trkpt lat="47.39889" lon="-0.93407">
        <ele>71.53156</ele>
        <time>2023-05-08T11:30:40.654Z</time>
      </trkpt>
      <trkpt lat="47.39895" lon="-0.93395">
        <ele>72.069121</ele>
        <time>2023-05-08T11:30:45.661Z</time>
      </trkpt>
      <trkpt lat="47.39901" lon="-0.93383">
        <ele>72.598335</ele>
        <time>2023-05-08T11:30:50.655Z</time>
      </trkpt>
      <trkpt lat="47.39907" lon="-0.93371">
        <ele>73.137138</ele>
        <time>2023-05-08T11:30:55.659Z</time>
      </trkpt>
      <trkpt lat="47.39914" lon="-0.93359">
        <ele>73.541019</ele>
        <time>2023-05-08T11:31:00.653Z</time>
      </trkpt>
      <trkpt lat="47.39921" lon="-0.93348">
        <ele>73.669004</ele>
        <time>2023-05-08T11:31:05.652Z</time>
      </trkpt>
      <trkpt lat="47.39928" lon="-0.93335">
        <ele>73.802279</ele>
        <time>2023-05-08T11:31:10.657Z</time>
      </trkpt>
      <trkpt lat="47.39934" lon="-0.93324">
        <ele>73.927906</ele>
        <time>2023-05-08T11:31:15.663Z</time>
      </trkpt>
      <trkpt lat="47.3994" lon="-0.93314">
        <ele>74.040171</ele>
        <time>2023-05-08T11:31:19.649Z</time>
      </trkpt>
      <trkpt lat="47.39946" lon="-0.93303">
        <ele>74.153351</ele>
        <time>2023-05-08T11:31:23.666Z</time>
      </trkpt>
      <trkpt lat="47.39953" lon="-0.93291">
        <ele>74.291059</ele>
        <time>2023-05-08T11:31:28.661Z</time>
      </trkpt>
      <trkpt lat="47.3996" lon="-0.9328">
        <ele>74.411888</ele>
        <time>2023-05-08T11:31:32.657Z</time>
      </trkpt>
      <trkpt lat="47.39967" lon="-0.93268">
        <ele>74.54499</ele>
        <time>2023-05-08T11:31:36.655Z</time>
      </trkpt>
      <trkpt lat="47.39973" lon="-0.93256">
        <ele>74.667116</ele>
        <time>2023-05-08T11:31:40.661Z</time>
      </trkpt>
      <trkpt lat="47.3998" lon="-0.93245">
        <ele>74.791318</ele>
        <time>2023-05-08T11:31:44.649Z</time>
      </trkpt>
      <trkpt lat="47.39987" lon="-0.93231">
        <ele>74.942745</ele>
        <time>2023-05-08T11:31:48.656Z</time>
      </trkpt>
      <trkpt lat="47.39994" lon="-0.93221">
        <ele>75.059508</ele>
        <time>2023-05-08T11:31:51.659Z</time>
      </trkpt>
      <trkpt lat="47.40002" lon="-0.93208">
        <ele>75.202102</ele>
        <time>2023-05-08T11:31:55.659Z</time>
      </trkpt>
      <trkpt lat="47.40008" lon="-0.93196">
        <ele>75.334603</ele>
        <time>2023-05-08T11:31:59.654Z</time>
      </trkpt>
      <trkpt lat="47.40014" lon="-0.93185">
        <ele>75.449358</ele>
        <time>2023-05-08T11:32:02.651Z</time>
      </trkpt>
      <trkpt lat="47.40021" lon="-0.93174">
        <ele>75.58141</ele>
        <time>2023-05-08T11:32:05.661Z</time>
      </trkpt>
      <trkpt lat="47.40029" lon="-0.93162">
        <ele>75.71623</ele>
        <time>2023-05-08T11:32:08.655Z</time>
      </trkpt>
      <trkpt lat="47.40036" lon="-0.9315">
        <ele>75.214759</ele>
        <time>2023-05-08T11:32:11.658Z</time>
      </trkpt>
      <trkpt lat="47.40044" lon="-0.93138">
        <ele>74.688962</ele>
        <time>2023-05-08T11:32:14.651Z</time>
      </trkpt>
      <trkpt lat="47.40051" lon="-0.93124">
        <ele>74.141917</ele>
        <time>2023-05-08T11:32:17.657Z</time>
      </trkpt>
      <trkpt lat="47.40059" lon="-0.93111">
        <ele>73.594872</ele>
        <time>2023-05-08T11:32:20.651Z</time>
      </trkpt>
      <trkpt lat="47.40064" lon="-0.93098">
        <ele>73.109516</ele>
        <time>2023-05-08T11:32:23.655Z</time>
      </trkpt>
      <trkpt lat="47.4006" lon="-0.93083">
        <ele>72.611226</ele>
        <time>2023-05-08T11:32:27.648Z</time>
      </trkpt>
      <trkpt lat="47.4005" lon="-0.93077">
        <ele>72.115965</ele>
        <time>2023-05-08T11:32:31.659Z</time>
      </trkpt>
      <trkpt lat="47.40041" lon="-0.93069">
        <ele>71.610953</ele>
        <time>2023-05-08T11:32:36.652Z</time>
      </trkpt>
      <trkpt lat="47.4003" lon="-0.93063">
        <ele>71.080273</ele>
        <time>2023-05-08T11:32:41.659Z</time>
      </trkpt>
      <trkpt lat="47.40023" lon="-0.93055">
        <ele>70.658734</ele>
        <time>2023-05-08T11:32:48.659Z</time>
      </trkpt>
      <trkpt lat="47.40013" lon="-0.93046">
        <ele>70.100925</ele>
        <time>2023-05-08T11:35:48.654Z</time>
      </trkpt>
      <trkpt lat="47.40002" lon="-0.93038">
        <ele>69.551201</ele>
        <time>2023-05-08T11:35:51.659Z</time>
      </trkpt>
      <trkpt lat="47.39992" lon="-0.9303">
        <ele>68.984683</ele>
        <time>2023-05-08T11:35:54.656Z</time>
      </trkpt>
      <trkpt lat="47.3998" lon="-0.93023">
        <ele>68.402121</ele>
        <time>2023-05-08T11:35:57.649Z</time>
      </trkpt>
      <trkpt lat="47.39969" lon="-0.93016">
        <ele>67.824314</ele>
        <time>2023-05-08T11:36:00.651Z</time>
      </trkpt>
      <trkpt lat="47.3996" lon="-0.93006">
        <ele>67.301542</ele>
        <time>2023-05-08T11:36:03.653Z</time>
      </trkpt>
      <trkpt lat="47.39956" lon="-0.92991">
        <ele>67.02941</ele>
        <time>2023-05-08T11:36:07.648Z</time>
      </trkpt>
      <trkpt lat="47.39958" lon="-0.92978">
        <ele>66.783838</ele>
        <time>2023-05-08T11:36:10.651Z</time>
      </trkpt>
      <trkpt lat="47.39962" lon="-0.92961">
        <ele>66.478861</ele>
        <time>2023-05-08T11:36:13.662Z</time>
      </trkpt>
      <trkpt lat="47.39966" lon="-0.92944">
        <ele>66.155503</ele>
        <time>2023-05-08T11:36:16.662Z</time>
      </trkpt>
      <trkpt lat="47.39972" lon="-0.92926">
        <ele>65.821776</ele>
        <time>2023-05-08T11:36:19.652Z</time>
      </trkpt>
      <trkpt lat="47.39975" lon="-0.92914">
        <ele>65.581453</ele>
        <time>2023-05-08T11:36:21.663Z</time>
      </trkpt>
      <trkpt lat="47.39977" lon="-0.92901">
        <ele>65.341928</ele>
        <time>2023-05-08T11:36:23.664Z</time>
      </trkpt>
      <trkpt lat="47.39979" lon="-0.92887">
        <ele>65.096272</ele>
        <time>2023-05-08T11:36:25.649Z</time>
      </trkpt>
      <trkpt lat="47.3998" lon="-0.92873">
        <ele>64.845779</ele>
        <time>2023-05-08T11:36:27.659Z</time>
      </trkpt>
      <trkpt lat="47.39981" lon="-0.92859">
        <ele>64.606149</ele>
        <time>2023-05-08T11:36:29.657Z</time>
      </trkpt>
      <trkpt lat="47.39983" lon="-0.92846">
        <ele>64.369575</ele>
        <time>2023-05-08T11:36:31.659Z</time>
      </trkpt>
      <trkpt lat="47.39985" lon="-0.92832">
        <ele>64.126436</ele>
        <time>2023-05-08T11:36:33.652Z</time>
      </trkpt>
      <trkpt lat="47.39989" lon="-0.92814">
        <ele>63.788139</ele>
        <time>2023-05-08T11:36:36.652Z</time>
      </trkpt>
      <trkpt lat="47.39992" lon="-0.92797">
        <ele>63.473932</ele>
        <time>2023-05-08T11:36:39.657Z</time>
      </trkpt>
      <trkpt lat="47.39996" lon="-0.92781">
        <ele>63.177733</ele>
        <time>2023-05-08T11:36:42.656Z</time>
      </trkpt>
      <trkpt lat="47.39999" lon="-0.92768">
        <ele>62.935905</ele>
        <time>2023-05-08T11:36:45.651Z</time>
      </trkpt>
      <trkpt lat="47.40002" lon="-0.92754">
        <ele>62.691326</ele>
        <time>2023-05-08T11:36:48.652Z</time>
      </trkpt>
      <trkpt lat="47.40006" lon="-0.92741">
        <ele>62.810455</ele>
        <time>2023-05-08T11:36:51.650Z</time>
      </trkpt>
      <trkpt lat="47.40009" lon="-0.92728">
        <ele>63.022384</ele>
        <time>2023-05-08T11:36:54.645Z</time>
      </trkpt>
      <trkpt lat="47.40012" lon="-0.92713">
        <ele>63.252925</ele>
        <time>2023-05-08T11:36:57.656Z</time>
      </trkpt>
      <trkpt lat="47.40016" lon="-0.92698">
        <ele>63.480601</ele>
        <time>2023-05-08T11:37:00.649Z</time>
      </trkpt>
      <trkpt lat="47.40021" lon="-0.92684">
        <ele>63.717152</ele>
        <time>2023-05-08T11:37:03.656Z</time>
      </trkpt>
      <trkpt lat="47.40025" lon="-0.9267">
        <ele>63.933687</ele>
        <time>2023-05-08T11:37:06.654Z</time>
      </trkpt>
      <trkpt lat="47.4003" lon="-0.92658">
        <ele>64.135444</ele>
        <time>2023-05-08T11:37:09.656Z</time>
      </trkpt>
      <trkpt lat="47.40034" lon="-0.92645">
        <ele>64.348242</ele>
        <time>2023-05-08T11:37:12.655Z</time>
      </trkpt>
      <trkpt lat="47.4004" lon="-0.92632">
        <ele>64.568169</ele>
        <time>2023-05-08T11:37:15.646Z</time>
      </trkpt>
      <trkpt lat="47.40045" lon="-0.92621">
        <ele>64.774634</ele>
        <time>2023-05-08T11:37:18.659Z</time>
      </trkpt>
      <trkpt lat="47.40051" lon="-0.92609">
        <ele>64.989531</ele>
        <time>2023-05-08T11:37:21.655Z</time>
      </trkpt>
      <trkpt lat="47.40056" lon="-0.92597">
        <ele>65.191286</ele>
        <time>2023-05-08T11:37:24.648Z</time>
      </trkpt>
      <trkpt lat="47.40061" lon="-0.92586">
        <ele>65.385632</ele>
        <time>2023-05-08T11:37:27.647Z</time>
      </trkpt>
      <trkpt lat="47.40069" lon="-0.92573">
        <ele>65.639301</ele>
        <time>2023-05-08T11:37:31.660Z</time>
      </trkpt>
      <trkpt lat="47.40075" lon="-0.92557">
        <ele>65.902665</ele>
        <time>2023-05-08T11:37:35.650Z</time>
      </trkpt>
      <trkpt lat="47.40078" lon="-0.92544">
        <ele>66.100076</ele>
        <time>2023-05-08T11:37:38.650Z</time>
      </trkpt>
      <trkpt lat="47.40082" lon="-0.92529">
        <ele>66.347462</ele>
        <time>2023-05-08T11:37:41.656Z</time>
      </trkpt>
      <trkpt lat="47.40087" lon="-0.92513">
        <ele>66.520352</ele>
        <time>2023-05-08T11:37:44.652Z</time>
      </trkpt>
      <trkpt lat="47.40092" lon="-0.92499">
        <ele>66.529364</ele>
        <time>2023-05-08T11:37:47.659Z</time>
      </trkpt>
      <trkpt lat="47.40098" lon="-0.92485">
        <ele>66.5393</ele>
        <time>2023-05-08T11:37:51.662Z</time>
      </trkpt>
      <trkpt lat="47.40104" lon="-0.92471">
        <ele>66.549368</ele>
        <time>2023-05-08T11:37:55.646Z</time>
      </trkpt>
      <trkpt lat="47.40108" lon="-0.92459">
        <ele>66.55783</ele>
        <time>2023-05-08T11:37:58.657Z</time>
      </trkpt>
      <trkpt lat="47.40113" lon="-0.92446">
        <ele>66.566675</ele>
        <time>2023-05-08T11:38:01.655Z</time>
      </trkpt>
      <trkpt lat="47.40118" lon="-0.92433">
        <ele>66.575764</ele>
        <time>2023-05-08T11:38:04.652Z</time>
      </trkpt>
      <trkpt lat="47.40124" lon="-0.92418">
        <ele>66.585804</ele>
        <time>2023-05-08T11:38:07.659Z</time>
      </trkpt>
      <trkpt lat="47.40129" lon="-0.92404">
        <ele>66.595347</ele>
        <time>2023-05-08T11:38:10.649Z</time>
      </trkpt>
      <trkpt lat="47.40135" lon="-0.92388">
        <ele>66.606689</ele>
        <time>2023-05-08T11:38:13.651Z</time>
      </trkpt>
      <trkpt lat="47.40143" lon="-0.92372">
        <ele>66.618551</ele>
        <time>2023-05-08T11:38:16.658Z</time>
      </trkpt>
      <trkpt lat="47.40149" lon="-0.92358">
        <ele>66.628768</ele>
        <time>2023-05-08T11:38:19.658Z</time>
      </trkpt>
      <trkpt lat="47.40155" lon="-0.92344">
        <ele>66.638282</ele>
        <time>2023-05-08T11:38:22.653Z</time>
      </trkpt>
      <trkpt lat="47.40161" lon="-0.92331">
        <ele>66.647648</ele>
        <time>2023-05-08T11:38:25.646Z</time>
      </trkpt>
      <trkpt lat="47.40167" lon="-0.9232">
        <ele>66.656547</ele>
        <time>2023-05-08T11:38:28.655Z</time>
      </trkpt>
      <trkpt lat="47.40173" lon="-0.92309">
        <ele>66.665249</ele>
        <time>2023-05-08T11:38:32.642Z</time>
      </trkpt>
      <trkpt lat="47.40181" lon="-0.92295">
        <ele>66.67583</ele>
        <time>2023-05-08T11:38:36.657Z</time>
      </trkpt>
      <trkpt lat="47.40188" lon="-0.92282">
        <ele>66.570189</ele>
        <time>2023-05-08T11:38:39.652Z</time>
      </trkpt>
      <trkpt lat="47.40197" lon="-0.92271">
        <ele>66.451737</ele>
        <time>2023-05-08T11:38:42.652Z</time>
      </trkpt>
      <trkpt lat="47.40204" lon="-0.92259">
        <ele>66.342594</ele>
        <time>2023-05-08T11:38:45.647Z</time>
      </trkpt>
      <trkpt lat="47.40209" lon="-0.92245">
        <ele>66.236452</ele>
        <time>2023-05-08T11:38:48.646Z</time>
      </trkpt>
      <trkpt lat="47.40213" lon="-0.9223">
        <ele>66.121325</ele>
        <time>2023-05-08T11:38:51.657Z</time>
      </trkpt>
      <trkpt lat="47.40218" lon="-0.92215">
        <ele>66.0086</ele>
        <time>2023-05-08T11:38:54.657Z</time>
      </trkpt>
      <trkpt lat="47.40224" lon="-0.92205">
        <ele>65.914872</ele>
        <time>2023-05-08T11:38:57.650Z</time>
      </trkpt>
      <trkpt lat="47.4023" lon="-0.92194">
        <ele>65.819792</ele>
        <time>2023-05-08T11:39:00.651Z</time>
      </trkpt>
      <trkpt lat="47.40235" lon="-0.92182">
        <ele>65.721654</ele>
        <time>2023-05-08T11:39:03.649Z</time>
      </trkpt>
      <trkpt lat="47.40241" lon="-0.92171">
        <ele>65.624645</ele>
        <time>2023-05-08T11:39:06.658Z</time>
      </trkpt>
      <trkpt lat="47.40244" lon="-0.92158">
        <ele>65.527345</ele>
        <time>2023-05-08T11:39:10.657Z</time>
      </trkpt>
      <trkpt lat="47.40237" lon="-0.92149">
        <ele>65.42951</ele>
        <time>2023-05-08T11:40:39.643Z</time>
      </trkpt>
      <trkpt lat="47.40231" lon="-0.92137">
        <ele>65.325669</ele>
        <time>2023-05-08T11:40:46.638Z</time>
      </trkpt>
      <trkpt lat="47.40242" lon="-0.92162">
        <ele>65.117929</ele>
        <time>2023-05-08T11:42:20.642Z</time>
      </trkpt>
      <trkpt lat="47.40234" lon="-0.92154">
        <ele>65.02536</ele>
        <time>2023-05-08T11:42:41.637Z</time>
      </trkpt>
      <trkpt lat="47.40226" lon="-0.92149">
        <ele>64.934335</ele>
        <time>2023-05-08T11:43:47.631Z</time>
      </trkpt>
      <trkpt lat="47.40242" lon="-0.92161">
        <ele>64.922729</ele>
        <time>2023-05-08T12:19:00.644Z</time>
      </trkpt>
      <trkpt lat="47.40252" lon="-0.92151">
        <ele>65.03252</ele>
        <time>2023-05-08T12:24:03.642Z</time>
      </trkpt>
      <trkpt lat="47.4026" lon="-0.9214">
        <ele>65.126921</ele>
        <time>2023-05-08T12:24:06.642Z</time>
      </trkpt>
      <trkpt lat="47.40267" lon="-0.92126">
        <ele>65.226394</ele>
        <time>2023-05-08T12:24:10.649Z</time>
      </trkpt>
      <trkpt lat="47.40274" lon="-0.92117">
        <ele>65.313773</ele>
        <time>2023-05-08T12:24:13.650Z</time>
      </trkpt>
      <trkpt lat="47.40281" lon="-0.92106">
        <ele>65.401186</ele>
        <time>2023-05-08T12:24:16.648Z</time>
      </trkpt>
      <trkpt lat="47.40288" lon="-0.92095">
        <ele>65.495731</ele>
        <time>2023-05-08T12:24:20.648Z</time>
      </trkpt>
      <trkpt lat="47.40296" lon="-0.92085">
        <ele>65.5858</ele>
        <time>2023-05-08T12:24:26.657Z</time>
      </trkpt>
      <trkpt lat="47.40302" lon="-0.92076">
        <ele>65.664845</ele>
        <time>2023-05-08T12:24:49.649Z</time>
      </trkpt>
      <trkpt lat="47.40295" lon="-0.92064">
        <ele>65.762104</ele>
        <time>2023-05-08T12:25:22.642Z</time>
      </trkpt>
      <trkpt lat="47.40287" lon="-0.92057">
        <ele>65.842497</ele>
        <time>2023-05-08T12:25:26.646Z</time>
      </trkpt>
      <trkpt lat="47.40277" lon="-0.9205">
        <ele>65.939742</ele>
        <time>2023-05-08T12:25:30.645Z</time>
      </trkpt>
      <trkpt lat="47.40267" lon="-0.92042">
        <ele>66.03717</ele>
        <time>2023-05-08T12:25:34.641Z</time>
      </trkpt>
      <trkpt lat="47.40257" lon="-0.92034">
        <ele>66.140287</ele>
        <time>2023-05-08T12:25:38.648Z</time>
      </trkpt>
      <trkpt lat="47.40247" lon="-0.92026">
        <ele>66.243533</ele>
        <time>2023-05-08T12:25:42.656Z</time>
      </trkpt>
      <trkpt lat="47.40239" lon="-0.92019">
        <ele>66.324215</ele>
        <time>2023-05-08T12:25:45.649Z</time>
      </trkpt>
      <trkpt lat="47.40228" lon="-0.9201">
        <ele>66.429586</ele>
        <time>2023-05-08T12:25:49.642Z</time>
      </trkpt>
      <trkpt lat="47.4022" lon="-0.92003">
        <ele>66.481426</ele>
        <time>2023-05-08T12:25:52.648Z</time>
      </trkpt>
      <trkpt lat="47.40213" lon="-0.91996">
        <ele>66.532354</ele>
        <time>2023-05-08T12:25:55.646Z</time>
      </trkpt>
      <trkpt lat="47.40205" lon="-0.91989">
        <ele>66.584152</ele>
        <time>2023-05-08T12:25:58.647Z</time>
      </trkpt>
      <trkpt lat="47.40197" lon="-0.91982">
        <ele>66.636623</ele>
        <time>2023-05-08T12:26:01.642Z</time>
      </trkpt>
      <trkpt lat="47.40188" lon="-0.91974">
        <ele>66.690815</ele>
        <time>2023-05-08T12:26:04.640Z</time>
      </trkpt>
      <trkpt lat="47.4018" lon="-0.91967">
        <ele>66.743286</ele>
        <time>2023-05-08T12:26:07.650Z</time>
      </trkpt>
      <trkpt lat="47.40172" lon="-0.9196">
        <ele>66.793931</ele>
        <time>2023-05-08T12:26:10.653Z</time>
      </trkpt>
      <trkpt lat="47.40162" lon="-0.91952">
        <ele>66.859044</ele>
        <time>2023-05-08T12:26:14.639Z</time>
      </trkpt>
      <trkpt lat="47.40154" lon="-0.91946">
        <ele>66.909812</ele>
        <time>2023-05-08T12:26:17.649Z</time>
      </trkpt>
      <trkpt lat="47.40146" lon="-0.91939">
        <ele>66.9618</ele>
        <time>2023-05-08T12:26:20.661Z</time>
      </trkpt>
      <trkpt lat="47.40138" lon="-0.91932">
        <ele>67.013878</ele>
        <time>2023-05-08T12:26:23.650Z</time>
      </trkpt>
      <trkpt lat="47.4013" lon="-0.91925">
        <ele>67.066054</ele>
        <time>2023-05-08T12:26:26.650Z</time>
      </trkpt>
      <trkpt lat="47.40121" lon="-0.91917">
        <ele>67.122648</ele>
        <time>2023-05-08T12:26:29.646Z</time>
      </trkpt>
      <trkpt lat="47.40113" lon="-0.91909">
        <ele>67.179004</ele>
        <time>2023-05-08T12:26:32.659Z</time>
      </trkpt>
      <trkpt lat="47.40104" lon="-0.91901">
        <ele>67.237713</ele>
        <time>2023-05-08T12:26:35.649Z</time>
      </trkpt>
      <trkpt lat="47.40095" lon="-0.91893">
        <ele>67.297058</ele>
        <time>2023-05-08T12:26:38.656Z</time>
      </trkpt>
      <trkpt lat="47.40086" lon="-0.91886">
        <ele>67.35234</ele>
        <time>2023-05-08T12:26:41.650Z</time>
      </trkpt>
      <trkpt lat="47.40078" lon="-0.91878">
        <ele>67.407205</ele>
        <time>2023-05-08T12:26:45.650Z</time>
      </trkpt>
      <trkpt lat="47.40066" lon="-0.9187">
        <ele>67.256564</ele>
        <time>2023-05-08T12:27:35.654Z</time>
      </trkpt>
      <trkpt lat="47.40058" lon="-0.91863">
        <ele>67.070669</ele>
        <time>2023-05-08T12:27:38.651Z</time>
      </trkpt>
      <trkpt lat="47.40049" lon="-0.91855">
        <ele>66.862754</ele>
        <time>2023-05-08T12:27:41.658Z</time>
      </trkpt>
      <trkpt lat="47.40041" lon="-0.91847">
        <ele>66.65162</ele>
        <time>2023-05-08T12:27:44.642Z</time>
      </trkpt>
      <trkpt lat="47.40032" lon="-0.9184">
        <ele>66.439822</ele>
        <time>2023-05-08T12:27:47.648Z</time>
      </trkpt>
      <trkpt lat="47.40024" lon="-0.91833">
        <ele>66.245055</ele>
        <time>2023-05-08T12:27:50.648Z</time>
      </trkpt>
      <trkpt lat="47.40015" lon="-0.91826">
        <ele>66.046041</ele>
        <time>2023-05-08T12:27:53.650Z</time>
      </trkpt>
      <trkpt lat="47.40006" lon="-0.91819">
        <ele>65.840611</ele>
        <time>2023-05-08T12:27:56.647Z</time>
      </trkpt>
      <trkpt lat="47.39997" lon="-0.91811">
        <ele>65.624546</ele>
        <time>2023-05-08T12:27:59.639Z</time>
      </trkpt>
      <trkpt lat="47.39988" lon="-0.91803">
        <ele>65.407697</ele>
        <time>2023-05-08T12:28:02.651Z</time>
      </trkpt>
      <trkpt lat="47.39979" lon="-0.91795">
        <ele>65.1824</ele>
        <time>2023-05-08T12:28:05.657Z</time>
      </trkpt>
      <trkpt lat="47.3997" lon="-0.91787">
        <ele>64.971296</ele>
        <time>2023-05-08T12:28:08.649Z</time>
      </trkpt>
      <trkpt lat="47.39961" lon="-0.91779">
        <ele>64.754166</ele>
        <time>2023-05-08T12:28:11.648Z</time>
      </trkpt>
      <trkpt lat="47.39952" lon="-0.91772">
        <ele>64.537671</ele>
        <time>2023-05-08T12:28:14.642Z</time>
      </trkpt>
      <trkpt lat="47.39942" lon="-0.91763">
        <ele>64.313462</ele>
        <time>2023-05-08T12:28:17.649Z</time>
      </trkpt>
      <trkpt lat="47.39932" lon="-0.91755">
        <ele>64.071233</ele>
        <time>2023-05-08T12:28:20.636Z</time>
      </trkpt>
      <trkpt lat="47.39921" lon="-0.91747">
        <ele>63.822739</ele>
        <time>2023-05-08T12:28:23.640Z</time>
      </trkpt>
      <trkpt lat="47.39911" lon="-0.91738">
        <ele>63.734814</ele>
        <time>2023-05-08T12:28:26.645Z</time>
      </trkpt>
      <trkpt lat="47.39901" lon="-0.91729">
        <ele>63.746751</ele>
        <time>2023-05-08T12:28:29.644Z</time>
      </trkpt>
      <trkpt lat="47.39889" lon="-0.9172">
        <ele>63.759508</ele>
        <time>2023-05-08T12:28:32.637Z</time>
      </trkpt>
      <trkpt lat="47.3988" lon="-0.91712">
        <ele>63.770115</ele>
        <time>2023-05-08T12:28:35.654Z</time>
      </trkpt>
      <trkpt lat="47.39871" lon="-0.91703">
        <ele>63.780707</ele>
        <time>2023-05-08T12:28:38.647Z</time>
      </trkpt>
      <trkpt lat="47.39863" lon="-0.91696">
        <ele>63.790393</ele>
        <time>2023-05-08T12:28:41.656Z</time>
      </trkpt>
      <trkpt lat="47.39856" lon="-0.91687">
        <ele>63.799426</ele>
        <time>2023-05-08T12:28:44.642Z</time>
      </trkpt>
      <trkpt lat="47.39856" lon="-0.9167">
        <ele>63.810432</ele>
        <time>2023-05-08T12:28:48.654Z</time>
      </trkpt>
      <trkpt lat="47.39861" lon="-0.91659">
        <ele>63.819705</ele>
        <time>2023-05-08T12:28:51.651Z</time>
      </trkpt>
      <trkpt lat="47.39867" lon="-0.91645">
        <ele>63.831252</ele>
        <time>2023-05-08T12:28:55.651Z</time>
      </trkpt>
      <trkpt lat="47.39873" lon="-0.91631">
        <ele>63.84184</ele>
        <time>2023-05-08T12:28:59.630Z</time>
      </trkpt>
      <trkpt lat="47.39879" lon="-0.91617">
        <ele>63.853119</ele>
        <time>2023-05-08T12:29:03.650Z</time>
      </trkpt>
      <trkpt lat="47.39884" lon="-0.91604">
        <ele>63.862898</ele>
        <time>2023-05-08T12:29:06.654Z</time>
      </trkpt>
      <trkpt lat="47.39889" lon="-0.91591">
        <ele>63.873175</ele>
        <time>2023-05-08T12:29:09.644Z</time>
      </trkpt>
      <trkpt lat="47.39895" lon="-0.91578">
        <ele>63.883785</ele>
        <time>2023-05-08T12:29:12.657Z</time>
      </trkpt>
      <trkpt lat="47.39901" lon="-0.91564">
        <ele>63.894671</ele>
        <time>2023-05-08T12:29:15.650Z</time>
      </trkpt>
      <trkpt lat="47.39907" lon="-0.9155">
        <ele>63.90577</ele>
        <time>2023-05-08T12:29:18.652Z</time>
      </trkpt>
      <trkpt lat="47.39912" lon="-0.91537">
        <ele>63.935183</ele>
        <time>2023-05-08T12:29:21.651Z</time>
      </trkpt>
      <trkpt lat="47.39918" lon="-0.91524">
        <ele>63.963205</ele>
        <time>2023-05-08T12:29:24.639Z</time>
      </trkpt>
      <trkpt lat="47.39924" lon="-0.9151">
        <ele>63.993235</ele>
        <time>2023-05-08T12:29:27.650Z</time>
      </trkpt>
      <trkpt lat="47.3993" lon="-0.91497">
        <ele>64.023104</ele>
        <time>2023-05-08T12:29:30.650Z</time>
      </trkpt>
      <trkpt lat="47.39936" lon="-0.91484">
        <ele>64.052511</ele>
        <time>2023-05-08T12:29:33.652Z</time>
      </trkpt>
      <trkpt lat="47.39942" lon="-0.9147">
        <ele>64.083202</ele>
        <time>2023-05-08T12:29:36.647Z</time>
      </trkpt>
      <trkpt lat="47.39947" lon="-0.91455">
        <ele>64.114119</ele>
        <time>2023-05-08T12:29:39.646Z</time>
      </trkpt>
      <trkpt lat="47.39952" lon="-0.91439">
        <ele>64.146901</ele>
        <time>2023-05-08T12:29:42.641Z</time>
      </trkpt>
      <trkpt lat="47.39957" lon="-0.91423">
        <ele>64.17935</ele>
        <time>2023-05-08T12:29:45.636Z</time>
      </trkpt>
      <trkpt lat="47.39962" lon="-0.91408">
        <ele>64.211217</ele>
        <time>2023-05-08T12:29:48.650Z</time>
      </trkpt>
      <trkpt lat="47.39967" lon="-0.91392">
        <ele>64.242683</ele>
        <time>2023-05-08T12:29:51.672Z</time>
      </trkpt>
      <trkpt lat="47.39971" lon="-0.91376">
        <ele>64.27476</ele>
        <time>2023-05-08T12:29:54.642Z</time>
      </trkpt>
      <trkpt lat="47.39975" lon="-0.91359">
        <ele>64.308485</ele>
        <time>2023-05-08T12:29:57.655Z</time>
      </trkpt>
      <trkpt lat="47.39979" lon="-0.91342">
        <ele>64.342297</ele>
        <time>2023-05-08T12:30:00.650Z</time>
      </trkpt>
      <trkpt lat="47.39982" lon="-0.91325">
        <ele>64.374996</ele>
        <time>2023-05-08T12:30:03.649Z</time>
      </trkpt>
      <trkpt lat="47.39985" lon="-0.91308">
        <ele>64.377372</ele>
        <time>2023-05-08T12:30:06.654Z</time>
      </trkpt>
      <trkpt lat="47.39988" lon="-0.9129">
        <ele>64.276352</ele>
        <time>2023-05-08T12:30:09.641Z</time>
      </trkpt>
      <trkpt lat="47.39991" lon="-0.91273">
        <ele>64.176415</ele>
        <time>2023-05-08T12:30:12.661Z</time>
      </trkpt>
      <trkpt lat="47.39993" lon="-0.91256">
        <ele>64.076496</ele>
        <time>2023-05-08T12:30:15.653Z</time>
      </trkpt>
      <trkpt lat="47.39995" lon="-0.91239">
        <ele>63.979971</ele>
        <time>2023-05-08T12:30:18.650Z</time>
      </trkpt>
      <trkpt lat="47.39997" lon="-0.91221">
        <ele>63.881951</ele>
        <time>2023-05-08T12:30:21.645Z</time>
      </trkpt>
      <trkpt lat="47.4" lon="-0.91205">
        <ele>63.787069</ele>
        <time>2023-05-08T12:30:24.650Z</time>
      </trkpt>
      <trkpt lat="47.4" lon="-0.91189">
        <ele>63.698209</ele>
        <time>2023-05-08T12:30:27.648Z</time>
      </trkpt>
      <trkpt lat="47.40001" lon="-0.91173">
        <ele>63.612072</ele>
        <time>2023-05-08T12:30:30.647Z</time>
      </trkpt>
      <trkpt lat="47.40001" lon="-0.91159">
        <ele>63.533956</ele>
        <time>2023-05-08T12:30:33.657Z</time>
      </trkpt>
      <trkpt lat="47.40003" lon="-0.91144">
        <ele>63.445152</ele>
        <time>2023-05-08T12:30:36.650Z</time>
      </trkpt>
      <trkpt lat="47.40004" lon="-0.91128">
        <ele>63.358873</ele>
        <time>2023-05-08T12:30:39.644Z</time>
      </trkpt>
      <trkpt lat="47.40005" lon="-0.91113">
        <ele>63.27289</ele>
        <time>2023-05-08T12:30:42.649Z</time>
      </trkpt>
      <trkpt lat="47.40005" lon="-0.91098">
        <ele>63.190151</ele>
        <time>2023-05-08T12:30:45.648Z</time>
      </trkpt>
      <trkpt lat="47.40006" lon="-0.91084">
        <ele>63.11353</ele>
        <time>2023-05-08T12:30:48.650Z</time>
      </trkpt>
      <trkpt lat="47.40007" lon="-0.91071">
        <ele>63.037465</ele>
        <time>2023-05-08T12:30:51.650Z</time>
      </trkpt>
      <trkpt lat="47.40008" lon="-0.91055">
        <ele>62.952122</ele>
        <time>2023-05-08T12:30:54.648Z</time>
      </trkpt>
      <trkpt lat="47.40009" lon="-0.9104">
        <ele>62.919628</ele>
        <time>2023-05-08T12:30:57.648Z</time>
      </trkpt>
      <trkpt lat="47.4001" lon="-0.91023">
        <ele>62.922797</ele>
        <time>2023-05-08T12:31:00.642Z</time>
      </trkpt>
      <trkpt lat="47.4001" lon="-0.91007">
        <ele>62.925989</ele>
        <time>2023-05-08T12:31:03.648Z</time>
      </trkpt>
      <trkpt lat="47.40011" lon="-0.9099">
        <ele>62.929324</ele>
        <time>2023-05-08T12:31:06.650Z</time>
      </trkpt>
      <trkpt lat="47.40011" lon="-0.90972">
        <ele>62.932672</ele>
        <time>2023-05-08T12:31:09.650Z</time>
      </trkpt>
      <trkpt lat="47.40012" lon="-0.90955">
        <ele>62.936002</ele>
        <time>2023-05-08T12:31:12.647Z</time>
      </trkpt>
      <trkpt lat="47.40013" lon="-0.90938">
        <ele>62.939361</ele>
        <time>2023-05-08T12:31:15.643Z</time>
      </trkpt>
      <trkpt lat="47.40013" lon="-0.9092">
        <ele>62.94277</ele>
        <time>2023-05-08T12:31:18.645Z</time>
      </trkpt>
      <trkpt lat="47.40014" lon="-0.90903">
        <ele>62.946178</ele>
        <time>2023-05-08T12:31:21.649Z</time>
      </trkpt>
      <trkpt lat="47.40014" lon="-0.90885">
        <ele>62.949622</ele>
        <time>2023-05-08T12:31:24.648Z</time>
      </trkpt>
      <trkpt lat="47.40015" lon="-0.90869">
        <ele>62.952742</ele>
        <time>2023-05-08T12:31:27.649Z</time>
      </trkpt>
      <trkpt lat="47.40014" lon="-0.90851">
        <ele>62.956227</ele>
        <time>2023-05-08T12:31:30.642Z</time>
      </trkpt>
      <trkpt lat="47.40014" lon="-0.90833">
        <ele>62.959613</ele>
        <time>2023-05-08T12:31:33.645Z</time>
      </trkpt>
      <trkpt lat="47.40015" lon="-0.90817">
        <ele>62.96281</ele>
        <time>2023-05-08T12:31:36.649Z</time>
      </trkpt>
      <trkpt lat="47.40016" lon="-0.90801">
        <ele>62.965855</ele>
        <time>2023-05-08T12:31:39.642Z</time>
      </trkpt>
      <trkpt lat="47.40017" lon="-0.90785">
        <ele>62.968906</ele>
        <time>2023-05-08T12:31:42.646Z</time>
      </trkpt>
      <trkpt lat="47.40017" lon="-0.90771">
        <ele>62.985831</ele>
        <time>2023-05-08T12:31:45.639Z</time>
      </trkpt>
      <trkpt lat="47.40018" lon="-0.90757">
        <ele>63.004324</ele>
        <time>2023-05-08T12:31:48.652Z</time>
      </trkpt>
      <trkpt lat="47.4002" lon="-0.90742">
        <ele>63.023649</ele>
        <time>2023-05-08T12:31:51.649Z</time>
      </trkpt>
      <trkpt lat="47.4002" lon="-0.90727">
        <ele>63.042878</ele>
        <time>2023-05-08T12:31:54.660Z</time>
      </trkpt>
      <trkpt lat="47.4002" lon="-0.90711">
        <ele>63.063374</ele>
        <time>2023-05-08T12:31:57.647Z</time>
      </trkpt>
      <trkpt lat="47.4002" lon="-0.90694">
        <ele>63.084518</ele>
        <time>2023-05-08T12:32:00.640Z</time>
      </trkpt>
      <trkpt lat="47.4002" lon="-0.90678">
        <ele>63.105142</ele>
        <time>2023-05-08T12:32:03.648Z</time>
      </trkpt>
      <trkpt lat="47.40021" lon="-0.90662">
        <ele>63.12531</ele>
        <time>2023-05-08T12:32:06.631Z</time>
      </trkpt>
      <trkpt lat="47.40022" lon="-0.90648">
        <ele>63.144068</ele>
        <time>2023-05-08T12:32:09.630Z</time>
      </trkpt>
      <trkpt lat="47.40023" lon="-0.90633">
        <ele>63.163539</ele>
        <time>2023-05-08T12:32:12.641Z</time>
      </trkpt>
      <trkpt lat="47.40023" lon="-0.90617">
        <ele>63.184291</ele>
        <time>2023-05-08T12:32:15.638Z</time>
      </trkpt>
      <trkpt lat="47.40022" lon="-0.906">
        <ele>63.205353</ele>
        <time>2023-05-08T12:32:18.636Z</time>
      </trkpt>
      <trkpt lat="47.40021" lon="-0.90583">
        <ele>63.227339</ele>
        <time>2023-05-08T12:32:21.645Z</time>
      </trkpt>
      <trkpt lat="47.4002" lon="-0.90566">
        <ele>63.249309</ele>
        <time>2023-05-08T12:32:24.646Z</time>
      </trkpt>
      <trkpt lat="47.40019" lon="-0.90548">
        <ele>63.27201</ele>
        <time>2023-05-08T12:32:27.644Z</time>
      </trkpt>
      <trkpt lat="47.40018" lon="-0.9053">
        <ele>63.295198</ele>
        <time>2023-05-08T12:32:30.629Z</time>
      </trkpt>
      <trkpt lat="47.40016" lon="-0.90512">
        <ele>63.355386</ele>
        <time>2023-05-08T12:32:33.646Z</time>
      </trkpt>
      <trkpt lat="47.40014" lon="-0.90494">
        <ele>63.474586</ele>
        <time>2023-05-08T12:32:36.656Z</time>
      </trkpt>
      <trkpt lat="47.40011" lon="-0.90476">
        <ele>63.594867</ele>
        <time>2023-05-08T12:32:39.647Z</time>
      </trkpt>
      <trkpt lat="47.40008" lon="-0.90458">
        <ele>63.714124</ele>
        <time>2023-05-08T12:32:42.648Z</time>
      </trkpt>
      <trkpt lat="47.40005" lon="-0.9044">
        <ele>63.837505</ele>
        <time>2023-05-08T12:32:45.640Z</time>
      </trkpt>
      <trkpt lat="47.40001" lon="-0.90421">
        <ele>63.964052</ele>
        <time>2023-05-08T12:32:48.650Z</time>
      </trkpt>
      <trkpt lat="47.39996" lon="-0.90403">
        <ele>64.089082</ele>
        <time>2023-05-08T12:32:51.644Z</time>
      </trkpt>
      <trkpt lat="47.39992" lon="-0.90385">
        <ele>64.21136</ele>
        <time>2023-05-08T12:32:54.645Z</time>
      </trkpt>
      <trkpt lat="47.39987" lon="-0.90367">
        <ele>64.334648</ele>
        <time>2023-05-08T12:32:57.646Z</time>
      </trkpt>
      <trkpt lat="47.39983" lon="-0.9035">
        <ele>64.453243</ele>
        <time>2023-05-08T12:33:00.645Z</time>
      </trkpt>
      <trkpt lat="47.39978" lon="-0.90334">
        <ele>64.562531</ele>
        <time>2023-05-08T12:33:03.644Z</time>
      </trkpt>
      <trkpt lat="47.39973" lon="-0.90319">
        <ele>64.673739</ele>
        <time>2023-05-08T12:33:06.648Z</time>
      </trkpt>
      <trkpt lat="47.39905" lon="-0.90136">
        <ele>64.836622</ele>
        <time>2023-05-08T12:33:48.635Z</time>
      </trkpt>
      <trkpt lat="47.39906" lon="-0.90121">
        <ele>64.818134</ele>
        <time>2023-05-08T12:34:49.635Z</time>
      </trkpt>
      <trkpt lat="47.399" lon="-0.90107">
        <ele>64.79808</ele>
        <time>2023-05-08T12:34:54.648Z</time>
      </trkpt>
      <trkpt lat="47.39895" lon="-0.90095">
        <ele>64.780692</ele>
        <time>2023-05-08T12:34:58.658Z</time>
      </trkpt>
      <trkpt lat="47.39891" lon="-0.9008">
        <ele>64.761201</ele>
        <time>2023-05-08T12:35:02.654Z</time>
      </trkpt>
      <trkpt lat="47.39886" lon="-0.90067">
        <ele>64.743147</ele>
        <time>2023-05-08T12:35:06.647Z</time>
      </trkpt>
      <trkpt lat="47.3988" lon="-0.90052">
        <ele>64.722403</ele>
        <time>2023-05-08T12:35:10.658Z</time>
      </trkpt>
      <trkpt lat="47.39875" lon="-0.90037">
        <ele>64.701801</ele>
        <time>2023-05-08T12:35:14.647Z</time>
      </trkpt>
      <trkpt lat="47.39871" lon="-0.90025">
        <ele>64.598652</ele>
        <time>2023-05-08T12:35:17.647Z</time>
      </trkpt>
      <trkpt lat="47.39866" lon="-0.90013">
        <ele>64.484412</ele>
        <time>2023-05-08T12:35:20.638Z</time>
      </trkpt>
      <trkpt lat="47.39862" lon="-0.9">
        <ele>64.369075</ele>
        <time>2023-05-08T12:35:23.648Z</time>
      </trkpt>
      <trkpt lat="47.39857" lon="-0.89984">
        <ele>64.231131</ele>
        <time>2023-05-08T12:35:27.648Z</time>
      </trkpt>
      <trkpt lat="47.39852" lon="-0.89969">
        <ele>64.098776</ele>
        <time>2023-05-08T12:35:31.646Z</time>
      </trkpt>
      <trkpt lat="47.39848" lon="-0.89954">
        <ele>63.966772</ele>
        <time>2023-05-08T12:35:35.644Z</time>
      </trkpt>
      <trkpt lat="47.39844" lon="-0.89941">
        <ele>63.850169</ele>
        <time>2023-05-08T12:35:39.651Z</time>
      </trkpt>
      <trkpt lat="47.39839" lon="-0.89929">
        <ele>63.742154</ele>
        <time>2023-05-08T12:35:42.655Z</time>
      </trkpt>
      <trkpt lat="47.39835" lon="-0.89917">
        <ele>63.633803</ele>
        <time>2023-05-08T12:35:45.642Z</time>
      </trkpt>
      <trkpt lat="47.39831" lon="-0.89904">
        <ele>63.516885</ele>
        <time>2023-05-08T12:35:48.649Z</time>
      </trkpt>
      <trkpt lat="47.39827" lon="-0.8989">
        <ele>63.398615</ele>
        <time>2023-05-08T12:35:51.644Z</time>
      </trkpt>
      <trkpt lat="47.39822" lon="-0.89877">
        <ele>63.272844</ele>
        <time>2023-05-08T12:35:54.650Z</time>
      </trkpt>
      <trkpt lat="47.39817" lon="-0.89862">
        <ele>63.141997</ele>
        <time>2023-05-08T12:35:57.649Z</time>
      </trkpt>
      <trkpt lat="47.39812" lon="-0.89847">
        <ele>63.007909</ele>
        <time>2023-05-08T12:36:00.635Z</time>
      </trkpt>
      <trkpt lat="47.39807" lon="-0.89833">
        <ele>62.879029</ele>
        <time>2023-05-08T12:36:03.639Z</time>
      </trkpt>
      <trkpt lat="47.39802" lon="-0.89818">
        <ele>62.745447</ele>
        <time>2023-05-08T12:36:06.654Z</time>
      </trkpt>
      <trkpt lat="47.39797" lon="-0.89803">
        <ele>62.614051</ele>
        <time>2023-05-08T12:36:09.646Z</time>
      </trkpt>
      <trkpt lat="47.39791" lon="-0.89788">
        <ele>62.582902</ele>
        <time>2023-05-08T12:36:12.647Z</time>
      </trkpt>
      <trkpt lat="47.39787" lon="-0.89774">
        <ele>62.595495</ele>
        <time>2023-05-08T12:36:15.646Z</time>
      </trkpt>
      <trkpt lat="47.39782" lon="-0.8976">
        <ele>62.608855</ele>
        <time>2023-05-08T12:36:18.646Z</time>
      </trkpt>
      <trkpt lat="47.39776" lon="-0.89745">
        <ele>62.622573</ele>
        <time>2023-05-08T12:36:21.650Z</time>
      </trkpt>
      <trkpt lat="47.39772" lon="-0.89731">
        <ele>62.635542</ele>
        <time>2023-05-08T12:36:24.641Z</time>
      </trkpt>
      <trkpt lat="47.39767" lon="-0.89718">
        <ele>62.647955</ele>
        <time>2023-05-08T12:36:27.629Z</time>
      </trkpt>
      <trkpt lat="47.39763" lon="-0.89705">
        <ele>62.659631</ele>
        <time>2023-05-08T12:36:30.640Z</time>
      </trkpt>
      <trkpt lat="47.39759" lon="-0.89693">
        <ele>62.670544</ele>
        <time>2023-05-08T12:36:33.651Z</time>
      </trkpt>
      <trkpt lat="47.39753" lon="-0.89677">
        <ele>62.684858</ele>
        <time>2023-05-08T12:36:37.650Z</time>
      </trkpt>
      <trkpt lat="47.39749" lon="-0.89664">
        <ele>62.697027</ele>
        <time>2023-05-08T12:36:40.641Z</time>
      </trkpt>
      <trkpt lat="47.39744" lon="-0.89649">
        <ele>62.710271</ele>
        <time>2023-05-08T12:36:43.646Z</time>
      </trkpt>
      <trkpt lat="47.39739" lon="-0.89634">
        <ele>62.723948</ele>
        <time>2023-05-08T12:36:46.636Z</time>
      </trkpt>
      <trkpt lat="47.39734" lon="-0.8962">
        <ele>62.736883</ele>
        <time>2023-05-08T12:36:49.647Z</time>
      </trkpt>
      <trkpt lat="47.39729" lon="-0.89605">
        <ele>62.750833</ele>
        <time>2023-05-08T12:36:52.657Z</time>
      </trkpt>
      <trkpt lat="47.39724" lon="-0.8959">
        <ele>62.764075</ele>
        <time>2023-05-08T12:36:55.640Z</time>
      </trkpt>
      <trkpt lat="47.39719" lon="-0.89575">
        <ele>62.777753</ele>
        <time>2023-05-08T12:36:58.655Z</time>
      </trkpt>
      <trkpt lat="47.39713" lon="-0.89561">
        <ele>62.783053</ele>
        <time>2023-05-08T12:37:01.655Z</time>
      </trkpt>
      <trkpt lat="47.39709" lon="-0.89545">
        <ele>62.679733</ele>
        <time>2023-05-08T12:37:04.645Z</time>
      </trkpt>
      <trkpt lat="47.39704" lon="-0.89532">
        <ele>62.591094</ele>
        <time>2023-05-08T12:37:07.648Z</time>
      </trkpt>
      <trkpt lat="47.397" lon="-0.89519">
        <ele>62.49659</ele>
        <time>2023-05-08T12:37:10.640Z</time>
      </trkpt>
      <trkpt lat="47.39695" lon="-0.89505">
        <ele>62.399493</ele>
        <time>2023-05-08T12:37:13.648Z</time>
      </trkpt>
      <trkpt lat="47.3969" lon="-0.8949">
        <ele>62.301709</ele>
        <time>2023-05-08T12:37:16.648Z</time>
      </trkpt>
      <trkpt lat="47.39685" lon="-0.89476">
        <ele>62.205569</ele>
        <time>2023-05-08T12:37:19.647Z</time>
      </trkpt>
      <trkpt lat="47.39681" lon="-0.89461">
        <ele>62.104519</ele>
        <time>2023-05-08T12:37:23.651Z</time>
      </trkpt>
      <trkpt lat="47.39676" lon="-0.8945">
        <ele>62.020812</ele>
        <time>2023-05-08T12:37:27.646Z</time>
      </trkpt>
      <trkpt lat="47.39672" lon="-0.89435">
        <ele>61.924191</ele>
        <time>2023-05-08T12:37:32.632Z</time>
      </trkpt>
      <trkpt lat="47.39667" lon="-0.89421">
        <ele>61.827583</ele>
        <time>2023-05-08T12:37:36.650Z</time>
      </trkpt>
      <trkpt lat="47.39663" lon="-0.89409">
        <ele>61.745311</ele>
        <time>2023-05-08T12:37:39.641Z</time>
      </trkpt>
      <trkpt lat="47.39659" lon="-0.89396">
        <ele>61.658386</ele>
        <time>2023-05-08T12:37:42.658Z</time>
      </trkpt>
      <trkpt lat="47.39655" lon="-0.89383">
        <ele>61.573683</ele>
        <time>2023-05-08T12:37:45.641Z</time>
      </trkpt>
      <trkpt lat="47.39652" lon="-0.8937">
        <ele>61.488203</ele>
        <time>2023-05-08T12:37:48.645Z</time>
      </trkpt>
      <trkpt lat="47.39649" lon="-0.89356">
        <ele>61.394989</ele>
        <time>2023-05-08T12:37:51.647Z</time>
      </trkpt>
      <trkpt lat="47.39645" lon="-0.89342">
        <ele>61.305854</ele>
        <time>2023-05-08T12:37:54.646Z</time>
      </trkpt>
      <trkpt lat="47.39643" lon="-0.89328">
        <ele>61.217263</ele>
        <time>2023-05-08T12:37:57.650Z</time>
      </trkpt>
      <trkpt lat="47.3964" lon="-0.89313">
        <ele>61.095091</ele>
        <time>2023-05-08T12:38:00.642Z</time>
      </trkpt>
      <trkpt lat="47.39638" lon="-0.89297">
        <ele>60.945176</ele>
        <time>2023-05-08T12:38:03.646Z</time>
      </trkpt>
      <trkpt lat="47.39636" lon="-0.89282">
        <ele>60.801909</ele>
        <time>2023-05-08T12:38:06.650Z</time>
      </trkpt>
      <trkpt lat="47.39633" lon="-0.89266">
        <ele>60.655343</ele>
        <time>2023-05-08T12:38:09.650Z</time>
      </trkpt>
      <trkpt lat="47.39632" lon="-0.8925">
        <ele>60.506327</ele>
        <time>2023-05-08T12:38:12.644Z</time>
      </trkpt>
      <trkpt lat="47.3963" lon="-0.89234">
        <ele>60.354858</ele>
        <time>2023-05-08T12:38:15.661Z</time>
      </trkpt>
      <trkpt lat="47.39628" lon="-0.89218">
        <ele>60.198826</ele>
        <time>2023-05-08T12:38:18.642Z</time>
      </trkpt>
      <trkpt lat="47.39627" lon="-0.89201">
        <ele>60.044102</ele>
        <time>2023-05-08T12:38:21.634Z</time>
      </trkpt>
      <trkpt lat="47.39626" lon="-0.89184">
        <ele>59.883402</ele>
        <time>2023-05-08T12:38:24.629Z</time>
      </trkpt>
      <trkpt lat="47.39624" lon="-0.89167">
        <ele>59.722556</ele>
        <time>2023-05-08T12:38:27.651Z</time>
      </trkpt>
      <trkpt lat="47.39623" lon="-0.8915">
        <ele>59.561066</ele>
        <time>2023-05-08T12:38:30.631Z</time>
      </trkpt>
      <trkpt lat="47.39622" lon="-0.89132">
        <ele>59.394818</ele>
        <time>2023-05-08T12:38:33.664Z</time>
      </trkpt>
      <trkpt lat="47.39621" lon="-0.89114">
        <ele>59.22882</ele>
        <time>2023-05-08T12:38:36.631Z</time>
      </trkpt>
      <trkpt lat="47.3962" lon="-0.89096">
        <ele>59.063857</ele>
        <time>2023-05-08T12:38:39.647Z</time>
      </trkpt>
      <trkpt lat="47.39619" lon="-0.89079">
        <ele>58.901772</ele>
        <time>2023-05-08T12:38:42.648Z</time>
      </trkpt>
      <trkpt lat="47.39619" lon="-0.89062">
        <ele>58.747489</ele>
        <time>2023-05-08T12:38:45.635Z</time>
      </trkpt>
      <trkpt lat="47.39618" lon="-0.89047">
        <ele>58.840818</ele>
        <time>2023-05-08T12:38:48.641Z</time>
      </trkpt>
      <trkpt lat="47.39617" lon="-0.89031">
        <ele>59.086927</ele>
        <time>2023-05-08T12:38:51.631Z</time>
      </trkpt>
      <trkpt lat="47.39616" lon="-0.89014">
        <ele>59.341012</ele>
        <time>2023-05-08T12:38:54.644Z</time>
      </trkpt>
      <trkpt lat="47.39615" lon="-0.88998">
        <ele>59.600312</ele>
        <time>2023-05-08T12:38:57.642Z</time>
      </trkpt>
      <trkpt lat="47.39613" lon="-0.88981">
        <ele>59.8592</ele>
        <time>2023-05-08T12:39:00.629Z</time>
      </trkpt>
      <trkpt lat="47.39612" lon="-0.88964">
        <ele>60.120824</ele>
        <time>2023-05-08T12:39:03.642Z</time>
      </trkpt>
      <trkpt lat="47.3961" lon="-0.88948">
        <ele>60.366652</ele>
        <time>2023-05-08T12:39:06.636Z</time>
      </trkpt>
      <trkpt lat="47.39609" lon="-0.88933">
        <ele>60.594509</ele>
        <time>2023-05-08T12:39:09.649Z</time>
      </trkpt>
      <trkpt lat="47.39607" lon="-0.8892">
        <ele>60.803365</ele>
        <time>2023-05-08T12:39:12.636Z</time>
      </trkpt>
      <trkpt lat="47.39606" lon="-0.88903">
        <ele>61.069014</ele>
        <time>2023-05-08T12:39:16.633Z</time>
      </trkpt>
      <trkpt lat="47.39604" lon="-0.88889">
        <ele>61.290357</ele>
        <time>2023-05-08T12:39:19.638Z</time>
      </trkpt>
      <trkpt lat="47.39602" lon="-0.88873">
        <ele>61.531947</ele>
        <time>2023-05-08T12:39:22.633Z</time>
      </trkpt>
      <trkpt lat="47.39599" lon="-0.88857">
        <ele>61.785611</ele>
        <time>2023-05-08T12:39:25.632Z</time>
      </trkpt>
      <trkpt lat="47.39595" lon="-0.88841">
        <ele>62.045166</ele>
        <time>2023-05-08T12:39:28.648Z</time>
      </trkpt>
      <trkpt lat="47.39591" lon="-0.88826">
        <ele>62.305988</ele>
        <time>2023-05-08T12:39:31.628Z</time>
      </trkpt>
      <trkpt lat="47.39587" lon="-0.88811">
        <ele>62.553199</ele>
        <time>2023-05-08T12:39:34.633Z</time>
      </trkpt>
      <trkpt lat="47.39583" lon="-0.88795">
        <ele>62.779586</ele>
        <time>2023-05-08T12:39:37.644Z</time>
      </trkpt>
      <trkpt lat="47.39578" lon="-0.88779">
        <ele>62.827914</ele>
        <time>2023-05-08T12:39:40.640Z</time>
      </trkpt>
      <trkpt lat="47.39572" lon="-0.88764">
        <ele>62.874854</ele>
        <time>2023-05-08T12:39:43.641Z</time>
      </trkpt>
      <trkpt lat="47.39566" lon="-0.8875">
        <ele>62.919683</ele>
        <time>2023-05-08T12:39:46.642Z</time>
      </trkpt>
      <trkpt lat="47.39562" lon="-0.88737">
        <ele>62.958626</ele>
        <time>2023-05-08T12:39:49.649Z</time>
      </trkpt>
      <trkpt lat="47.39557" lon="-0.88724">
        <ele>63.000701</ele>
        <time>2023-05-08T12:39:52.646Z</time>
      </trkpt>
      <trkpt lat="47.39552" lon="-0.8871">
        <ele>63.044722</ele>
        <time>2023-05-08T12:39:55.651Z</time>
      </trkpt>
      <trkpt lat="47.39547" lon="-0.88695">
        <ele>63.089304</ele>
        <time>2023-05-08T12:39:58.668Z</time>
      </trkpt>
      <trkpt lat="47.39542" lon="-0.8868">
        <ele>63.134954</ele>
        <time>2023-05-08T12:40:01.649Z</time>
      </trkpt>
      <trkpt lat="47.39536" lon="-0.88666">
        <ele>63.179338</ele>
        <time>2023-05-08T12:40:04.646Z</time>
      </trkpt>
      <trkpt lat="47.3953" lon="-0.88652">
        <ele>63.226905</ele>
        <time>2023-05-08T12:40:07.650Z</time>
      </trkpt>
      <trkpt lat="47.39523" lon="-0.88637">
        <ele>63.277175</ele>
        <time>2023-05-08T12:40:10.633Z</time>
      </trkpt>
      <trkpt lat="47.39517" lon="-0.88622">
        <ele>63.325581</ele>
        <time>2023-05-08T12:40:13.648Z</time>
      </trkpt>
      <trkpt lat="47.39512" lon="-0.88607">
        <ele>63.371082</ele>
        <time>2023-05-08T12:40:16.646Z</time>
      </trkpt>
      <trkpt lat="47.39506" lon="-0.88592">
        <ele>63.416497</ele>
        <time>2023-05-08T12:40:19.645Z</time>
      </trkpt>
      <trkpt lat="47.39501" lon="-0.88577">
        <ele>63.463768</ele>
        <time>2023-05-08T12:40:22.642Z</time>
      </trkpt>
      <trkpt lat="47.39495" lon="-0.88561">
        <ele>63.473728</ele>
        <time>2023-05-08T12:40:25.644Z</time>
      </trkpt>
      <trkpt lat="47.39489" lon="-0.88544">
        <ele>63.35864</ele>
        <time>2023-05-08T12:40:28.652Z</time>
      </trkpt>
      <trkpt lat="47.39484" lon="-0.88527">
        <ele>63.24197</ele>
        <time>2023-05-08T12:40:31.644Z</time>
      </trkpt>
      <trkpt lat="47.39478" lon="-0.88511">
        <ele>63.12586</ele>
        <time>2023-05-08T12:40:34.642Z</time>
      </trkpt>
      <trkpt lat="47.39473" lon="-0.88495">
        <ele>63.021964</ele>
        <time>2023-05-08T12:40:37.639Z</time>
      </trkpt>
      <trkpt lat="47.39469" lon="-0.88483">
        <ele>62.9354</ele>
        <time>2023-05-08T12:40:40.650Z</time>
      </trkpt>
      <trkpt lat="47.39465" lon="-0.8847">
        <ele>62.851643</ele>
        <time>2023-05-08T12:40:43.635Z</time>
      </trkpt>
      <trkpt lat="47.39461" lon="-0.88456">
        <ele>62.759836</ele>
        <time>2023-05-08T12:40:46.647Z</time>
      </trkpt>
      <trkpt lat="47.39457" lon="-0.88441">
        <ele>62.658592</ele>
        <time>2023-05-08T12:40:49.644Z</time>
      </trkpt>
      <trkpt lat="47.39453" lon="-0.88424">
        <ele>62.550113</ele>
        <time>2023-05-08T12:40:52.646Z</time>
      </trkpt>
      <trkpt lat="47.3945" lon="-0.88408">
        <ele>62.448951</ele>
        <time>2023-05-08T12:40:55.640Z</time>
      </trkpt>
      <trkpt lat="47.39448" lon="-0.88392">
        <ele>62.344773</ele>
        <time>2023-05-08T12:40:58.643Z</time>
      </trkpt>
      <trkpt lat="47.39445" lon="-0.88375">
        <ele>62.23923</ele>
        <time>2023-05-08T12:41:01.646Z</time>
      </trkpt>
      <trkpt lat="47.39443" lon="-0.88357">
        <ele>62.12933</ele>
        <time>2023-05-08T12:41:04.646Z</time>
      </trkpt>
      <trkpt lat="47.3944" lon="-0.8834">
        <ele>62.02218</ele>
        <time>2023-05-08T12:41:07.664Z</time>
      </trkpt>
      <trkpt lat="47.39437" lon="-0.88323">
        <ele>61.913764</ele>
        <time>2023-05-08T12:41:10.637Z</time>
      </trkpt>
      <trkpt lat="47.39435" lon="-0.88305">
        <ele>61.936966</ele>
        <time>2023-05-08T12:41:13.646Z</time>
      </trkpt>
      <trkpt lat="47.39433" lon="-0.88288">
        <ele>62.035279</ele>
        <time>2023-05-08T12:41:16.648Z</time>
      </trkpt>
      <trkpt lat="47.3943" lon="-0.8827">
        <ele>62.136646</ele>
        <time>2023-05-08T12:41:19.644Z</time>
      </trkpt>
      <trkpt lat="47.39429" lon="-0.88253">
        <ele>62.234834</ele>
        <time>2023-05-08T12:41:22.644Z</time>
      </trkpt>
      <trkpt lat="47.39428" lon="-0.88237">
        <ele>62.324332</ele>
        <time>2023-05-08T12:41:25.631Z</time>
      </trkpt>
      <trkpt lat="47.39426" lon="-0.88221">
        <ele>62.413166</ele>
        <time>2023-05-08T12:41:28.652Z</time>
      </trkpt>
      <trkpt lat="47.39424" lon="-0.88204">
        <ele>62.511051</ele>
        <time>2023-05-08T12:41:31.640Z</time>
      </trkpt>
      <trkpt lat="47.39422" lon="-0.88186">
        <ele>62.612754</ele>
        <time>2023-05-08T12:41:34.645Z</time>
      </trkpt>
      <trkpt lat="47.39418" lon="-0.88168">
        <ele>62.718655</ele>
        <time>2023-05-08T12:41:37.644Z</time>
      </trkpt>
      <trkpt lat="47.39415" lon="-0.8815">
        <ele>62.825563</ele>
        <time>2023-05-08T12:41:40.646Z</time>
      </trkpt>
      <trkpt lat="47.39411" lon="-0.88132">
        <ele>62.92541</ele>
        <time>2023-05-08T12:41:43.646Z</time>
      </trkpt>
      <trkpt lat="47.39408" lon="-0.88116">
        <ele>63.022274</ele>
        <time>2023-05-08T12:41:46.638Z</time>
      </trkpt>
      <trkpt lat="47.39403" lon="-0.881">
        <ele>63.118526</ele>
        <time>2023-05-08T12:41:49.649Z</time>
      </trkpt>
      <trkpt lat="47.39399" lon="-0.88083">
        <ele>63.218189</ele>
        <time>2023-05-08T12:41:52.645Z</time>
      </trkpt>
      <trkpt lat="47.39394" lon="-0.88067">
        <ele>63.317655</ele>
        <time>2023-05-08T12:41:55.647Z</time>
      </trkpt>
      <trkpt lat="47.3939" lon="-0.88051">
        <ele>63.391696</ele>
        <time>2023-05-08T12:41:58.646Z</time>
      </trkpt>
      <trkpt lat="47.39385" lon="-0.88034">
        <ele>63.449167</ele>
        <time>2023-05-08T12:42:01.625Z</time>
      </trkpt>
      <trkpt lat="47.39381" lon="-0.88018">
        <ele>63.505654</ele>
        <time>2023-05-08T12:42:04.647Z</time>
      </trkpt>
      <trkpt lat="47.39376" lon="-0.88001">
        <ele>63.565948</ele>
        <time>2023-05-08T12:42:07.647Z</time>
      </trkpt>
      <trkpt lat="47.39371" lon="-0.87984">
        <ele>63.627467</ele>
        <time>2023-05-08T12:42:10.644Z</time>
      </trkpt>
      <trkpt lat="47.39367" lon="-0.87967">
        <ele>63.687414</ele>
        <time>2023-05-08T12:42:13.648Z</time>
      </trkpt>
      <trkpt lat="47.39362" lon="-0.87951">
        <ele>63.743084</ele>
        <time>2023-05-08T12:42:16.640Z</time>
      </trkpt>
      <trkpt lat="47.39358" lon="-0.87936">
        <ele>63.795522</ele>
        <time>2023-05-08T12:42:19.646Z</time>
      </trkpt>
      <trkpt lat="47.39354" lon="-0.87921">
        <ele>63.846488</ele>
        <time>2023-05-08T12:42:22.642Z</time>
      </trkpt>
      <trkpt lat="47.39351" lon="-0.87907">
        <ele>63.895902</ele>
        <time>2023-05-08T12:42:25.645Z</time>
      </trkpt>
      <trkpt lat="47.39347" lon="-0.87892">
        <ele>63.949179</ele>
        <time>2023-05-08T12:42:28.647Z</time>
      </trkpt>
      <trkpt lat="47.39343" lon="-0.87876">
        <ele>64.004042</ele>
        <time>2023-05-08T12:42:31.640Z</time>
      </trkpt>
      <trkpt lat="47.3934" lon="-0.87861">
        <ele>64.05716</ele>
        <time>2023-05-08T12:42:34.640Z</time>
      </trkpt>
      <trkpt lat="47.39335" lon="-0.87845">
        <ele>64.112637</ele>
        <time>2023-05-08T12:42:37.646Z</time>
      </trkpt>
      <trkpt lat="47.3933" lon="-0.87829">
        <ele>64.170295</ele>
        <time>2023-05-08T12:42:40.648Z</time>
      </trkpt>
      <trkpt lat="47.39325" lon="-0.87813">
        <ele>64.22601</ele>
        <time>2023-05-08T12:42:43.643Z</time>
      </trkpt>
      <trkpt lat="47.39321" lon="-0.87798">
        <ele>64.253596</ele>
        <time>2023-05-08T12:42:46.635Z</time>
      </trkpt>
      <trkpt lat="47.39317" lon="-0.87783">
        <ele>64.279929</ele>
        <time>2023-05-08T12:42:49.648Z</time>
      </trkpt>
      <trkpt lat="47.39312" lon="-0.87767">
        <ele>64.30818</ele>
        <time>2023-05-08T12:42:52.652Z</time>
      </trkpt>
      <trkpt lat="47.39308" lon="-0.87751">
        <ele>64.33748</ele>
        <time>2023-05-08T12:42:55.647Z</time>
      </trkpt>
      <trkpt lat="47.39303" lon="-0.87735">
        <ele>64.366715</ele>
        <time>2023-05-08T12:42:58.645Z</time>
      </trkpt>
      <trkpt lat="47.39299" lon="-0.87718">
        <ele>64.39631</ele>
        <time>2023-05-08T12:43:01.637Z</time>
      </trkpt>
      <trkpt lat="47.39296" lon="-0.87703">
        <ele>64.423297</ele>
        <time>2023-05-08T12:43:04.641Z</time>
      </trkpt>
      <trkpt lat="47.39292" lon="-0.87689">
        <ele>64.44871</ele>
        <time>2023-05-08T12:43:07.647Z</time>
      </trkpt>
      <trkpt lat="47.39288" lon="-0.87675">
        <ele>64.472728</ele>
        <time>2023-05-08T12:43:10.641Z</time>
      </trkpt>
      <trkpt lat="47.39285" lon="-0.8766">
        <ele>64.498689</ele>
        <time>2023-05-08T12:43:13.647Z</time>
      </trkpt>
      <trkpt lat="47.3928" lon="-0.87645">
        <ele>64.527306</ele>
        <time>2023-05-08T12:43:16.641Z</time>
      </trkpt>
      <trkpt lat="47.39276" lon="-0.87628">
        <ele>64.556052</ele>
        <time>2023-05-08T12:43:19.649Z</time>
      </trkpt>
      <trkpt lat="47.39272" lon="-0.87612">
        <ele>64.585818</ele>
        <time>2023-05-08T12:43:22.646Z</time>
      </trkpt>
      <trkpt lat="47.39267" lon="-0.87595">
        <ele>64.615488</ele>
        <time>2023-05-08T12:43:25.645Z</time>
      </trkpt>
      <trkpt lat="47.39263" lon="-0.87578">
        <ele>64.645868</ele>
        <time>2023-05-08T12:43:28.644Z</time>
      </trkpt>
      <trkpt lat="47.39259" lon="-0.87562">
        <ele>64.646869</ele>
        <time>2023-05-08T12:43:31.646Z</time>
      </trkpt>
      <trkpt lat="47.39254" lon="-0.87545">
        <ele>64.575945</ele>
        <time>2023-05-08T12:43:34.646Z</time>
      </trkpt>
      <trkpt lat="47.3925" lon="-0.87527">
        <ele>64.504016</ele>
        <time>2023-05-08T12:43:37.645Z</time>
      </trkpt>
      <trkpt lat="47.39246" lon="-0.87511">
        <ele>64.435213</ele>
        <time>2023-05-08T12:43:40.644Z</time>
      </trkpt>
      <trkpt lat="47.39242" lon="-0.87494">
        <ele>64.366053</ele>
        <time>2023-05-08T12:43:43.652Z</time>
      </trkpt>
      <trkpt lat="47.39239" lon="-0.87477">
        <ele>64.296747</ele>
        <time>2023-05-08T12:43:46.645Z</time>
      </trkpt>
      <trkpt lat="47.39236" lon="-0.8746">
        <ele>64.227998</ele>
        <time>2023-05-08T12:43:49.623Z</time>
      </trkpt>
      <trkpt lat="47.39234" lon="-0.87442">
        <ele>64.15792</ele>
        <time>2023-05-08T12:43:52.639Z</time>
      </trkpt>
      <trkpt lat="47.39233" lon="-0.87424">
        <ele>64.086382</ele>
        <time>2023-05-08T12:43:55.635Z</time>
      </trkpt>
      <trkpt lat="47.39232" lon="-0.87406">
        <ele>64.017657</ele>
        <time>2023-05-08T12:43:58.638Z</time>
      </trkpt>
      <trkpt lat="47.39231" lon="-0.87389">
        <ele>63.952037</ele>
        <time>2023-05-08T12:44:01.636Z</time>
      </trkpt>
      <trkpt lat="47.39231" lon="-0.87373">
        <ele>63.890102</ele>
        <time>2023-05-08T12:44:04.641Z</time>
      </trkpt>
      <trkpt lat="47.3923" lon="-0.87358">
        <ele>63.831169</ele>
        <time>2023-05-08T12:44:07.633Z</time>
      </trkpt>
      <trkpt lat="47.3923" lon="-0.87344">
        <ele>63.774709</ele>
        <time>2023-05-08T12:44:10.637Z</time>
      </trkpt>
      <trkpt lat="47.39229" lon="-0.87326">
        <ele>63.706508</ele>
        <time>2023-05-08T12:44:14.642Z</time>
      </trkpt>
      <trkpt lat="47.39229" lon="-0.87312">
        <ele>63.652372</ele>
        <time>2023-05-08T12:44:17.647Z</time>
      </trkpt>
      <trkpt lat="47.39229" lon="-0.87297">
        <ele>63.578598</ele>
        <time>2023-05-08T12:44:20.642Z</time>
      </trkpt>
      <trkpt lat="47.39228" lon="-0.87282">
        <ele>63.493767</ele>
        <time>2023-05-08T12:44:23.645Z</time>
      </trkpt>
      <trkpt lat="47.39227" lon="-0.87266">
        <ele>63.403127</ele>
        <time>2023-05-08T12:44:26.624Z</time>
      </trkpt>
      <trkpt lat="47.39227" lon="-0.87249">
        <ele>63.309927</ele>
        <time>2023-05-08T12:44:29.647Z</time>
      </trkpt>
      <trkpt lat="47.39226" lon="-0.87232">
        <ele>63.217362</ele>
        <time>2023-05-08T12:44:32.646Z</time>
      </trkpt>
      <trkpt lat="47.39226" lon="-0.87215">
        <ele>63.122134</ele>
        <time>2023-05-08T12:44:35.640Z</time>
      </trkpt>
      <trkpt lat="47.39225" lon="-0.87197">
        <ele>63.027415</ele>
        <time>2023-05-08T12:44:38.640Z</time>
      </trkpt>
      <trkpt lat="47.39224" lon="-0.8718">
        <ele>62.932316</ele>
        <time>2023-05-08T12:44:41.635Z</time>
      </trkpt>
      <trkpt lat="47.39223" lon="-0.87164">
        <ele>62.843109</ele>
        <time>2023-05-08T12:44:44.640Z</time>
      </trkpt>
      <trkpt lat="47.39222" lon="-0.87149">
        <ele>62.759761</ele>
        <time>2023-05-08T12:44:47.650Z</time>
      </trkpt>
      <trkpt lat="47.38864" lon="-0.8492">
        <ele>63.125092</ele>
        <time>2023-05-08T12:55:05.635Z</time>
      </trkpt>
      <trkpt lat="47.38872" lon="-0.84928">
        <ele>63.12056</ele>
        <time>2023-05-08T12:55:13.628Z</time>
      </trkpt>
      <trkpt lat="47.38882" lon="-0.84924">
        <ele>63.115883</ele>
        <time>2023-05-08T12:55:18.630Z</time>
      </trkpt>
      <trkpt lat="47.3889" lon="-0.84914">
        <ele>63.111216</ele>
        <time>2023-05-08T12:55:23.620Z</time>
      </trkpt>
      <trkpt lat="47.38898" lon="-0.84903">
        <ele>63.106555</ele>
        <time>2023-05-08T12:55:27.638Z</time>
      </trkpt>
      <trkpt lat="47.38906" lon="-0.84893">
        <ele>63.101417</ele>
        <time>2023-05-08T12:55:31.637Z</time>
      </trkpt>
      <trkpt lat="47.38914" lon="-0.8488">
        <ele>63.096192</ele>
        <time>2023-05-08T12:55:35.631Z</time>
      </trkpt>
      <trkpt lat="47.38918" lon="-0.84866">
        <ele>63.091598</ele>
        <time>2023-05-08T12:55:39.629Z</time>
      </trkpt>
      <trkpt lat="47.3892" lon="-0.84848">
        <ele>63.086053</ele>
        <time>2023-05-08T12:55:43.634Z</time>
      </trkpt>
      <trkpt lat="47.38923" lon="-0.84832">
        <ele>63.08078</ele>
        <time>2023-05-08T12:55:47.626Z</time>
      </trkpt>
      <trkpt lat="47.38926" lon="-0.84816">
        <ele>63.075773</ele>
        <time>2023-05-08T12:55:51.641Z</time>
      </trkpt>
      <trkpt lat="47.38929" lon="-0.84801">
        <ele>63.070855</ele>
        <time>2023-05-08T12:55:55.634Z</time>
      </trkpt>
      <trkpt lat="47.38932" lon="-0.84787">
        <ele>63.066614</ele>
        <time>2023-05-08T12:55:58.641Z</time>
      </trkpt>
      <trkpt lat="47.38933" lon="-0.84774">
        <ele>63.062532</ele>
        <time>2023-05-08T12:56:01.638Z</time>
      </trkpt>
      <trkpt lat="47.38936" lon="-0.84759">
        <ele>62.943536</ele>
        <time>2023-05-08T12:56:04.639Z</time>
      </trkpt>
      <trkpt lat="47.38938" lon="-0.84744">
        <ele>62.79462</ele>
        <time>2023-05-08T12:56:07.633Z</time>
      </trkpt>
      <trkpt lat="47.38938" lon="-0.8473">
        <ele>62.651128</ele>
        <time>2023-05-08T12:56:10.636Z</time>
      </trkpt>
      <trkpt lat="47.3894" lon="-0.84715">
        <ele>62.49873</ele>
        <time>2023-05-08T12:56:13.640Z</time>
      </trkpt>
      <trkpt lat="47.3894" lon="-0.84699">
        <ele>62.340768</ele>
        <time>2023-05-08T12:56:16.635Z</time>
      </trkpt>
      <trkpt lat="47.3894" lon="-0.84683">
        <ele>62.185787</ele>
        <time>2023-05-08T12:56:19.637Z</time>
      </trkpt>
      <trkpt lat="47.38939" lon="-0.84669">
        <ele>62.046538</ele>
        <time>2023-05-08T12:56:22.636Z</time>
      </trkpt>
      <trkpt lat="47.3894" lon="-0.84651">
        <ele>61.873575</ele>
        <time>2023-05-08T12:56:26.634Z</time>
      </trkpt>
      <trkpt lat="47.38938" lon="-0.84636">
        <ele>61.722942</ele>
        <time>2023-05-08T12:56:29.632Z</time>
      </trkpt>
      <trkpt lat="47.38936" lon="-0.84618">
        <ele>61.545499</ele>
        <time>2023-05-08T12:56:32.642Z</time>
      </trkpt>
      <trkpt lat="47.38934" lon="-0.84603">
        <ele>61.386624</ele>
        <time>2023-05-08T12:56:35.637Z</time>
      </trkpt>
      <trkpt lat="47.38932" lon="-0.84587">
        <ele>61.22646</ele>
        <time>2023-05-08T12:56:38.635Z</time>
      </trkpt>
      <trkpt lat="47.38929" lon="-0.84571">
        <ele>61.069178</ele>
        <time>2023-05-08T12:56:41.639Z</time>
      </trkpt>
      <trkpt lat="47.38927" lon="-0.84556">
        <ele>60.910051</ele>
        <time>2023-05-08T12:56:44.637Z</time>
      </trkpt>
      <trkpt lat="47.38925" lon="-0.84541">
        <ele>60.757566</ele>
        <time>2023-05-08T12:56:47.633Z</time>
      </trkpt>
      <trkpt lat="47.38923" lon="-0.84527">
        <ele>60.617872</ele>
        <time>2023-05-08T12:56:50.639Z</time>
      </trkpt>
      <trkpt lat="47.38921" lon="-0.84513">
        <ele>60.479416</ele>
        <time>2023-05-08T12:56:53.637Z</time>
      </trkpt>
      <trkpt lat="47.38919" lon="-0.84498">
        <ele>60.410116</ele>
        <time>2023-05-08T12:56:56.640Z</time>
      </trkpt>
      <trkpt lat="47.38917" lon="-0.84482">
        <ele>60.369783</ele>
        <time>2023-05-08T12:56:59.628Z</time>
      </trkpt>
      <trkpt lat="47.38916" lon="-0.84468">
        <ele>60.333727</ele>
        <time>2023-05-08T12:57:02.637Z</time>
      </trkpt>
      <trkpt lat="47.38913" lon="-0.84453">
        <ele>60.294064</ele>
        <time>2023-05-08T12:57:05.640Z</time>
      </trkpt>
      <trkpt lat="47.38911" lon="-0.84439">
        <ele>60.257058</ele>
        <time>2023-05-08T12:57:08.635Z</time>
      </trkpt>
      <trkpt lat="47.38909" lon="-0.84423">
        <ele>60.215794</ele>
        <time>2023-05-08T12:57:11.638Z</time>
      </trkpt>
      <trkpt lat="47.38908" lon="-0.84409">
        <ele>60.17898</ele>
        <time>2023-05-08T12:57:14.631Z</time>
      </trkpt>
      <trkpt lat="47.38907" lon="-0.84393">
        <ele>60.139468</ele>
        <time>2023-05-08T12:57:17.636Z</time>
      </trkpt>
      <trkpt lat="47.38905" lon="-0.84377">
        <ele>60.097884</ele>
        <time>2023-05-08T12:57:20.633Z</time>
      </trkpt>
      <trkpt lat="47.38902" lon="-0.84361">
        <ele>60.055563</ele>
        <time>2023-05-08T12:57:23.636Z</time>
      </trkpt>
      <trkpt lat="47.38898" lon="-0.84346">
        <ele>60.014052</ele>
        <time>2023-05-08T12:57:26.636Z</time>
      </trkpt>
      <trkpt lat="47.38892" lon="-0.84331">
        <ele>59.970427</ele>
        <time>2023-05-08T12:57:29.633Z</time>
      </trkpt>
      <trkpt lat="47.38886" lon="-0.84318">
        <ele>59.927939</ele>
        <time>2023-05-08T12:57:32.639Z</time>
      </trkpt>
      <trkpt lat="47.38878" lon="-0.84308">
        <ele>59.888605</ele>
        <time>2023-05-08T12:57:35.636Z</time>
      </trkpt>
      <trkpt lat="47.3887" lon="-0.84298">
        <ele>59.849797</ele>
        <time>2023-05-08T12:57:38.638Z</time>
      </trkpt>
      <trkpt lat="47.38861" lon="-0.84289">
        <ele>59.810988</ele>
        <time>2023-05-08T12:57:41.627Z</time>
      </trkpt>
      <trkpt lat="47.38853" lon="-0.84279">
        <ele>59.768831</ele>
        <time>2023-05-08T12:57:44.622Z</time>
      </trkpt>
      <trkpt lat="47.38843" lon="-0.84268">
        <ele>59.925822</ele>
        <time>2023-05-08T12:57:47.633Z</time>
      </trkpt>
      <trkpt lat="47.38834" lon="-0.84258">
        <ele>60.128603</ele>
        <time>2023-05-08T12:57:50.647Z</time>
      </trkpt>
      <trkpt lat="47.38826" lon="-0.84246">
        <ele>60.324345</ele>
        <time>2023-05-08T12:57:53.635Z</time>
      </trkpt>
      <trkpt lat="47.38818" lon="-0.84236">
        <ele>60.50559</ele>
        <time>2023-05-08T12:57:56.640Z</time>
      </trkpt>
      <trkpt lat="47.38809" lon="-0.84225">
        <ele>60.694464</ele>
        <time>2023-05-08T12:57:59.630Z</time>
      </trkpt>
      <trkpt lat="47.38801" lon="-0.84215">
        <ele>60.880945</ele>
        <time>2023-05-08T12:58:02.635Z</time>
      </trkpt>
      <trkpt lat="47.38792" lon="-0.84203">
        <ele>61.082639</ele>
        <time>2023-05-08T12:58:05.641Z</time>
      </trkpt>
      <trkpt lat="47.38783" lon="-0.84192">
        <ele>61.275179</ele>
        <time>2023-05-08T12:58:08.641Z</time>
      </trkpt>
      <trkpt lat="47.38775" lon="-0.84181">
        <ele>61.469998</ele>
        <time>2023-05-08T12:58:11.635Z</time>
      </trkpt>
      <trkpt lat="47.38766" lon="-0.8417">
        <ele>61.661916</ele>
        <time>2023-05-08T12:58:14.629Z</time>
      </trkpt>
      <trkpt lat="47.38758" lon="-0.84159">
        <ele>61.852084</ele>
        <time>2023-05-08T12:58:17.635Z</time>
      </trkpt>
      <trkpt lat="47.38749" lon="-0.84148">
        <ele>62.046327</ele>
        <time>2023-05-08T12:58:20.639Z</time>
      </trkpt>
      <trkpt lat="47.38741" lon="-0.84136">
        <ele>62.248547</ele>
        <time>2023-05-08T12:58:23.637Z</time>
      </trkpt>
      <trkpt lat="47.38733" lon="-0.84122">
        <ele>62.453147</ele>
        <time>2023-05-08T12:58:26.637Z</time>
      </trkpt>
      <trkpt lat="47.38726" lon="-0.84108">
        <ele>62.652175</ele>
        <time>2023-05-08T12:58:29.632Z</time>
      </trkpt>
      <trkpt lat="47.38719" lon="-0.84093">
        <ele>62.835531</ele>
        <time>2023-05-08T12:58:32.639Z</time>
      </trkpt>
      <trkpt lat="47.38711" lon="-0.84079">
        <ele>62.904119</ele>
        <time>2023-05-08T12:58:35.633Z</time>
      </trkpt>
      <trkpt lat="47.38706" lon="-0.84068">
        <ele>62.954838</ele>
        <time>2023-05-08T12:58:37.635Z</time>
      </trkpt>
      <trkpt lat="47.38697" lon="-0.84055">
        <ele>63.024672</ele>
        <time>2023-05-08T12:58:40.638Z</time>
      </trkpt>
      <trkpt lat="47.38689" lon="-0.8404">
        <ele>63.095619</ele>
        <time>2023-05-08T12:58:43.635Z</time>
      </trkpt>
      <trkpt lat="47.38679" lon="-0.84027">
        <ele>63.167034</ele>
        <time>2023-05-08T12:58:46.640Z</time>
      </trkpt>
      <trkpt lat="47.38671" lon="-0.84013">
        <ele>63.236794</ele>
        <time>2023-05-08T12:58:49.633Z</time>
      </trkpt>
      <trkpt lat="47.38662" lon="-0.84003">
        <ele>63.29531</ele>
        <time>2023-05-08T12:58:52.636Z</time>
      </trkpt>
      <trkpt lat="47.38653" lon="-0.83993">
        <ele>63.357994</ele>
        <time>2023-05-08T12:58:55.638Z</time>
      </trkpt>
      <trkpt lat="47.38645" lon="-0.83982">
        <ele>63.417678</ele>
        <time>2023-05-08T12:58:58.637Z</time>
      </trkpt>
      <trkpt lat="47.38638" lon="-0.83971">
        <ele>63.473861</ele>
        <time>2023-05-08T12:59:01.638Z</time>
      </trkpt>
      <trkpt lat="47.38631" lon="-0.83961">
        <ele>63.531826</ele>
        <time>2023-05-08T12:59:04.632Z</time>
      </trkpt>
      <trkpt lat="47.38624" lon="-0.83949">
        <ele>63.591051</ele>
        <time>2023-05-08T12:59:07.641Z</time>
      </trkpt>
      <trkpt lat="47.38617" lon="-0.83937">
        <ele>63.648542</ele>
        <time>2023-05-08T12:59:10.628Z</time>
      </trkpt>
      <trkpt lat="47.3861" lon="-0.83927">
        <ele>63.702337</ele>
        <time>2023-05-08T12:59:13.633Z</time>
      </trkpt>
      <trkpt lat="47.38602" lon="-0.8392">
        <ele>63.752878</ele>
        <time>2023-05-08T12:59:16.637Z</time>
      </trkpt>
      <trkpt lat="47.38591" lon="-0.83921">
        <ele>63.812032</ele>
        <time>2023-05-08T12:59:20.638Z</time>
      </trkpt>
      <trkpt lat="47.38581" lon="-0.83929">
        <ele>63.767239</ele>
        <time>2023-05-08T12:59:24.635Z</time>
      </trkpt>
      <trkpt lat="47.38571" lon="-0.83937">
        <ele>63.719843</ele>
        <time>2023-05-08T12:59:28.638Z</time>
      </trkpt>
      <trkpt lat="47.3856" lon="-0.83936">
        <ele>63.67538</ele>
        <time>2023-05-08T12:59:32.632Z</time>
      </trkpt>
      <trkpt lat="47.3855" lon="-0.83932">
        <ele>63.6328</ele>
        <time>2023-05-08T12:59:36.650Z</time>
      </trkpt>
      <trkpt lat="47.3854" lon="-0.83923">
        <ele>63.583422</ele>
        <time>2023-05-08T12:59:40.637Z</time>
      </trkpt>
      <trkpt lat="47.38531" lon="-0.83912">
        <ele>63.535666</ele>
        <time>2023-05-08T12:59:44.629Z</time>
      </trkpt>
      <trkpt lat="47.38522" lon="-0.83902">
        <ele>63.487753</ele>
        <time>2023-05-08T12:59:48.640Z</time>
      </trkpt>
      <trkpt lat="47.38513" lon="-0.83894">
        <ele>63.444174</ele>
        <time>2023-05-08T12:59:51.635Z</time>
      </trkpt>
      <trkpt lat="47.38504" lon="-0.83886">
        <ele>63.39955</ele>
        <time>2023-05-08T12:59:54.634Z</time>
      </trkpt>
      <trkpt lat="47.38496" lon="-0.83877">
        <ele>63.35933</ele>
        <time>2023-05-08T12:59:57.635Z</time>
      </trkpt>
      <trkpt lat="47.38489" lon="-0.83866">
        <ele>63.318951</ele>
        <time>2023-05-08T13:00:00.640Z</time>
      </trkpt>
      <trkpt lat="47.38484" lon="-0.83856">
        <ele>63.281104</ele>
        <time>2023-05-08T13:00:03.636Z</time>
      </trkpt>
      <trkpt lat="47.3848" lon="-0.83843">
        <ele>63.242342</ele>
        <time>2023-05-08T13:00:06.635Z</time>
      </trkpt>
      <trkpt lat="47.38477" lon="-0.83828">
        <ele>63.198677</ele>
        <time>2023-05-08T13:00:09.630Z</time>
      </trkpt>
      <trkpt lat="47.38474" lon="-0.83813">
        <ele>63.1531</ele>
        <time>2023-05-08T13:00:12.636Z</time>
      </trkpt>
      <trkpt lat="47.3847" lon="-0.83796">
        <ele>63.104111</ele>
        <time>2023-05-08T13:00:15.641Z</time>
      </trkpt>
      <trkpt lat="47.38465" lon="-0.83781">
        <ele>63.046794</ele>
        <time>2023-05-08T13:00:18.635Z</time>
      </trkpt>
      <trkpt lat="47.3846" lon="-0.83766">
        <ele>62.965965</ele>
        <time>2023-05-08T13:00:21.640Z</time>
      </trkpt>
      <trkpt lat="47.38454" lon="-0.8375">
        <ele>62.87992</ele>
        <time>2023-05-08T13:00:24.632Z</time>
      </trkpt>
      <trkpt lat="47.38448" lon="-0.83735">
        <ele>62.793875</ele>
        <time>2023-05-08T13:00:27.632Z</time>
      </trkpt>
      <trkpt lat="47.38442" lon="-0.8372">
        <ele>62.711568</ele>
        <time>2023-05-08T13:00:30.635Z</time>
      </trkpt>
      <trkpt lat="47.38437" lon="-0.83706">
        <ele>62.632309</ele>
        <time>2023-05-08T13:00:33.633Z</time>
      </trkpt>
      <trkpt lat="47.38431" lon="-0.83692">
        <ele>62.555776</ele>
        <time>2023-05-08T13:00:36.639Z</time>
      </trkpt>
      <trkpt lat="47.38426" lon="-0.83678">
        <ele>62.477287</ele>
        <time>2023-05-08T13:00:39.626Z</time>
      </trkpt>
      <trkpt lat="47.3842" lon="-0.83664">
        <ele>62.400944</ele>
        <time>2023-05-08T13:00:42.635Z</time>
      </trkpt>
      <trkpt lat="47.38415" lon="-0.83651">
        <ele>62.329078</ele>
        <time>2023-05-08T13:00:45.635Z</time>
      </trkpt>
      <trkpt lat="47.3841" lon="-0.83639">
        <ele>62.258375</ele>
        <time>2023-05-08T13:00:48.638Z</time>
      </trkpt>
      <trkpt lat="47.38404" lon="-0.83625">
        <ele>62.182445</ele>
        <time>2023-05-08T13:00:51.635Z</time>
      </trkpt>
      <trkpt lat="47.38398" lon="-0.83613">
        <ele>62.10782</ele>
        <time>2023-05-08T13:00:54.640Z</time>
      </trkpt>
      <trkpt lat="47.38393" lon="-0.836">
        <ele>62.032397</ele>
        <time>2023-05-08T13:00:57.639Z</time>
      </trkpt>
      <trkpt lat="47.38387" lon="-0.83586">
        <ele>61.956945</ele>
        <time>2023-05-08T13:01:00.635Z</time>
      </trkpt>
      <trkpt lat="47.38382" lon="-0.83573">
        <ele>61.883283</ele>
        <time>2023-05-08T13:01:03.632Z</time>
      </trkpt>
      <trkpt lat="47.38377" lon="-0.83559">
        <ele>61.807937</ele>
        <time>2023-05-08T13:01:06.634Z</time>
      </trkpt>
      <trkpt lat="47.38373" lon="-0.83547">
        <ele>61.833847</ele>
        <time>2023-05-08T13:01:09.635Z</time>
      </trkpt>
      <trkpt lat="47.38369" lon="-0.83532">
        <ele>61.904708</ele>
        <time>2023-05-08T13:01:13.635Z</time>
      </trkpt>
      <trkpt lat="47.38366" lon="-0.83519">
        <ele>61.967563</ele>
        <time>2023-05-08T13:01:16.635Z</time>
      </trkpt>
      <trkpt lat="47.38362" lon="-0.83504">
        <ele>62.04182</ele>
        <time>2023-05-08T13:01:19.633Z</time>
      </trkpt>
      <trkpt lat="47.3836" lon="-0.83489">
        <ele>62.115052</ele>
        <time>2023-05-08T13:01:22.634Z</time>
      </trkpt>
      <trkpt lat="47.38357" lon="-0.83473">
        <ele>62.189183</ele>
        <time>2023-05-08T13:01:25.633Z</time>
      </trkpt>
      <trkpt lat="47.38354" lon="-0.83459">
        <ele>62.259045</ele>
        <time>2023-05-08T13:01:28.635Z</time>
      </trkpt>
      <trkpt lat="47.3835" lon="-0.83446">
        <ele>62.326392</ele>
        <time>2023-05-08T13:01:31.632Z</time>
      </trkpt>
      <trkpt lat="47.38345" lon="-0.83432">
        <ele>62.397106</ele>
        <time>2023-05-08T13:01:34.634Z</time>
      </trkpt>
      <trkpt lat="47.3834" lon="-0.83417">
        <ele>62.478192</ele>
        <time>2023-05-08T13:01:37.639Z</time>
      </trkpt>
      <trkpt lat="47.38334" lon="-0.83401">
        <ele>62.559277</ele>
        <time>2023-05-08T13:01:40.629Z</time>
      </trkpt>
      <trkpt lat="47.38328" lon="-0.83387">
        <ele>62.639726</ele>
        <time>2023-05-08T13:01:43.636Z</time>
      </trkpt>
      <trkpt lat="47.3832" lon="-0.83372">
        <ele>62.725176</ele>
        <time>2023-05-08T13:01:46.635Z</time>
      </trkpt>
      <trkpt lat="47.38313" lon="-0.83358">
        <ele>62.804454</ele>
        <time>2023-05-08T13:01:49.633Z</time>
      </trkpt>
      <trkpt lat="47.38307" lon="-0.83344">
        <ele>62.878744</ele>
        <time>2023-05-08T13:01:52.635Z</time>
      </trkpt>
      <trkpt lat="47.38301" lon="-0.83332">
        <ele>62.950771</ele>
        <time>2023-05-08T13:01:55.626Z</time>
      </trkpt>
      <trkpt lat="47.38295" lon="-0.8332">
        <ele>63.019464</ele>
        <time>2023-05-08T13:01:58.635Z</time>
      </trkpt>
      <trkpt lat="47.38289" lon="-0.83308">
        <ele>63.126387</ele>
        <time>2023-05-08T13:02:01.635Z</time>
      </trkpt>
      <trkpt lat="47.38283" lon="-0.83294">
        <ele>63.243482</ele>
        <time>2023-05-08T13:02:04.640Z</time>
      </trkpt>
      <trkpt lat="47.38276" lon="-0.83281">
        <ele>63.370573</ele>
        <time>2023-05-08T13:02:07.635Z</time>
      </trkpt>
      <trkpt lat="47.38268" lon="-0.83267">
        <ele>63.49929</ele>
        <time>2023-05-08T13:02:10.629Z</time>
      </trkpt>
      <trkpt lat="47.38261" lon="-0.83255">
        <ele>63.616581</ele>
        <time>2023-05-08T13:02:13.636Z</time>
      </trkpt>
      <trkpt lat="47.38251" lon="-0.83243">
        <ele>63.749904</ele>
        <time>2023-05-08T13:02:16.645Z</time>
      </trkpt>
      <trkpt lat="47.38242" lon="-0.83232">
        <ele>63.873451</ele>
        <time>2023-05-08T13:02:19.641Z</time>
      </trkpt>
      <trkpt lat="47.38235" lon="-0.83222">
        <ele>63.984926</ele>
        <time>2023-05-08T13:02:22.645Z</time>
      </trkpt>
      <trkpt lat="47.38227" lon="-0.83212">
        <ele>64.091303</ele>
        <time>2023-05-08T13:02:25.629Z</time>
      </trkpt>
      <trkpt lat="47.3822" lon="-0.83202">
        <ele>64.192794</ele>
        <time>2023-05-08T13:02:28.640Z</time>
      </trkpt>
      <trkpt lat="47.38213" lon="-0.83192">
        <ele>64.299657</ele>
        <time>2023-05-08T13:02:31.633Z</time>
      </trkpt>
      <trkpt lat="47.38204" lon="-0.8318">
        <ele>64.424533</ele>
        <time>2023-05-08T13:02:34.634Z</time>
      </trkpt>
      <trkpt lat="47.38196" lon="-0.83169">
        <ele>64.546563</ele>
        <time>2023-05-08T13:02:37.634Z</time>
      </trkpt>
      <trkpt lat="47.38187" lon="-0.83156">
        <ele>64.678155</ele>
        <time>2023-05-08T13:02:40.627Z</time>
      </trkpt>
      <trkpt lat="47.38178" lon="-0.83144">
        <ele>64.806746</ele>
        <time>2023-05-08T13:02:43.635Z</time>
      </trkpt>
      <trkpt lat="47.38169" lon="-0.83133">
        <ele>64.932031</ele>
        <time>2023-05-08T13:02:46.638Z</time>
      </trkpt>
      <trkpt lat="47.38161" lon="-0.83123">
        <ele>65.047532</ele>
        <time>2023-05-08T13:02:49.638Z</time>
      </trkpt>
      <trkpt lat="47.38153" lon="-0.83114">
        <ele>65.154416</ele>
        <time>2023-05-08T13:02:52.645Z</time>
      </trkpt>
      <trkpt lat="47.38144" lon="-0.83104">
        <ele>65.265587</ele>
        <time>2023-05-08T13:02:55.632Z</time>
      </trkpt>
      <trkpt lat="47.38135" lon="-0.83095">
        <ele>65.386538</ele>
        <time>2023-05-08T13:02:58.631Z</time>
      </trkpt>
      <trkpt lat="47.38125" lon="-0.83085">
        <ele>65.517145</ele>
        <time>2023-05-08T13:03:01.638Z</time>
      </trkpt>
      <trkpt lat="47.38114" lon="-0.83076">
        <ele>65.648224</ele>
        <time>2023-05-08T13:03:04.632Z</time>
      </trkpt>
      <trkpt lat="47.38103" lon="-0.83067">
        <ele>65.77592</ele>
        <time>2023-05-08T13:03:07.636Z</time>
      </trkpt>
      <trkpt lat="47.38093" lon="-0.83059">
        <ele>65.895394</ele>
        <time>2023-05-08T13:03:10.626Z</time>
      </trkpt>
      <trkpt lat="47.38085" lon="-0.83053">
        <ele>65.998294</ele>
        <time>2023-05-08T13:03:13.634Z</time>
      </trkpt>
      <trkpt lat="47.38076" lon="-0.83045">
        <ele>66.10732</ele>
        <time>2023-05-08T13:03:16.634Z</time>
      </trkpt>
      <trkpt lat="47.38067" lon="-0.83037">
        <ele>66.216585</ele>
        <time>2023-05-08T13:03:19.635Z</time>
      </trkpt>
      <trkpt lat="47.38058" lon="-0.8303">
        <ele>66.324235</ele>
        <time>2023-05-08T13:03:22.638Z</time>
      </trkpt>
      <trkpt lat="47.38047" lon="-0.83021">
        <ele>66.457273</ele>
        <time>2023-05-08T13:03:25.632Z</time>
      </trkpt>
      <trkpt lat="47.38036" lon="-0.83013">
        <ele>66.582974</ele>
        <time>2023-05-08T13:03:28.639Z</time>
      </trkpt>
      <trkpt lat="47.38026" lon="-0.83005">
        <ele>66.704936</ele>
        <time>2023-05-08T13:03:31.633Z</time>
      </trkpt>
      <trkpt lat="47.38018" lon="-0.82996">
        <ele>66.813701</ele>
        <time>2023-05-08T13:03:34.634Z</time>
      </trkpt>
      <trkpt lat="47.38008" lon="-0.82988">
        <ele>66.84689</ele>
        <time>2023-05-08T13:03:37.637Z</time>
      </trkpt>
      <trkpt lat="47.37999" lon="-0.82978">
        <ele>66.860388</ele>
        <time>2023-05-08T13:03:40.627Z</time>
      </trkpt>
      <trkpt lat="47.37988" lon="-0.82969">
        <ele>66.874653</ele>
        <time>2023-05-08T13:03:43.640Z</time>
      </trkpt>
      <trkpt lat="47.37978" lon="-0.82961">
        <ele>66.888561</ele>
        <time>2023-05-08T13:03:46.643Z</time>
      </trkpt>
      <trkpt lat="47.37968" lon="-0.82952">
        <ele>66.901702</ele>
        <time>2023-05-08T13:03:49.638Z</time>
      </trkpt>
      <trkpt lat="47.3796" lon="-0.82944">
        <ele>66.91304</ele>
        <time>2023-05-08T13:03:52.632Z</time>
      </trkpt>
      <trkpt lat="47.3795" lon="-0.82936">
        <ele>66.925914</ele>
        <time>2023-05-08T13:03:55.631Z</time>
      </trkpt>
      <trkpt lat="47.3794" lon="-0.82925">
        <ele>66.940425</ele>
        <time>2023-05-08T13:03:59.647Z</time>
      </trkpt>
      <trkpt lat="47.37931" lon="-0.82916">
        <ele>66.953094</ele>
        <time>2023-05-08T13:04:02.628Z</time>
      </trkpt>
      <trkpt lat="47.37922" lon="-0.82907">
        <ele>66.965936</ele>
        <time>2023-05-08T13:04:05.634Z</time>
      </trkpt>
      <trkpt lat="47.37912" lon="-0.82899">
        <ele>66.978899</ele>
        <time>2023-05-08T13:04:08.636Z</time>
      </trkpt>
      <trkpt lat="47.37903" lon="-0.82888">
        <ele>66.992669</ele>
        <time>2023-05-08T13:04:11.637Z</time>
      </trkpt>
      <trkpt lat="47.37893" lon="-0.82877">
        <ele>67.00685</ele>
        <time>2023-05-08T13:04:14.631Z</time>
      </trkpt>
      <trkpt lat="47.37885" lon="-0.82867">
        <ele>67.018397</ele>
        <time>2023-05-08T13:04:17.634Z</time>
      </trkpt>
      <trkpt lat="47.37877" lon="-0.82858">
        <ele>67.031272</ele>
        <time>2023-05-08T13:04:20.636Z</time>
      </trkpt>
      <trkpt lat="47.37869" lon="-0.82847">
        <ele>67.043737</ele>
        <time>2023-05-08T13:04:23.636Z</time>
      </trkpt>
      <trkpt lat="47.3786" lon="-0.82837">
        <ele>67.055769</ele>
        <time>2023-05-08T13:04:26.640Z</time>
      </trkpt>
      <trkpt lat="47.37852" lon="-0.82824">
        <ele>67.069346</ele>
        <time>2023-05-08T13:04:29.633Z</time>
      </trkpt>
      <trkpt lat="47.37843" lon="-0.8281">
        <ele>67.083411</ele>
        <time>2023-05-08T13:04:32.636Z</time>
      </trkpt>
      <trkpt lat="47.37835" lon="-0.82796">
        <ele>67.097088</ele>
        <time>2023-05-08T13:04:35.628Z</time>
      </trkpt>
      <trkpt lat="47.37827" lon="-0.82783">
        <ele>67.110305</ele>
        <time>2023-05-08T13:04:38.634Z</time>
      </trkpt>
      <trkpt lat="47.37819" lon="-0.8277">
        <ele>67.12312</ele>
        <time>2023-05-08T13:04:41.639Z</time>
      </trkpt>
      <trkpt lat="47.37812" lon="-0.82756">
        <ele>67.135823</ele>
        <time>2023-05-08T13:04:44.625Z</time>
      </trkpt>
      <trkpt lat="47.37806" lon="-0.82744">
        <ele>67.147499</ele>
        <time>2023-05-08T13:04:47.634Z</time>
      </trkpt>
      <trkpt lat="47.378" lon="-0.82733">
        <ele>67.158354</ele>
        <time>2023-05-08T13:04:50.626Z</time>
      </trkpt>
      <trkpt lat="47.37794" lon="-0.82718">
        <ele>67.1709</ele>
        <time>2023-05-08T13:04:54.633Z</time>
      </trkpt>
      <trkpt lat="47.3779" lon="-0.82706">
        <ele>67.181226</ele>
        <time>2023-05-08T13:04:57.635Z</time>
      </trkpt>
      <trkpt lat="47.37784" lon="-0.82694">
        <ele>67.192299</ele>
        <time>2023-05-08T13:05:00.629Z</time>
      </trkpt>
      <trkpt lat="47.37778" lon="-0.8268">
        <ele>67.20451</ele>
        <time>2023-05-08T13:05:03.635Z</time>
      </trkpt>
      <trkpt lat="47.37773" lon="-0.82666">
        <ele>67.216586</ele>
        <time>2023-05-08T13:05:06.636Z</time>
      </trkpt>
      <trkpt lat="47.37766" lon="-0.82651">
        <ele>67.22964</ele>
        <time>2023-05-08T13:05:09.632Z</time>
      </trkpt>
      <trkpt lat="47.3776" lon="-0.82637">
        <ele>67.242414</ele>
        <time>2023-05-08T13:05:12.635Z</time>
      </trkpt>
      <trkpt lat="47.37755" lon="-0.82623">
        <ele>67.025818</ele>
        <time>2023-05-08T13:05:15.630Z</time>
      </trkpt>
      <trkpt lat="47.37749" lon="-0.82609">
        <ele>66.783902</ele>
        <time>2023-05-08T13:05:18.640Z</time>
      </trkpt>
      <trkpt lat="47.37744" lon="-0.82595">
        <ele>66.547648</ele>
        <time>2023-05-08T13:05:21.640Z</time>
      </trkpt>
      <trkpt lat="47.3774" lon="-0.82582">
        <ele>66.3341</ele>
        <time>2023-05-08T13:05:24.637Z</time>
      </trkpt>
      <trkpt lat="47.37735" lon="-0.82568">
        <ele>66.10091</ele>
        <time>2023-05-08T13:05:27.640Z</time>
      </trkpt>
      <trkpt lat="47.37731" lon="-0.82554">
        <ele>65.868087</ele>
        <time>2023-05-08T13:05:30.628Z</time>
      </trkpt>
      <trkpt lat="47.37725" lon="-0.82539">
        <ele>65.61556</ele>
        <time>2023-05-08T13:05:33.639Z</time>
      </trkpt>
      <trkpt lat="47.3772" lon="-0.82523">
        <ele>65.34265</ele>
        <time>2023-05-08T13:05:36.638Z</time>
      </trkpt>
      <trkpt lat="47.37715" lon="-0.82507">
        <ele>65.09079</ele>
        <time>2023-05-08T13:05:39.632Z</time>
      </trkpt>
      <trkpt lat="47.37711" lon="-0.8249">
        <ele>64.812269</ele>
        <time>2023-05-08T13:05:42.634Z</time>
      </trkpt>
      <trkpt lat="47.37708" lon="-0.82473">
        <ele>64.544371</ele>
        <time>2023-05-08T13:05:45.633Z</time>
      </trkpt>
      <trkpt lat="47.37705" lon="-0.82457">
        <ele>64.304638</ele>
        <time>2023-05-08T13:05:48.633Z</time>
      </trkpt>
      <trkpt lat="47.37703" lon="-0.82443">
        <ele>64.087804</ele>
        <time>2023-05-08T13:05:51.639Z</time>
      </trkpt>
      <trkpt lat="47.377" lon="-0.82428">
        <ele>63.860125</ele>
        <time>2023-05-08T13:05:54.634Z</time>
      </trkpt>
      <trkpt lat="47.37697" lon="-0.82413">
        <ele>63.610273</ele>
        <time>2023-05-08T13:05:57.636Z</time>
      </trkpt>
      <trkpt lat="47.37694" lon="-0.82398">
        <ele>63.379299</ele>
        <time>2023-05-08T13:06:00.635Z</time>
      </trkpt>
      <trkpt lat="47.37692" lon="-0.82381">
        <ele>63.203632</ele>
        <time>2023-05-08T13:06:03.634Z</time>
      </trkpt>
      <trkpt lat="47.37689" lon="-0.82365">
        <ele>63.088971</ele>
        <time>2023-05-08T13:06:06.637Z</time>
      </trkpt>
      <trkpt lat="47.37686" lon="-0.8235">
        <ele>62.982994</ele>
        <time>2023-05-08T13:06:09.636Z</time>
      </trkpt>
      <trkpt lat="47.37683" lon="-0.82337">
        <ele>62.88765</ele>
        <time>2023-05-08T13:06:12.632Z</time>
      </trkpt>
      <trkpt lat="47.3768" lon="-0.8232">
        <ele>62.769444</ele>
        <time>2023-05-08T13:06:16.632Z</time>
      </trkpt>
      <trkpt lat="47.37677" lon="-0.82307">
        <ele>62.671855</ele>
        <time>2023-05-08T13:06:19.632Z</time>
      </trkpt>
      <trkpt lat="47.37673" lon="-0.82291">
        <ele>62.559439</ele>
        <time>2023-05-08T13:06:22.631Z</time>
      </trkpt>
      <trkpt lat="47.3767" lon="-0.82274">
        <ele>62.43724</ele>
        <time>2023-05-08T13:06:25.631Z</time>
      </trkpt>
      <trkpt lat="47.37667" lon="-0.82256">
        <ele>62.315418</ele>
        <time>2023-05-08T13:06:28.634Z</time>
      </trkpt>
      <trkpt lat="47.37663" lon="-0.8224">
        <ele>62.198808</ele>
        <time>2023-05-08T13:06:31.632Z</time>
      </trkpt>
      <trkpt lat="47.3766" lon="-0.82223">
        <ele>62.076733</ele>
        <time>2023-05-08T13:06:34.632Z</time>
      </trkpt>
      <trkpt lat="47.37657" lon="-0.82206">
        <ele>61.957227</ele>
        <time>2023-05-08T13:06:37.635Z</time>
      </trkpt>
      <trkpt lat="47.37654" lon="-0.82191">
        <ele>61.85144</ele>
        <time>2023-05-08T13:06:40.635Z</time>
      </trkpt>
      <trkpt lat="47.3765" lon="-0.82178">
        <ele>61.754976</ele>
        <time>2023-05-08T13:06:43.636Z</time>
      </trkpt>
      <trkpt lat="47.37647" lon="-0.82165">
        <ele>61.663095</ele>
        <time>2023-05-08T13:06:46.627Z</time>
      </trkpt>
      <trkpt lat="47.37644" lon="-0.82152">
        <ele>61.571646</ele>
        <time>2023-05-08T13:06:49.637Z</time>
      </trkpt>
      <trkpt lat="47.37642" lon="-0.82139">
        <ele>61.479196</ele>
        <time>2023-05-08T13:06:52.632Z</time>
      </trkpt>
      <trkpt lat="47.37639" lon="-0.82126">
        <ele>61.430685</ele>
        <time>2023-05-08T13:06:55.636Z</time>
      </trkpt>
      <trkpt lat="47.37635" lon="-0.82113">
        <ele>61.393184</ele>
        <time>2023-05-08T13:06:58.633Z</time>
      </trkpt>
      <trkpt lat="47.37632" lon="-0.82098">
        <ele>61.35343</ele>
        <time>2023-05-08T13:07:01.628Z</time>
      </trkpt>
      <trkpt lat="47.3763" lon="-0.82084">
        <ele>61.316015</ele>
        <time>2023-05-08T13:07:04.631Z</time>
      </trkpt>
      <trkpt lat="47.37628" lon="-0.82069">
        <ele>61.277775</ele>
        <time>2023-05-08T13:07:07.636Z</time>
      </trkpt>
      <trkpt lat="47.37625" lon="-0.82055">
        <ele>61.24198</ele>
        <time>2023-05-08T13:07:10.630Z</time>
      </trkpt>
      <trkpt lat="47.37622" lon="-0.82042">
        <ele>61.20647</ele>
        <time>2023-05-08T13:07:13.637Z</time>
      </trkpt>
      <trkpt lat="47.37619" lon="-0.82029">
        <ele>61.171433</ele>
        <time>2023-05-08T13:07:16.628Z</time>
      </trkpt>
      <trkpt lat="47.37616" lon="-0.82017">
        <ele>61.137454</ele>
        <time>2023-05-08T13:07:19.636Z</time>
      </trkpt>
      <trkpt lat="47.37612" lon="-0.82003">
        <ele>61.100349</ele>
        <time>2023-05-08T13:07:22.636Z</time>
      </trkpt>
      <trkpt lat="47.37608" lon="-0.81989">
        <ele>61.060892</ele>
        <time>2023-05-08T13:07:25.636Z</time>
      </trkpt>
      <trkpt lat="47.37604" lon="-0.81976">
        <ele>61.022755</ele>
        <time>2023-05-08T13:07:28.638Z</time>
      </trkpt>
      <trkpt lat="47.37598" lon="-0.81959">
        <ele>60.974766</ele>
        <time>2023-05-08T13:07:31.628Z</time>
      </trkpt>
      <trkpt lat="47.37592" lon="-0.81943">
        <ele>60.928092</ele>
        <time>2023-05-08T13:07:34.632Z</time>
      </trkpt>
      <trkpt lat="47.37587" lon="-0.81927">
        <ele>60.884765</ele>
        <time>2023-05-08T13:07:37.636Z</time>
      </trkpt>
      <trkpt lat="47.37582" lon="-0.81914">
        <ele>60.844711</ele>
        <time>2023-05-08T13:07:40.632Z</time>
      </trkpt>
      <trkpt lat="47.37577" lon="-0.81899">
        <ele>60.802953</ele>
        <time>2023-05-08T13:07:43.633Z</time>
      </trkpt>
      <trkpt lat="47.37573" lon="-0.81882">
        <ele>60.761891</ele>
        <time>2023-05-08T13:07:46.631Z</time>
      </trkpt>
      <trkpt lat="47.37569" lon="-0.81864">
        <ele>60.724087</ele>
        <time>2023-05-08T13:07:49.636Z</time>
      </trkpt>
      <trkpt lat="47.37565" lon="-0.81847">
        <ele>60.686564</ele>
        <time>2023-05-08T13:07:52.635Z</time>
      </trkpt>
      <trkpt lat="47.3756" lon="-0.81831">
        <ele>60.651045</ele>
        <time>2023-05-08T13:07:55.631Z</time>
      </trkpt>
      <trkpt lat="47.37556" lon="-0.81815">
        <ele>60.615148</ele>
        <time>2023-05-08T13:07:58.633Z</time>
      </trkpt>
      <trkpt lat="47.37551" lon="-0.818">
        <ele>60.581616</ele>
        <time>2023-05-08T13:08:01.628Z</time>
      </trkpt>
      <trkpt lat="47.37546" lon="-0.81786">
        <ele>60.549502</ele>
        <time>2023-05-08T13:08:04.632Z</time>
      </trkpt>
      <trkpt lat="47.37541" lon="-0.8177">
        <ele>60.513936</ele>
        <time>2023-05-08T13:08:07.639Z</time>
      </trkpt>
      <trkpt lat="47.37535" lon="-0.81755">
        <ele>60.478145</ele>
        <time>2023-05-08T13:08:10.633Z</time>
      </trkpt>
      <trkpt lat="47.37531" lon="-0.8174">
        <ele>60.445793</ele>
        <time>2023-05-08T13:08:13.635Z</time>
      </trkpt>
      <trkpt lat="47.37526" lon="-0.81724">
        <ele>60.410367</ele>
        <time>2023-05-08T13:08:16.631Z</time>
      </trkpt>
      <trkpt lat="47.37522" lon="-0.81708">
        <ele>60.375413</ele>
        <time>2023-05-08T13:08:19.629Z</time>
      </trkpt>
      <trkpt lat="47.37516" lon="-0.81691">
        <ele>60.337256</ele>
        <time>2023-05-08T13:08:22.632Z</time>
      </trkpt>
      <trkpt lat="47.37511" lon="-0.81675">
        <ele>60.300424</ele>
        <time>2023-05-08T13:08:25.639Z</time>
      </trkpt>
      <trkpt lat="47.37507" lon="-0.81659">
        <ele>60.265611</ele>
        <time>2023-05-08T13:08:28.627Z</time>
      </trkpt>
      <trkpt lat="47.37502" lon="-0.81644">
        <ele>60.24945</ele>
        <time>2023-05-08T13:08:31.632Z</time>
      </trkpt>
      <trkpt lat="47.37496" lon="-0.81631">
        <ele>60.288337</ele>
        <time>2023-05-08T13:08:34.634Z</time>
      </trkpt>
      <trkpt lat="47.37492" lon="-0.81617">
        <ele>60.325882</ele>
        <time>2023-05-08T13:08:37.636Z</time>
      </trkpt>
      <trkpt lat="47.37486" lon="-0.81603">
        <ele>60.367929</ele>
        <time>2023-05-08T13:08:40.635Z</time>
      </trkpt>
      <trkpt lat="47.3748" lon="-0.81587">
        <ele>60.413583</ele>
        <time>2023-05-08T13:08:43.636Z</time>
      </trkpt>
      <trkpt lat="47.37474" lon="-0.81572">
        <ele>60.456</ele>
        <time>2023-05-08T13:08:46.626Z</time>
      </trkpt>
      <trkpt lat="47.37469" lon="-0.81557">
        <ele>60.497283</ele>
        <time>2023-05-08T13:08:49.633Z</time>
      </trkpt>
      <trkpt lat="47.37465" lon="-0.81542">
        <ele>60.538653</ele>
        <time>2023-05-08T13:08:52.635Z</time>
      </trkpt>
      <trkpt lat="47.37461" lon="-0.81529">
        <ele>60.574522</ele>
        <time>2023-05-08T13:08:55.632Z</time>
      </trkpt>
      <trkpt lat="47.37456" lon="-0.81514">
        <ele>60.616701</ele>
        <time>2023-05-08T13:08:59.634Z</time>
      </trkpt>
      <trkpt lat="47.37452" lon="-0.81498">
        <ele>60.660274</ele>
        <time>2023-05-08T13:09:03.641Z</time>
      </trkpt>
      <trkpt lat="47.3745" lon="-0.81484">
        <ele>60.695588</ele>
        <time>2023-05-08T13:09:06.627Z</time>
      </trkpt>
      <trkpt lat="47.37446" lon="-0.81471">
        <ele>60.73107</ele>
        <time>2023-05-08T13:09:09.634Z</time>
      </trkpt>
      <trkpt lat="47.37442" lon="-0.81458">
        <ele>60.766553</ele>
        <time>2023-05-08T13:09:12.640Z</time>
      </trkpt>
      <trkpt lat="47.37438" lon="-0.81445">
        <ele>60.802792</ele>
        <time>2023-05-08T13:09:15.635Z</time>
      </trkpt>
      <trkpt lat="47.37434" lon="-0.81432">
        <ele>60.83871</ele>
        <time>2023-05-08T13:09:18.632Z</time>
      </trkpt>
      <trkpt lat="47.37428" lon="-0.81417">
        <ele>60.880222</ele>
        <time>2023-05-08T13:09:21.623Z</time>
      </trkpt>
      <trkpt lat="47.37425" lon="-0.81401">
        <ele>60.896076</ele>
        <time>2023-05-08T13:09:25.639Z</time>
      </trkpt>
      <trkpt lat="47.37421" lon="-0.81387">
        <ele>60.876668</ele>
        <time>2023-05-08T13:09:28.639Z</time>
      </trkpt>
      <trkpt lat="47.37417" lon="-0.81373">
        <ele>60.856164</ele>
        <time>2023-05-08T13:09:31.627Z</time>
      </trkpt>
      <trkpt lat="47.37413" lon="-0.81358">
        <ele>60.835142</ele>
        <time>2023-05-08T13:09:34.627Z</time>
      </trkpt>
      <trkpt lat="47.3741" lon="-0.81341">
        <ele>60.813153</ele>
        <time>2023-05-08T13:09:37.636Z</time>
      </trkpt>
      <trkpt lat="47.37407" lon="-0.81326">
        <ele>60.792686</ele>
        <time>2023-05-08T13:09:40.637Z</time>
      </trkpt>
      <trkpt lat="47.37404" lon="-0.8131">
        <ele>60.771712</ele>
        <time>2023-05-08T13:09:44.634Z</time>
      </trkpt>
      <trkpt lat="47.37403" lon="-0.81294">
        <ele>60.750901</ele>
        <time>2023-05-08T13:09:48.632Z</time>
      </trkpt>
      <trkpt lat="47.37402" lon="-0.81279">
        <ele>60.731289</ele>
        <time>2023-05-08T13:09:51.629Z</time>
      </trkpt>
      <trkpt lat="47.37401" lon="-0.81262">
        <ele>60.709746</ele>
        <time>2023-05-08T13:09:54.630Z</time>
      </trkpt>
      <trkpt lat="47.37403" lon="-0.81245">
        <ele>60.686839</ele>
        <time>2023-05-08T13:09:57.634Z</time>
      </trkpt>
      <trkpt lat="47.37403" lon="-0.81228">
        <ele>60.66567</ele>
        <time>2023-05-08T13:10:00.631Z</time>
      </trkpt>
      <trkpt lat="47.37403" lon="-0.81214">
        <ele>60.646833</ele>
        <time>2023-05-08T13:10:03.632Z</time>
      </trkpt>
      <trkpt lat="47.37402" lon="-0.812">
        <ele>60.62895</ele>
        <time>2023-05-08T13:10:06.626Z</time>
      </trkpt>
      <trkpt lat="47.374" lon="-0.81184">
        <ele>60.607851</ele>
        <time>2023-05-08T13:10:10.635Z</time>
      </trkpt>
      <trkpt lat="47.37398" lon="-0.8117">
        <ele>60.588846</ele>
        <time>2023-05-08T13:10:13.631Z</time>
      </trkpt>
      <trkpt lat="47.37395" lon="-0.81155">
        <ele>60.568493</ele>
        <time>2023-05-08T13:10:16.635Z</time>
      </trkpt>
      <trkpt lat="47.37391" lon="-0.81139">
        <ele>60.602881</ele>
        <time>2023-05-08T13:10:19.633Z</time>
      </trkpt>
      <trkpt lat="47.37388" lon="-0.81122">
        <ele>60.662597</ele>
        <time>2023-05-08T13:10:22.626Z</time>
      </trkpt>
      <trkpt lat="47.37385" lon="-0.81104">
        <ele>60.727265</ele>
        <time>2023-05-08T13:10:25.634Z</time>
      </trkpt>
      <trkpt lat="47.37382" lon="-0.81086">
        <ele>60.788325</ele>
        <time>2023-05-08T13:10:28.632Z</time>
      </trkpt>
      <trkpt lat="47.37381" lon="-0.8107">
        <ele>60.843723</ele>
        <time>2023-05-08T13:10:31.628Z</time>
      </trkpt>
      <trkpt lat="47.37379" lon="-0.81055">
        <ele>60.896577</ele>
        <time>2023-05-08T13:10:34.637Z</time>
      </trkpt>
      <trkpt lat="47.37377" lon="-0.81041">
        <ele>60.94547</ele>
        <time>2023-05-08T13:10:37.635Z</time>
      </trkpt>
      <trkpt lat="47.37375" lon="-0.81027">
        <ele>60.994482</ele>
        <time>2023-05-08T13:10:40.630Z</time>
      </trkpt>
      <trkpt lat="47.37373" lon="-0.81014">
        <ele>61.040327</ele>
        <time>2023-05-08T13:10:43.633Z</time>
      </trkpt>
      <trkpt lat="47.37371" lon="-0.80999">
        <ele>61.094121</ele>
        <time>2023-05-08T13:10:47.637Z</time>
      </trkpt>
      <trkpt lat="47.37366" lon="-0.80985">
        <ele>61.145319</ele>
        <time>2023-05-08T13:10:50.636Z</time>
      </trkpt>
      <trkpt lat="47.37362" lon="-0.8097">
        <ele>61.202376</ele>
        <time>2023-05-08T13:10:53.636Z</time>
      </trkpt>
      <trkpt lat="47.37358" lon="-0.80957">
        <ele>61.25185</ele>
        <time>2023-05-08T13:10:56.626Z</time>
      </trkpt>
      <trkpt lat="47.37354" lon="-0.80943">
        <ele>61.304845</ele>
        <time>2023-05-08T13:10:59.634Z</time>
      </trkpt>
      <trkpt lat="47.37348" lon="-0.80929">
        <ele>61.359987</ele>
        <time>2023-05-08T13:11:02.631Z</time>
      </trkpt>
      <trkpt lat="47.37343" lon="-0.80915">
        <ele>61.413662</ele>
        <time>2023-05-08T13:11:05.639Z</time>
      </trkpt>
      <trkpt lat="47.37337" lon="-0.809">
        <ele>61.472192</ele>
        <time>2023-05-08T13:11:08.634Z</time>
      </trkpt>
      <trkpt lat="47.37332" lon="-0.80885">
        <ele>61.418361</ele>
        <time>2023-05-08T13:11:11.637Z</time>
      </trkpt>
      <trkpt lat="47.37327" lon="-0.8087">
        <ele>61.362519</ele>
        <time>2023-05-08T13:11:14.630Z</time>
      </trkpt>
      <trkpt lat="47.37321" lon="-0.80855">
        <ele>61.307965</ele>
        <time>2023-05-08T13:11:17.637Z</time>
      </trkpt>
      <trkpt lat="47.37316" lon="-0.8084">
        <ele>61.255638</ele>
        <time>2023-05-08T13:11:20.646Z</time>
      </trkpt>
      <trkpt lat="47.3731" lon="-0.80828">
        <ele>61.208477</ele>
        <time>2023-05-08T13:11:23.634Z</time>
      </trkpt>
      <trkpt lat="47.37305" lon="-0.80816">
        <ele>61.163345</ele>
        <time>2023-05-08T13:11:26.625Z</time>
      </trkpt>
      <trkpt lat="47.373" lon="-0.80803">
        <ele>61.116365</ele>
        <time>2023-05-08T13:11:29.634Z</time>
      </trkpt>
      <trkpt lat="47.37294" lon="-0.8079">
        <ele>61.066042</ele>
        <time>2023-05-08T13:11:32.635Z</time>
      </trkpt>
      <trkpt lat="47.37288" lon="-0.80776">
        <ele>61.013325</ele>
        <time>2023-05-08T13:11:35.634Z</time>
      </trkpt>
      <trkpt lat="47.37282" lon="-0.80761">
        <ele>60.959833</ele>
        <time>2023-05-08T13:11:38.622Z</time>
      </trkpt>
      <trkpt lat="47.37277" lon="-0.80746">
        <ele>60.903712</ele>
        <time>2023-05-08T13:11:41.636Z</time>
      </trkpt>
      <trkpt lat="47.37271" lon="-0.80731">
        <ele>60.850941</ele>
        <time>2023-05-08T13:11:44.617Z</time>
      </trkpt>
      <trkpt lat="47.37267" lon="-0.80717">
        <ele>60.801637</ele>
        <time>2023-05-08T13:11:47.629Z</time>
      </trkpt>
      <trkpt lat="47.37264" lon="-0.80701">
        <ele>60.747539</ele>
        <time>2023-05-08T13:11:50.632Z</time>
      </trkpt>
      <trkpt lat="47.3726" lon="-0.80685">
        <ele>60.694496</ele>
        <time>2023-05-08T13:11:53.636Z</time>
      </trkpt>
      <trkpt lat="47.37257" lon="-0.8067">
        <ele>60.644495</ele>
        <time>2023-05-08T13:11:56.632Z</time>
      </trkpt>
      <trkpt lat="47.37254" lon="-0.80657">
        <ele>60.623854</ele>
        <time>2023-05-08T13:11:59.628Z</time>
      </trkpt>
      <trkpt lat="47.3725" lon="-0.80641">
        <ele>60.617028</ele>
        <time>2023-05-08T13:12:03.630Z</time>
      </trkpt>
      <trkpt lat="47.37246" lon="-0.80627">
        <ele>60.611008</ele>
        <time>2023-05-08T13:12:07.627Z</time>
      </trkpt>
      <trkpt lat="47.37242" lon="-0.80611">
        <ele>60.60425</ele>
        <time>2023-05-08T13:12:11.631Z</time>
      </trkpt>
      <trkpt lat="47.37238" lon="-0.80597">
        <ele>60.598442</ele>
        <time>2023-05-08T13:12:14.629Z</time>
      </trkpt>
      <trkpt lat="47.37235" lon="-0.80582">
        <ele>60.592132</ele>
        <time>2023-05-08T13:12:17.628Z</time>
      </trkpt>
      <trkpt lat="47.37231" lon="-0.80566">
        <ele>60.585654</ele>
        <time>2023-05-08T13:12:20.630Z</time>
      </trkpt>
      <trkpt lat="47.37227" lon="-0.80551">
        <ele>60.57926</ele>
        <time>2023-05-08T13:12:23.633Z</time>
      </trkpt>
      <trkpt lat="47.37223" lon="-0.80538">
        <ele>60.57329</ele>
        <time>2023-05-08T13:12:26.640Z</time>
      </trkpt>
      <trkpt lat="47.37219" lon="-0.80522">
        <ele>60.566757</ele>
        <time>2023-05-08T13:12:29.634Z</time>
      </trkpt>
      <trkpt lat="47.37216" lon="-0.80506">
        <ele>60.559998</ele>
        <time>2023-05-08T13:12:32.626Z</time>
      </trkpt>
      <trkpt lat="47.37211" lon="-0.80489">
        <ele>60.552993</ele>
        <time>2023-05-08T13:12:35.629Z</time>
      </trkpt>
      <trkpt lat="47.37207" lon="-0.80473">
        <ele>60.546072</ele>
        <time>2023-05-08T13:12:38.632Z</time>
      </trkpt>
      <trkpt lat="47.37203" lon="-0.80456">
        <ele>60.539089</ele>
        <time>2023-05-08T13:12:41.630Z</time>
      </trkpt>
      <trkpt lat="47.372" lon="-0.80441">
        <ele>60.532705</ele>
        <time>2023-05-08T13:12:44.630Z</time>
      </trkpt>
      <trkpt lat="47.37196" lon="-0.80426">
        <ele>60.526471</ele>
        <time>2023-05-08T13:12:47.632Z</time>
      </trkpt>
      <trkpt lat="47.37193" lon="-0.80409">
        <ele>60.542427</ele>
        <time>2023-05-08T13:12:50.631Z</time>
      </trkpt>
      <trkpt lat="47.37191" lon="-0.80391">
        <ele>60.594531</ele>
        <time>2023-05-08T13:12:53.633Z</time>
      </trkpt>
      <trkpt lat="47.37189" lon="-0.80374">
        <ele>60.647643</ele>
        <time>2023-05-08T13:12:56.632Z</time>
      </trkpt>
      <trkpt lat="47.37186" lon="-0.80356">
        <ele>60.700574</ele>
        <time>2023-05-08T13:12:59.634Z</time>
      </trkpt>
      <trkpt lat="47.37183" lon="-0.80338">
        <ele>60.754897</ele>
        <time>2023-05-08T13:13:02.626Z</time>
      </trkpt>
      <trkpt lat="47.3718" lon="-0.80321">
        <ele>60.808143</ele>
        <time>2023-05-08T13:13:05.635Z</time>
      </trkpt>
      <trkpt lat="47.37176" lon="-0.80303">
        <ele>60.86405</ele>
        <time>2023-05-08T13:13:08.637Z</time>
      </trkpt>
      <trkpt lat="47.37172" lon="-0.80285">
        <ele>60.918976</ele>
        <time>2023-05-08T13:13:11.634Z</time>
      </trkpt>
      <trkpt lat="47.37167" lon="-0.80269">
        <ele>60.97174</ele>
        <time>2023-05-08T13:13:14.633Z</time>
      </trkpt>
      <trkpt lat="47.37162" lon="-0.80253">
        <ele>61.021285</ele>
        <time>2023-05-08T13:13:17.626Z</time>
      </trkpt>
      <trkpt lat="47.37158" lon="-0.80239">
        <ele>61.065741</ele>
        <time>2023-05-08T13:13:20.638Z</time>
      </trkpt>
      <trkpt lat="47.37153" lon="-0.80228">
        <ele>61.107421</ele>
        <time>2023-05-08T13:13:23.631Z</time>
      </trkpt>
      <trkpt lat="47.37143" lon="-0.80222">
        <ele>61.152049</ele>
        <time>2023-05-08T13:13:27.630Z</time>
      </trkpt>
      <trkpt lat="47.37132" lon="-0.80217">
        <ele>61.204105</ele>
        <time>2023-05-08T13:13:31.630Z</time>
      </trkpt>
      <trkpt lat="47.37121" lon="-0.80217">
        <ele>61.250613</ele>
        <time>2023-05-08T13:13:34.632Z</time>
      </trkpt>
      <trkpt lat="47.3711" lon="-0.8022">
        <ele>61.298007</ele>
        <time>2023-05-08T13:13:37.630Z</time>
      </trkpt>
      <trkpt lat="47.37099" lon="-0.80226">
        <ele>61.406487</ele>
        <time>2023-05-08T13:13:40.633Z</time>
      </trkpt>
      <trkpt lat="47.37088" lon="-0.80233">
        <ele>61.518374</ele>
        <time>2023-05-08T13:13:43.635Z</time>
      </trkpt>
      <trkpt lat="47.37077" lon="-0.80239">
        <ele>61.636597</ele>
        <time>2023-05-08T13:13:46.632Z</time>
      </trkpt>
      <trkpt lat="47.37065" lon="-0.80245">
        <ele>61.75706</ele>
        <time>2023-05-08T13:13:49.631Z</time>
      </trkpt>
      <trkpt lat="47.37054" lon="-0.80252">
        <ele>61.87502</ele>
        <time>2023-05-08T13:13:52.623Z</time>
      </trkpt>
      <trkpt lat="47.37042" lon="-0.80258">
        <ele>61.995015</ele>
        <time>2023-05-08T13:13:55.620Z</time>
      </trkpt>
      <trkpt lat="47.3703" lon="-0.80263">
        <ele>62.115699</ele>
        <time>2023-05-08T13:13:58.629Z</time>
      </trkpt>
      <trkpt lat="47.37018" lon="-0.80269">
        <ele>62.236041</ele>
        <time>2023-05-08T13:14:01.635Z</time>
      </trkpt>
      <trkpt lat="47.37006" lon="-0.80275">
        <ele>62.35807</ele>
        <time>2023-05-08T13:14:04.631Z</time>
      </trkpt>
      <trkpt lat="47.36995" lon="-0.80281">
        <ele>62.472647</ele>
        <time>2023-05-08T13:14:07.628Z</time>
      </trkpt>
      <trkpt lat="47.36984" lon="-0.80286">
        <ele>62.578555</ele>
        <time>2023-05-08T13:14:10.628Z</time>
      </trkpt>
      <trkpt lat="47.36975" lon="-0.80292">
        <ele>62.674687</ele>
        <time>2023-05-08T13:14:13.642Z</time>
      </trkpt>
      <trkpt lat="47.36966" lon="-0.80296">
        <ele>62.766949</ele>
        <time>2023-05-08T13:14:16.630Z</time>
      </trkpt>
      <trkpt lat="47.36955" lon="-0.803">
        <ele>62.873487</ele>
        <time>2023-05-08T13:14:19.639Z</time>
      </trkpt>
      <trkpt lat="47.36945" lon="-0.80295">
        <ele>62.982349</ele>
        <time>2023-05-08T13:14:22.618Z</time>
      </trkpt>
      <trkpt lat="47.36936" lon="-0.80282">
        <ele>63.04316</ele>
        <time>2023-05-08T13:14:25.620Z</time>
      </trkpt>
      <trkpt lat="47.36929" lon="-0.80268">
        <ele>63.054148</ele>
        <time>2023-05-08T13:14:28.635Z</time>
      </trkpt>
      <trkpt lat="47.36921" lon="-0.80254">
        <ele>63.065905</ele>
        <time>2023-05-08T13:14:31.630Z</time>
      </trkpt>
      <trkpt lat="47.36913" lon="-0.80239">
        <ele>63.07816</ele>
        <time>2023-05-08T13:14:34.630Z</time>
      </trkpt>
      <trkpt lat="47.36905" lon="-0.80225">
        <ele>63.089898</ele>
        <time>2023-05-08T13:14:37.629Z</time>
      </trkpt>
      <trkpt lat="47.36896" lon="-0.80211">
        <ele>63.102624</ele>
        <time>2023-05-08T13:14:40.630Z</time>
      </trkpt>
      <trkpt lat="47.36888" lon="-0.80197">
        <ele>63.114393</ele>
        <time>2023-05-08T13:14:43.619Z</time>
      </trkpt>
      <trkpt lat="47.3688" lon="-0.80182">
        <ele>63.126366</ele>
        <time>2023-05-08T13:14:46.631Z</time>
      </trkpt>
      <trkpt lat="47.36874" lon="-0.80168">
        <ele>63.136944</ele>
        <time>2023-05-08T13:14:49.626Z</time>
      </trkpt>
      <trkpt lat="47.36868" lon="-0.80156">
        <ele>63.146843</ele>
        <time>2023-05-08T13:14:52.615Z</time>
      </trkpt>
      <trkpt lat="47.3686" lon="-0.80145">
        <ele>63.156502</ele>
        <time>2023-05-08T13:14:55.657Z</time>
      </trkpt>
      <trkpt lat="47.36855" lon="-0.80134">
        <ele>63.165603</ele>
        <time>2023-05-08T13:14:58.632Z</time>
      </trkpt>
      <trkpt lat="47.36847" lon="-0.80122">
        <ele>63.176102</ele>
        <time>2023-05-08T13:15:01.638Z</time>
      </trkpt>
      <trkpt lat="47.3684" lon="-0.80109">
        <ele>63.187091</ele>
        <time>2023-05-08T13:15:04.621Z</time>
      </trkpt>
      <trkpt lat="47.36831" lon="-0.80096">
        <ele>63.198979</ele>
        <time>2023-05-08T13:15:07.628Z</time>
      </trkpt>
      <trkpt lat="47.36822" lon="-0.80083">
        <ele>63.211347</ele>
        <time>2023-05-08T13:15:10.635Z</time>
      </trkpt>
      <trkpt lat="47.36814" lon="-0.8007">
        <ele>63.225136</ele>
        <time>2023-05-08T13:15:13.636Z</time>
      </trkpt>
      <trkpt lat="47.36806" lon="-0.80057">
        <ele>63.238939</ele>
        <time>2023-05-08T13:15:16.636Z</time>
      </trkpt>
      <trkpt lat="47.36797" lon="-0.80045">
        <ele>63.252862</ele>
        <time>2023-05-08T13:15:19.636Z</time>
      </trkpt>
      <trkpt lat="47.36789" lon="-0.80033">
        <ele>63.265881</ele>
        <time>2023-05-08T13:15:22.630Z</time>
      </trkpt>
      <trkpt lat="47.36782" lon="-0.80022">
        <ele>63.277745</ele>
        <time>2023-05-08T13:15:25.633Z</time>
      </trkpt>
      <trkpt lat="47.36775" lon="-0.8001">
        <ele>63.289373</ele>
        <time>2023-05-08T13:15:28.624Z</time>
      </trkpt>
      <trkpt lat="47.36768" lon="-0.79999">
        <ele>63.301387</ele>
        <time>2023-05-08T13:15:31.636Z</time>
      </trkpt>
      <trkpt lat="47.36761" lon="-0.79985">
        <ele>63.314991</ele>
        <time>2023-05-08T13:15:34.636Z</time>
      </trkpt>
      <trkpt lat="47.36755" lon="-0.7997">
        <ele>63.328918</ele>
        <time>2023-05-08T13:15:37.627Z</time>
      </trkpt>
      <trkpt lat="47.36749" lon="-0.79952">
        <ele>63.344112</ele>
        <time>2023-05-08T13:15:40.619Z</time>
      </trkpt>
      <trkpt lat="47.36744" lon="-0.79934">
        <ele>63.359021</ele>
        <time>2023-05-08T13:15:43.638Z</time>
      </trkpt>
      <trkpt lat="47.36741" lon="-0.79918">
        <ele>63.372328</ele>
        <time>2023-05-08T13:15:46.632Z</time>
      </trkpt>
      <trkpt lat="47.36738" lon="-0.79903">
        <ele>63.384255</ele>
        <time>2023-05-08T13:15:49.632Z</time>
      </trkpt>
      <trkpt lat="47.36735" lon="-0.79888">
        <ele>63.396534</ele>
        <time>2023-05-08T13:15:52.614Z</time>
      </trkpt>
      <trkpt lat="47.35641" lon="-0.76752">
        <ele>59.99501</ele>
        <time>2023-05-08T13:29:54.275Z</time>
      </trkpt>
      <trkpt lat="47.35599" lon="-0.7676">
        <ele>59.408688</ele>
        <time>2023-05-08T13:29:55.286Z</time>
      </trkpt>
      <trkpt lat="47.35639" lon="-0.76752">
        <ele>58.855347</ele>
        <time>2023-05-08T13:29:56.611Z</time>
      </trkpt>
      <trkpt lat="47.35624" lon="-0.76743">
        <ele>58.63467</ele>
        <time>2023-05-08T13:35:33.625Z</time>
      </trkpt>
      <trkpt lat="47.35616" lon="-0.76736">
        <ele>58.509558</ele>
        <time>2023-05-08T13:35:38.630Z</time>
      </trkpt>
      <trkpt lat="47.35609" lon="-0.76723">
        <ele>58.360065</ele>
        <time>2023-05-08T13:35:44.621Z</time>
      </trkpt>
      <trkpt lat="47.35604" lon="-0.76711">
        <ele>58.228169</ele>
        <time>2023-05-08T13:35:48.621Z</time>
      </trkpt>
      <trkpt lat="47.35599" lon="-0.767">
        <ele>58.102413</ele>
        <time>2023-05-08T13:35:53.617Z</time>
      </trkpt>
      <trkpt lat="47.35592" lon="-0.76689">
        <ele>58.114604</ele>
        <time>2023-05-08T13:35:58.631Z</time>
      </trkpt>
      <trkpt lat="47.35586" lon="-0.76674">
        <ele>58.389129</ele>
        <time>2023-05-08T13:36:02.625Z</time>
      </trkpt>
      <trkpt lat="47.35581" lon="-0.76659">
        <ele>58.653267</ele>
        <time>2023-05-08T13:36:06.627Z</time>
      </trkpt>
      <trkpt lat="47.35578" lon="-0.76645">
        <ele>58.897851</ele>
        <time>2023-05-08T13:36:10.627Z</time>
      </trkpt>
      <trkpt lat="47.35573" lon="-0.76631">
        <ele>59.141304</ele>
        <time>2023-05-08T13:36:14.630Z</time>
      </trkpt>
      <trkpt lat="47.35571" lon="-0.76617">
        <ele>59.372555</ele>
        <time>2023-05-08T13:36:17.624Z</time>
      </trkpt>
      <trkpt lat="47.35569" lon="-0.76604">
        <ele>59.586339</ele>
        <time>2023-05-08T13:36:20.625Z</time>
      </trkpt>
      <trkpt lat="47.35566" lon="-0.76587">
        <ele>59.863925</ele>
        <time>2023-05-08T13:36:24.627Z</time>
      </trkpt>
      <trkpt lat="47.35564" lon="-0.76573">
        <ele>60.089885</ele>
        <time>2023-05-08T13:36:27.620Z</time>
      </trkpt>
      <trkpt lat="47.35563" lon="-0.76555">
        <ele>60.375633</ele>
        <time>2023-05-08T13:36:31.635Z</time>
      </trkpt>
      <trkpt lat="47.35562" lon="-0.76537">
        <ele>60.657384</ele>
        <time>2023-05-08T13:36:35.629Z</time>
      </trkpt>
      <trkpt lat="47.3556" lon="-0.76522">
        <ele>60.897122</ele>
        <time>2023-05-08T13:36:39.629Z</time>
      </trkpt>
      <trkpt lat="47.35559" lon="-0.76508">
        <ele>61.117975</ele>
        <time>2023-05-08T13:36:42.630Z</time>
      </trkpt>
      <trkpt lat="47.35559" lon="-0.76494">
        <ele>61.349672</ele>
        <time>2023-05-08T13:36:45.625Z</time>
      </trkpt>
      <trkpt lat="47.35556" lon="-0.76481">
        <ele>61.566108</ele>
        <time>2023-05-08T13:36:48.629Z</time>
      </trkpt>
      <trkpt lat="47.35553" lon="-0.76468">
        <ele>61.780601</ele>
        <time>2023-05-08T13:36:51.614Z</time>
      </trkpt>
      <trkpt lat="47.35548" lon="-0.76457">
        <ele>61.995057</ele>
        <time>2023-05-08T13:36:54.625Z</time>
      </trkpt>
      <trkpt lat="47.35542" lon="-0.76443">
        <ele>62.246324</ele>
        <time>2023-05-08T13:36:58.622Z</time>
      </trkpt>
      <trkpt lat="47.35537" lon="-0.7643">
        <ele>62.520249</ele>
        <time>2023-05-08T13:37:02.630Z</time>
      </trkpt>
      <trkpt lat="47.35534" lon="-0.76417">
        <ele>62.769485</ele>
        <time>2023-05-08T13:37:06.626Z</time>
      </trkpt>
      <trkpt lat="47.35531" lon="-0.764">
        <ele>63.088504</ele>
        <time>2023-05-08T13:37:10.628Z</time>
      </trkpt>
      <trkpt lat="47.3553" lon="-0.76386">
        <ele>63.343586</ele>
        <time>2023-05-08T13:37:13.628Z</time>
      </trkpt>
      <trkpt lat="47.35528" lon="-0.76369">
        <ele>63.653642</ele>
        <time>2023-05-08T13:37:17.627Z</time>
      </trkpt>
      <trkpt lat="47.35525" lon="-0.76355">
        <ele>63.89706</ele>
        <time>2023-05-08T13:37:20.627Z</time>
      </trkpt>
      <trkpt lat="47.35523" lon="-0.7634">
        <ele>64.184541</ele>
        <time>2023-05-08T13:37:23.630Z</time>
      </trkpt>
      <trkpt lat="47.35521" lon="-0.76322">
        <ele>64.499172</ele>
        <time>2023-05-08T13:37:26.625Z</time>
      </trkpt>
      <trkpt lat="47.35518" lon="-0.76307">
        <ele>64.788499</ele>
        <time>2023-05-08T13:37:29.627Z</time>
      </trkpt>
      <trkpt lat="47.35516" lon="-0.76291">
        <ele>65.079497</ele>
        <time>2023-05-08T13:37:33.631Z</time>
      </trkpt>
      <trkpt lat="47.35514" lon="-0.76275">
        <ele>65.359536</ele>
        <time>2023-05-08T13:37:37.621Z</time>
      </trkpt>
      <trkpt lat="47.35514" lon="-0.76258">
        <ele>65.672577</ele>
        <time>2023-05-08T13:37:41.629Z</time>
      </trkpt>
      <trkpt lat="47.35515" lon="-0.76241">
        <ele>65.975256</ele>
        <time>2023-05-08T13:37:45.633Z</time>
      </trkpt>
      <trkpt lat="47.35516" lon="-0.76225">
        <ele>66.256524</ele>
        <time>2023-05-08T13:37:50.623Z</time>
      </trkpt>
      <trkpt lat="47.35516" lon="-0.76212">
        <ele>66.503697</ele>
        <time>2023-05-08T13:37:57.616Z</time>
      </trkpt>
      <trkpt lat="47.35512" lon="-0.762">
        <ele>66.740885</ele>
        <time>2023-05-08T13:38:05.623Z</time>
      </trkpt>
      <trkpt lat="47.35507" lon="-0.76187">
        <ele>66.961316</ele>
        <time>2023-05-08T13:38:49.623Z</time>
      </trkpt>
      <trkpt lat="47.35501" lon="-0.76177">
        <ele>66.627498</ele>
        <time>2023-05-08T13:40:08.618Z</time>
      </trkpt>
      <trkpt lat="47.35503" lon="-0.76163">
        <ele>66.295334</ele>
        <time>2023-05-08T14:17:14.620Z</time>
      </trkpt>
      <trkpt lat="47.35502" lon="-0.76148">
        <ele>65.934521</ele>
        <time>2023-05-08T14:17:31.619Z</time>
      </trkpt>
      <trkpt lat="47.35505" lon="-0.76135">
        <ele>65.592172</ele>
        <time>2023-05-08T14:17:42.623Z</time>
      </trkpt>
      <trkpt lat="47.35511" lon="-0.76125">
        <ele>65.266769</ele>
        <time>2023-05-08T14:18:17.625Z</time>
      </trkpt>
      <trkpt lat="47.35504" lon="-0.76115">
        <ele>64.92975</ele>
        <time>2023-05-08T14:21:05.620Z</time>
      </trkpt>
      <trkpt lat="47.35499" lon="-0.76104">
        <ele>64.60022</ele>
        <time>2023-05-08T14:21:11.617Z</time>
      </trkpt>
      <trkpt lat="47.35495" lon="-0.76092">
        <ele>64.273827</ele>
        <time>2023-05-08T14:21:16.619Z</time>
      </trkpt>
      <trkpt lat="47.35487" lon="-0.76083">
        <ele>63.92436</ele>
        <time>2023-05-08T14:21:33.619Z</time>
      </trkpt>
      <trkpt lat="47.3549" lon="-0.76067">
        <ele>63.537045</ele>
        <time>2023-05-08T14:21:39.616Z</time>
      </trkpt>
      <trkpt lat="47.3549" lon="-0.76053">
        <ele>63.198423</ele>
        <time>2023-05-08T14:21:44.616Z</time>
      </trkpt>
      <trkpt lat="47.35491" lon="-0.7604">
        <ele>62.863455</ele>
        <time>2023-05-08T14:21:48.619Z</time>
      </trkpt>
      <trkpt lat="47.35489" lon="-0.76025">
        <ele>62.499561</ele>
        <time>2023-05-08T14:21:52.620Z</time>
      </trkpt>
      <trkpt lat="47.3549" lon="-0.76008">
        <ele>62.095313</ele>
        <time>2023-05-08T14:21:57.619Z</time>
      </trkpt>
      <trkpt lat="47.35489" lon="-0.75992">
        <ele>61.701129</ele>
        <time>2023-05-08T14:22:01.616Z</time>
      </trkpt>
      <trkpt lat="47.35487" lon="-0.75979">
        <ele>61.358962</ele>
        <time>2023-05-08T14:22:04.615Z</time>
      </trkpt>
      <trkpt lat="47.35485" lon="-0.75964">
        <ele>60.994615</ele>
        <time>2023-05-08T14:22:07.626Z</time>
      </trkpt>
      <trkpt lat="47.35481" lon="-0.75948">
        <ele>60.591984</ele>
        <time>2023-05-08T14:22:10.627Z</time>
      </trkpt>
      <trkpt lat="47.35477" lon="-0.75932">
        <ele>60.39346</ele>
        <time>2023-05-08T14:22:13.625Z</time>
      </trkpt>
      <trkpt lat="47.35472" lon="-0.75916">
        <ele>60.233293</ele>
        <time>2023-05-08T14:22:16.628Z</time>
      </trkpt>
      <trkpt lat="47.35466" lon="-0.75902">
        <ele>60.089131</ele>
        <time>2023-05-08T14:22:19.613Z</time>
      </trkpt>
      <trkpt lat="47.35461" lon="-0.75889">
        <ele>59.9558</ele>
        <time>2023-05-08T14:22:22.619Z</time>
      </trkpt>
      <trkpt lat="47.35456" lon="-0.75876">
        <ele>59.828645</ele>
        <time>2023-05-08T14:22:25.624Z</time>
      </trkpt>
      <trkpt lat="47.3545" lon="-0.75861">
        <ele>59.676555</ele>
        <time>2023-05-08T14:22:29.617Z</time>
      </trkpt>
      <trkpt lat="47.35444" lon="-0.75849">
        <ele>59.54693</ele>
        <time>2023-05-08T14:22:32.621Z</time>
      </trkpt>
      <trkpt lat="47.35439" lon="-0.75835">
        <ele>59.413788</ele>
        <time>2023-05-08T14:22:35.622Z</time>
      </trkpt>
      <trkpt lat="47.35434" lon="-0.75821">
        <ele>59.27001</ele>
        <time>2023-05-08T14:22:38.627Z</time>
      </trkpt>
      <trkpt lat="47.35428" lon="-0.75808">
        <ele>59.133831</ele>
        <time>2023-05-08T14:22:41.626Z</time>
      </trkpt>
      <trkpt lat="47.35423" lon="-0.75793">
        <ele>58.987895</ele>
        <time>2023-05-08T14:22:44.607Z</time>
      </trkpt>
      <trkpt lat="47.35417" lon="-0.75779">
        <ele>58.840002</ele>
        <time>2023-05-08T14:22:47.622Z</time>
      </trkpt>
      <trkpt lat="47.35411" lon="-0.75764">
        <ele>58.693022</ele>
        <time>2023-05-08T14:22:50.618Z</time>
      </trkpt>
      <trkpt lat="47.35405" lon="-0.75749">
        <ele>58.539384</ele>
        <time>2023-05-08T14:22:53.633Z</time>
      </trkpt>
      <trkpt lat="47.35399" lon="-0.75733">
        <ele>58.380587</ele>
        <time>2023-05-08T14:22:56.623Z</time>
      </trkpt>
      <trkpt lat="47.35394" lon="-0.75718">
        <ele>58.230335</ele>
        <time>2023-05-08T14:22:59.616Z</time>
      </trkpt>
      <trkpt lat="47.35388" lon="-0.75703">
        <ele>58.49819</ele>
        <time>2023-05-08T14:23:02.634Z</time>
      </trkpt>
      <trkpt lat="47.35383" lon="-0.7569">
        <ele>58.855288</ele>
        <time>2023-05-08T14:23:05.616Z</time>
      </trkpt>
      <trkpt lat="47.35377" lon="-0.75677">
        <ele>59.224412</ele>
        <time>2023-05-08T14:23:08.626Z</time>
      </trkpt>
      <trkpt lat="47.35373" lon="-0.75663">
        <ele>59.603561</ele>
        <time>2023-05-08T14:23:12.621Z</time>
      </trkpt>
      <trkpt lat="47.35376" lon="-0.75648">
        <ele>59.977934</ele>
        <time>2023-05-08T14:23:17.625Z</time>
      </trkpt>
      <trkpt lat="47.35383" lon="-0.75638">
        <ele>60.324879</ele>
        <time>2023-05-08T14:23:20.627Z</time>
      </trkpt>
      <trkpt lat="47.35392" lon="-0.75624">
        <ele>60.786454</ele>
        <time>2023-05-08T14:23:23.619Z</time>
      </trkpt>
      <trkpt lat="47.35399" lon="-0.75614">
        <ele>61.13668</ele>
        <time>2023-05-08T14:23:25.619Z</time>
      </trkpt>
      <trkpt lat="47.35406" lon="-0.75605">
        <ele>61.461829</ele>
        <time>2023-05-08T14:23:27.629Z</time>
      </trkpt>
      <trkpt lat="47.35416" lon="-0.75593">
        <ele>61.915988</ele>
        <time>2023-05-08T14:23:30.620Z</time>
      </trkpt>
      <trkpt lat="47.35424" lon="-0.75582">
        <ele>62.317541</ele>
        <time>2023-05-08T14:23:33.625Z</time>
      </trkpt>
      <trkpt lat="47.35432" lon="-0.75572">
        <ele>62.672911</ele>
        <time>2023-05-08T14:23:36.622Z</time>
      </trkpt>
      <trkpt lat="47.35439" lon="-0.75564">
        <ele>62.994415</ele>
        <time>2023-05-08T14:23:39.621Z</time>
      </trkpt>
      <trkpt lat="47.35448" lon="-0.75553">
        <ele>63.411168</ele>
        <time>2023-05-08T14:23:43.625Z</time>
      </trkpt>
      <trkpt lat="47.35456" lon="-0.75543">
        <ele>63.769847</ele>
        <time>2023-05-08T14:23:46.621Z</time>
      </trkpt>
      <trkpt lat="47.35464" lon="-0.75532">
        <ele>64.164788</ele>
        <time>2023-05-08T14:23:49.625Z</time>
      </trkpt>
      <trkpt lat="47.35473" lon="-0.75521">
        <ele>64.560015</ele>
        <time>2023-05-08T14:23:52.621Z</time>
      </trkpt>
      <trkpt lat="47.35482" lon="-0.7551">
        <ele>64.691868</ele>
        <time>2023-05-08T14:23:55.617Z</time>
      </trkpt>
      <trkpt lat="47.3549" lon="-0.755">
        <ele>64.818595</ele>
        <time>2023-05-08T14:23:58.626Z</time>
      </trkpt>
      <trkpt lat="47.35498" lon="-0.75489">
        <ele>64.940897</ele>
        <time>2023-05-08T14:24:01.619Z</time>
      </trkpt>
      <trkpt lat="47.35506" lon="-0.75479">
        <ele>65.061842</ele>
        <time>2023-05-08T14:24:04.622Z</time>
      </trkpt>
      <trkpt lat="47.35514" lon="-0.75468">
        <ele>65.183024</ele>
        <time>2023-05-08T14:24:07.621Z</time>
      </trkpt>
      <trkpt lat="47.35521" lon="-0.75458">
        <ele>65.301868</ele>
        <time>2023-05-08T14:24:10.614Z</time>
      </trkpt>
      <trkpt lat="47.3553" lon="-0.75449">
        <ele>65.427179</ele>
        <time>2023-05-08T14:24:13.626Z</time>
      </trkpt>
      <trkpt lat="47.3554" lon="-0.75443">
        <ele>65.544976</ele>
        <time>2023-05-08T14:24:16.625Z</time>
      </trkpt>
      <trkpt lat="47.35549" lon="-0.7544">
        <ele>65.651316</ele>
        <time>2023-05-08T14:24:19.621Z</time>
      </trkpt>
      <trkpt lat="47.35559" lon="-0.75436">
        <ele>65.765488</ele>
        <time>2023-05-08T14:24:22.621Z</time>
      </trkpt>
      <trkpt lat="47.35569" lon="-0.75432">
        <ele>65.889312</ele>
        <time>2023-05-08T14:24:25.617Z</time>
      </trkpt>
      <trkpt lat="47.3558" lon="-0.75429">
        <ele>66.017449</ele>
        <time>2023-05-08T14:24:28.625Z</time>
      </trkpt>
      <trkpt lat="47.35591" lon="-0.75426">
        <ele>66.146389</ele>
        <time>2023-05-08T14:24:31.623Z</time>
      </trkpt>
      <trkpt lat="47.35602" lon="-0.75423">
        <ele>66.277145</ele>
        <time>2023-05-08T14:24:34.619Z</time>
      </trkpt>
      <trkpt lat="47.35613" lon="-0.75419">
        <ele>66.400405</ele>
        <time>2023-05-08T14:24:37.627Z</time>
      </trkpt>
      <trkpt lat="47.35622" lon="-0.75416">
        <ele>66.507183</ele>
        <time>2023-05-08T14:24:40.617Z</time>
      </trkpt>
      <trkpt lat="47.35631" lon="-0.75414">
        <ele>66.614501</ele>
        <time>2023-05-08T14:24:43.618Z</time>
      </trkpt>
      <trkpt lat="47.3564" lon="-0.7541">
        <ele>66.55558</ele>
        <time>2023-05-08T14:24:46.630Z</time>
      </trkpt>
      <trkpt lat="47.35649" lon="-0.75407">
        <ele>66.488857</ele>
        <time>2023-05-08T14:24:49.624Z</time>
      </trkpt>
      <trkpt lat="47.35657" lon="-0.75402">
        <ele>66.422668</ele>
        <time>2023-05-08T14:24:52.625Z</time>
      </trkpt>
      <trkpt lat="47.35666" lon="-0.75396">
        <ele>66.354867</ele>
        <time>2023-05-08T14:24:55.618Z</time>
      </trkpt>
      <trkpt lat="47.35676" lon="-0.7539">
        <ele>66.279895</ele>
        <time>2023-05-08T14:24:58.622Z</time>
      </trkpt>
      <trkpt lat="47.35685" lon="-0.75385">
        <ele>66.209211</ele>
        <time>2023-05-08T14:25:01.624Z</time>
      </trkpt>
      <trkpt lat="47.35696" lon="-0.7538">
        <ele>66.132474</ele>
        <time>2023-05-08T14:25:04.622Z</time>
      </trkpt>
      <trkpt lat="47.35706" lon="-0.75377">
        <ele>66.057904</ele>
        <time>2023-05-08T14:25:07.617Z</time>
      </trkpt>
      <trkpt lat="47.35716" lon="-0.75374">
        <ele>65.990516</ele>
        <time>2023-05-08T14:25:10.614Z</time>
      </trkpt>
      <trkpt lat="47.35726" lon="-0.75374">
        <ele>65.919256</ele>
        <time>2023-05-08T14:25:14.620Z</time>
      </trkpt>
      <trkpt lat="47.35736" lon="-0.75373">
        <ele>65.846134</ele>
        <time>2023-05-08T14:25:18.621Z</time>
      </trkpt>
      <trkpt lat="47.35744" lon="-0.75364">
        <ele>65.775991</ele>
        <time>2023-05-08T14:25:23.618Z</time>
      </trkpt>
      <trkpt lat="47.35746" lon="-0.7535">
        <ele>65.711651</ele>
        <time>2023-05-08T14:25:27.620Z</time>
      </trkpt>
      <trkpt lat="47.35747" lon="-0.75336">
        <ele>65.642467</ele>
        <time>2023-05-08T14:25:31.621Z</time>
      </trkpt>
      <trkpt lat="47.3575" lon="-0.75322">
        <ele>65.569797</ele>
        <time>2023-05-08T14:25:35.606Z</time>
      </trkpt>
      <trkpt lat="47.35755" lon="-0.75306">
        <ele>65.486724</ele>
        <time>2023-05-08T14:25:39.604Z</time>
      </trkpt>
      <trkpt lat="47.35758" lon="-0.75293">
        <ele>65.42082</ele>
        <time>2023-05-08T14:25:42.614Z</time>
      </trkpt>
      <trkpt lat="47.35762" lon="-0.7528">
        <ele>65.353072</ele>
        <time>2023-05-08T14:25:45.630Z</time>
      </trkpt>
      <trkpt lat="47.35766" lon="-0.75266">
        <ele>65.339171</ele>
        <time>2023-05-08T14:25:48.623Z</time>
      </trkpt>
      <trkpt lat="47.3577" lon="-0.75251">
        <ele>65.329203</ele>
        <time>2023-05-08T14:25:51.614Z</time>
      </trkpt>
      <trkpt lat="47.35774" lon="-0.75236">
        <ele>65.31879</ele>
        <time>2023-05-08T14:25:54.612Z</time>
      </trkpt>
      <trkpt lat="47.35778" lon="-0.75221">
        <ele>65.308894</ele>
        <time>2023-05-08T14:25:57.624Z</time>
      </trkpt>
      <trkpt lat="47.35782" lon="-0.75208">
        <ele>65.299347</ele>
        <time>2023-05-08T14:26:00.612Z</time>
      </trkpt>
      <trkpt lat="47.35786" lon="-0.75194">
        <ele>65.290156</ele>
        <time>2023-05-08T14:26:03.607Z</time>
      </trkpt>
      <trkpt lat="47.35788" lon="-0.75179">
        <ele>65.28043</ele>
        <time>2023-05-08T14:26:06.613Z</time>
      </trkpt>
      <trkpt lat="47.3579" lon="-0.75163">
        <ele>65.27013</ele>
        <time>2023-05-08T14:26:09.611Z</time>
      </trkpt>
      <trkpt lat="47.35792" lon="-0.75146">
        <ele>65.259153</ele>
        <time>2023-05-08T14:26:12.607Z</time>
      </trkpt>
      <trkpt lat="47.35795" lon="-0.7513">
        <ele>65.248918</ele>
        <time>2023-05-08T14:26:15.611Z</time>
      </trkpt>
      <trkpt lat="47.35796" lon="-0.75115">
        <ele>65.239382</ele>
        <time>2023-05-08T14:26:18.622Z</time>
      </trkpt>
      <trkpt lat="47.35799" lon="-0.75102">
        <ele>65.230583</ele>
        <time>2023-05-08T14:26:21.629Z</time>
      </trkpt>
      <trkpt lat="47.35802" lon="-0.75087">
        <ele>65.220757</ele>
        <time>2023-05-08T14:26:24.621Z</time>
      </trkpt>
      <trkpt lat="47.35805" lon="-0.75072">
        <ele>65.211177</ele>
        <time>2023-05-08T14:26:27.630Z</time>
      </trkpt>
      <trkpt lat="47.35808" lon="-0.75058">
        <ele>65.201328</ele>
        <time>2023-05-08T14:26:30.611Z</time>
      </trkpt>
      <trkpt lat="47.35811" lon="-0.75043">
        <ele>65.191893</ele>
        <time>2023-05-08T14:26:33.610Z</time>
      </trkpt>
      <trkpt lat="47.35813" lon="-0.75027">
        <ele>65.181811</ele>
        <time>2023-05-08T14:26:36.626Z</time>
      </trkpt>
      <trkpt lat="47.35814" lon="-0.7501">
        <ele>65.142144</ele>
        <time>2023-05-08T14:26:39.632Z</time>
      </trkpt>
      <trkpt lat="47.35815" lon="-0.74995">
        <ele>65.100703</ele>
        <time>2023-05-08T14:26:42.623Z</time>
      </trkpt>
      <trkpt lat="47.35815" lon="-0.7498">
        <ele>65.063439</ele>
        <time>2023-05-08T14:26:45.617Z</time>
      </trkpt>
      <trkpt lat="47.35815" lon="-0.74965">
        <ele>65.024315</ele>
        <time>2023-05-08T14:26:48.626Z</time>
      </trkpt>
      <trkpt lat="47.35814" lon="-0.7495">
        <ele>64.983632</ele>
        <time>2023-05-08T14:26:51.633Z</time>
      </trkpt>
      <trkpt lat="47.35814" lon="-0.74935">
        <ele>64.944056</ele>
        <time>2023-05-08T14:26:54.623Z</time>
      </trkpt>
      <trkpt lat="47.35815" lon="-0.74919">
        <ele>64.902333</ele>
        <time>2023-05-08T14:26:57.625Z</time>
      </trkpt>
      <trkpt lat="47.35816" lon="-0.74904">
        <ele>64.864084</ele>
        <time>2023-05-08T14:27:00.615Z</time>
      </trkpt>
      <trkpt lat="47.35818" lon="-0.74887">
        <ele>64.819541</ele>
        <time>2023-05-08T14:27:04.619Z</time>
      </trkpt>
      <trkpt lat="47.35818" lon="-0.74873">
        <ele>64.782277</ele>
        <time>2023-05-08T14:27:07.619Z</time>
      </trkpt>
      <trkpt lat="47.35824" lon="-0.74859">
        <ele>64.740008</ele>
        <time>2023-05-08T14:27:11.618Z</time>
      </trkpt>
      <trkpt lat="47.35836" lon="-0.74856">
        <ele>64.691071</ele>
        <time>2023-05-08T14:27:14.624Z</time>
      </trkpt>
      <trkpt lat="47.35846" lon="-0.74858">
        <ele>64.654806</ele>
        <time>2023-05-08T14:27:16.621Z</time>
      </trkpt>
      <trkpt lat="47.35858" lon="-0.74857">
        <ele>64.606744</ele>
        <time>2023-05-08T14:27:19.621Z</time>
      </trkpt>
      <trkpt lat="47.3587" lon="-0.74856">
        <ele>64.560164</ele>
        <time>2023-05-08T14:27:22.624Z</time>
      </trkpt>
      <trkpt lat="47.35882" lon="-0.74856">
        <ele>64.514422</ele>
        <time>2023-05-08T14:27:25.615Z</time>
      </trkpt>
      <trkpt lat="47.35893" lon="-0.74855">
        <ele>64.506687</ele>
        <time>2023-05-08T14:27:28.625Z</time>
      </trkpt>
      <trkpt lat="47.35899" lon="-0.74844">
        <ele>64.546126</ele>
        <time>2023-05-08T14:27:32.622Z</time>
      </trkpt>
      <trkpt lat="47.359" lon="-0.74829">
        <ele>64.587103</ele>
        <time>2023-05-08T14:27:37.624Z</time>
      </trkpt>
      <trkpt lat="47.35906" lon="-0.74818">
        <ele>64.625846</ele>
        <time>2023-05-08T14:27:42.622Z</time>
      </trkpt>
      <trkpt lat="47.35915" lon="-0.74817">
        <ele>64.666002</ele>
        <time>2023-05-08T14:27:46.627Z</time>
      </trkpt>
      <trkpt lat="47.35927" lon="-0.74818">
        <ele>64.715186</ele>
        <time>2023-05-08T14:27:50.615Z</time>
      </trkpt>
      <trkpt lat="47.35937" lon="-0.74819">
        <ele>64.755342</ele>
        <time>2023-05-08T14:27:53.625Z</time>
      </trkpt>
      <trkpt lat="47.35947" lon="-0.74821">
        <ele>64.797835</ele>
        <time>2023-05-08T14:27:56.631Z</time>
      </trkpt>
      <trkpt lat="47.35958" lon="-0.74822">
        <ele>64.841839</ele>
        <time>2023-05-08T14:27:59.634Z</time>
      </trkpt>
      <trkpt lat="47.35969" lon="-0.74825">
        <ele>64.890138</ele>
        <time>2023-05-08T14:28:02.621Z</time>
      </trkpt>
      <trkpt lat="47.3598" lon="-0.74827">
        <ele>64.933158</ele>
        <time>2023-05-08T14:28:05.609Z</time>
      </trkpt>
      <trkpt lat="47.35989" lon="-0.74827">
        <ele>64.971582</ele>
        <time>2023-05-08T14:28:08.610Z</time>
      </trkpt>
      <trkpt lat="47.36001" lon="-0.74823">
        <ele>65.021585</ele>
        <time>2023-05-08T14:28:12.625Z</time>
      </trkpt>
      <trkpt lat="47.3601" lon="-0.74819">
        <ele>65.062226</ele>
        <time>2023-05-08T14:28:15.619Z</time>
      </trkpt>
      <trkpt lat="47.36021" lon="-0.74813">
        <ele>65.111043</ele>
        <time>2023-05-08T14:28:19.619Z</time>
      </trkpt>
      <trkpt lat="47.36032" lon="-0.74807">
        <ele>65.158116</ele>
        <time>2023-05-08T14:28:23.617Z</time>
      </trkpt>
      <trkpt lat="47.36044" lon="-0.74802">
        <ele>65.2081</ele>
        <time>2023-05-08T14:28:27.611Z</time>
      </trkpt>
      <trkpt lat="47.36054" lon="-0.74802">
        <ele>65.309264</ele>
        <time>2023-05-08T14:28:31.618Z</time>
      </trkpt>
      <trkpt lat="47.36062" lon="-0.74813">
        <ele>65.508453</ele>
        <time>2023-05-08T14:28:36.615Z</time>
      </trkpt>
      <trkpt lat="47.36064" lon="-0.74828">
        <ele>65.699862</ele>
        <time>2023-05-08T14:28:40.621Z</time>
      </trkpt>
      <trkpt lat="47.36064" lon="-0.74842">
        <ele>65.869616</ele>
        <time>2023-05-08T14:28:44.605Z</time>
      </trkpt>
      <trkpt lat="47.36066" lon="-0.74859">
        <ele>66.086219</ele>
        <time>2023-05-08T14:28:49.631Z</time>
      </trkpt>
      <trkpt lat="47.36067" lon="-0.74874">
        <ele>66.268411</ele>
        <time>2023-05-08T14:28:52.620Z</time>
      </trkpt>
      <trkpt lat="47.36069" lon="-0.74888">
        <ele>66.436844</ele>
        <time>2023-05-08T14:28:55.613Z</time>
      </trkpt>
      <trkpt lat="47.3607" lon="-0.74901">
        <ele>66.600941</ele>
        <time>2023-05-08T14:28:58.615Z</time>
      </trkpt>
      <trkpt lat="47.36072" lon="-0.74915">
        <ele>66.77453</ele>
        <time>2023-05-08T14:29:01.616Z</time>
      </trkpt>
      <trkpt lat="47.36073" lon="-0.7493">
        <ele>66.959401</ele>
        <time>2023-05-08T14:29:04.617Z</time>
      </trkpt>
      <trkpt lat="47.36073" lon="-0.74945">
        <ele>67.151258</ele>
        <time>2023-05-08T14:29:07.632Z</time>
      </trkpt>
      <trkpt lat="47.36073" lon="-0.74961">
        <ele>67.340529</ele>
        <time>2023-05-08T14:29:10.619Z</time>
      </trkpt>
      <trkpt lat="47.36073" lon="-0.74976">
        <ele>67.528562</ele>
        <time>2023-05-08T14:29:13.628Z</time>
      </trkpt>
      <trkpt lat="47.36073" lon="-0.7499">
        <ele>67.699736</ele>
        <time>2023-05-08T14:29:16.616Z</time>
      </trkpt>
      <trkpt lat="47.36073" lon="-0.75007">
        <ele>67.906714</ele>
        <time>2023-05-08T14:29:20.618Z</time>
      </trkpt>
      <trkpt lat="47.36075" lon="-0.75021">
        <ele>68.087012</ele>
        <time>2023-05-08T14:29:23.621Z</time>
      </trkpt>
      <trkpt lat="47.36078" lon="-0.75037">
        <ele>68.288192</ele>
        <time>2023-05-08T14:29:26.614Z</time>
      </trkpt>
      <trkpt lat="47.36081" lon="-0.75054">
        <ele>68.499712</ele>
        <time>2023-05-08T14:29:29.620Z</time>
      </trkpt>
      <trkpt lat="47.36083" lon="-0.75069">
        <ele>68.566973</ele>
        <time>2023-05-08T14:29:32.620Z</time>
      </trkpt>
      <trkpt lat="47.36086" lon="-0.75082">
        <ele>68.629868</ele>
        <time>2023-05-08T14:29:35.618Z</time>
      </trkpt>
      <trkpt lat="47.36089" lon="-0.75096">
        <ele>68.699254</ele>
        <time>2023-05-08T14:29:38.620Z</time>
      </trkpt>
      <trkpt lat="47.36092" lon="-0.75111">
        <ele>68.770312</ele>
        <time>2023-05-08T14:29:41.616Z</time>
      </trkpt>
      <trkpt lat="47.36093" lon="-0.75126">
        <ele>68.841642</ele>
        <time>2023-05-08T14:29:44.615Z</time>
      </trkpt>
      <trkpt lat="47.36095" lon="-0.75142">
        <ele>68.914543</ele>
        <time>2023-05-08T14:29:47.619Z</time>
      </trkpt>
      <trkpt lat="47.36097" lon="-0.75157">
        <ele>68.984362</ele>
        <time>2023-05-08T14:29:50.621Z</time>
      </trkpt>
      <trkpt lat="47.36101" lon="-0.75171">
        <ele>69.054263</ele>
        <time>2023-05-08T14:29:53.621Z</time>
      </trkpt>
      <trkpt lat="47.36106" lon="-0.75186">
        <ele>69.127841</ele>
        <time>2023-05-08T14:29:56.612Z</time>
      </trkpt>
      <trkpt lat="47.3611" lon="-0.75201">
        <ele>69.203091</ele>
        <time>2023-05-08T14:29:59.612Z</time>
      </trkpt>
      <trkpt lat="47.36115" lon="-0.75217">
        <ele>69.283348</ele>
        <time>2023-05-08T14:30:02.624Z</time>
      </trkpt>
      <trkpt lat="47.36121" lon="-0.75233">
        <ele>69.366519</ele>
        <time>2023-05-08T14:30:05.619Z</time>
      </trkpt>
      <trkpt lat="47.36127" lon="-0.75247">
        <ele>69.442043</ele>
        <time>2023-05-08T14:30:08.618Z</time>
      </trkpt>
      <trkpt lat="47.36132" lon="-0.75259">
        <ele>69.508381</ele>
        <time>2023-05-08T14:30:11.613Z</time>
      </trkpt>
      <trkpt lat="47.36138" lon="-0.75272">
        <ele>69.577809</ele>
        <time>2023-05-08T14:30:14.620Z</time>
      </trkpt>
      <trkpt lat="47.36143" lon="-0.75286">
        <ele>69.651458</ele>
        <time>2023-05-08T14:30:17.627Z</time>
      </trkpt>
      <trkpt lat="47.3615" lon="-0.75299">
        <ele>69.689924</ele>
        <time>2023-05-08T14:30:20.629Z</time>
      </trkpt>
      <trkpt lat="47.36156" lon="-0.75314">
        <ele>69.589479</ele>
        <time>2023-05-08T14:30:23.622Z</time>
      </trkpt>
      <trkpt lat="47.36161" lon="-0.75328">
        <ele>69.489563</ele>
        <time>2023-05-08T14:30:26.623Z</time>
      </trkpt>
      <trkpt lat="47.36167" lon="-0.75344">
        <ele>69.388498</ele>
        <time>2023-05-08T14:30:29.618Z</time>
      </trkpt>
      <trkpt lat="47.36173" lon="-0.75358">
        <ele>69.287492</ele>
        <time>2023-05-08T14:30:32.630Z</time>
      </trkpt>
      <trkpt lat="47.36178" lon="-0.75372">
        <ele>69.196187</ele>
        <time>2023-05-08T14:30:35.619Z</time>
      </trkpt>
      <trkpt lat="47.36183" lon="-0.75384">
        <ele>69.112424</ele>
        <time>2023-05-08T14:30:38.625Z</time>
      </trkpt>
      <trkpt lat="47.36187" lon="-0.75397">
        <ele>69.027542</ele>
        <time>2023-05-08T14:30:41.615Z</time>
      </trkpt>
      <trkpt lat="47.36191" lon="-0.75411">
        <ele>68.939158</ele>
        <time>2023-05-08T14:30:44.628Z</time>
      </trkpt>
      <trkpt lat="47.36194" lon="-0.75426">
        <ele>68.847941</ele>
        <time>2023-05-08T14:30:47.635Z</time>
      </trkpt>
      <trkpt lat="47.36196" lon="-0.75441">
        <ele>68.754893</ele>
        <time>2023-05-08T14:30:50.620Z</time>
      </trkpt>
      <trkpt lat="47.362" lon="-0.75456">
        <ele>68.662853</ele>
        <time>2023-05-08T14:30:53.624Z</time>
      </trkpt>
      <trkpt lat="47.36203" lon="-0.75471">
        <ele>68.57192</ele>
        <time>2023-05-08T14:30:56.617Z</time>
      </trkpt>
      <trkpt lat="47.36207" lon="-0.75486">
        <ele>68.47645</ele>
        <time>2023-05-08T14:30:59.620Z</time>
      </trkpt>
      <trkpt lat="47.36211" lon="-0.75501">
        <ele>68.379389</ele>
        <time>2023-05-08T14:31:02.628Z</time>
      </trkpt>
      <trkpt lat="47.36214" lon="-0.75517">
        <ele>68.284282</ele>
        <time>2023-05-08T14:31:05.619Z</time>
      </trkpt>
      <trkpt lat="47.36218" lon="-0.7553">
        <ele>68.197657</ele>
        <time>2023-05-08T14:31:08.620Z</time>
      </trkpt>
      <trkpt lat="47.36221" lon="-0.75546">
        <ele>68.002429</ele>
        <time>2023-05-08T14:31:12.626Z</time>
      </trkpt>
      <trkpt lat="47.36225" lon="-0.75559">
        <ele>67.754769</ele>
        <time>2023-05-08T14:31:15.620Z</time>
      </trkpt>
      <trkpt lat="47.36229" lon="-0.75573">
        <ele>67.500776</ele>
        <time>2023-05-08T14:31:18.622Z</time>
      </trkpt>
      <trkpt lat="47.36232" lon="-0.75588">
        <ele>67.235129</ele>
        <time>2023-05-08T14:31:21.616Z</time>
      </trkpt>
      <trkpt lat="47.36236" lon="-0.75601">
        <ele>66.985752</ele>
        <time>2023-05-08T14:31:24.618Z</time>
      </trkpt>
      <trkpt lat="47.36239" lon="-0.75614">
        <ele>66.748246</ele>
        <time>2023-05-08T14:31:27.626Z</time>
      </trkpt>
      <trkpt lat="47.36242" lon="-0.75627">
        <ele>66.510848</ele>
        <time>2023-05-08T14:31:30.624Z</time>
      </trkpt>
      <trkpt lat="47.36245" lon="-0.75641">
        <ele>66.253417</ele>
        <time>2023-05-08T14:31:33.621Z</time>
      </trkpt>
      <trkpt lat="47.36249" lon="-0.75656">
        <ele>65.974122</ele>
        <time>2023-05-08T14:31:36.615Z</time>
      </trkpt>
      <trkpt lat="47.36253" lon="-0.7567">
        <ele>65.701586</ele>
        <time>2023-05-08T14:31:39.621Z</time>
      </trkpt>
      <trkpt lat="47.36256" lon="-0.75685">
        <ele>65.438717</ele>
        <time>2023-05-08T14:31:42.625Z</time>
      </trkpt>
      <trkpt lat="47.3626" lon="-0.75697">
        <ele>65.202651</ele>
        <time>2023-05-08T14:31:45.625Z</time>
      </trkpt>
      <trkpt lat="47.36265" lon="-0.75709">
        <ele>64.964167</ele>
        <time>2023-05-08T14:31:49.622Z</time>
      </trkpt>
      <trkpt lat="47.36274" lon="-0.7571">
        <ele>64.72526</ele>
        <time>2023-05-08T14:31:55.619Z</time>
      </trkpt>
      <trkpt lat="47.36283" lon="-0.75702">
        <ele>64.45625</ele>
        <time>2023-05-08T14:32:02.618Z</time>
      </trkpt>
      <trkpt lat="47.36294" lon="-0.75696">
        <ele>64.157755</ele>
        <time>2023-05-08T14:32:06.616Z</time>
      </trkpt>
      <trkpt lat="47.36306" lon="-0.75688">
        <ele>63.837209</ele>
        <time>2023-05-08T14:32:09.620Z</time>
      </trkpt>
      <trkpt lat="47.36316" lon="-0.75682">
        <ele>63.554378</ele>
        <time>2023-05-08T14:32:12.626Z</time>
      </trkpt>
      <trkpt lat="47.36325" lon="-0.75679">
        <ele>63.520197</ele>
        <time>2023-05-08T14:32:15.624Z</time>
      </trkpt>
      <trkpt lat="47.36334" lon="-0.75687">
        <ele>63.495328</ele>
        <time>2023-05-08T14:32:20.618Z</time>
      </trkpt>
      <trkpt lat="47.36341" lon="-0.757">
        <ele>63.468353</ele>
        <time>2023-05-08T14:32:33.618Z</time>
      </trkpt>
      <trkpt lat="47.36343" lon="-0.75714">
        <ele>63.445331</ele>
        <time>2023-05-08T14:32:43.616Z</time>
      </trkpt>
      <trkpt lat="47.36337" lon="-0.75726">
        <ele>63.421036</ele>
        <time>2023-05-08T14:32:47.628Z</time>
      </trkpt>
      <trkpt lat="47.36333" lon="-0.75741">
        <ele>63.394346</ele>
        <time>2023-05-08T14:32:52.633Z</time>
      </trkpt>
      <trkpt lat="47.3633" lon="-0.75756">
        <ele>63.36843</ele>
        <time>2023-05-08T14:32:57.605Z</time>
      </trkpt>
      <trkpt lat="47.36324" lon="-0.75768">
        <ele>63.342678</ele>
        <time>2023-05-08T14:33:02.629Z</time>
      </trkpt>
      <trkpt lat="47.36315" lon="-0.75775">
        <ele>63.319413</ele>
        <time>2023-05-08T14:33:06.614Z</time>
      </trkpt>
      <trkpt lat="47.36305" lon="-0.75779">
        <ele>63.294524</ele>
        <time>2023-05-08T14:33:10.619Z</time>
      </trkpt>
      <trkpt lat="47.36293" lon="-0.75782">
        <ele>63.265552</ele>
        <time>2023-05-08T14:33:14.616Z</time>
      </trkpt>
      <trkpt lat="47.36283" lon="-0.75786">
        <ele>63.24136</ele>
        <time>2023-05-08T14:33:18.617Z</time>
      </trkpt>
      <trkpt lat="47.36276" lon="-0.75775">
        <ele>63.216549</ele>
        <time>2023-05-08T14:34:02.616Z</time>
      </trkpt>
      <trkpt lat="47.36272" lon="-0.7576">
        <ele>63.190292</ele>
        <time>2023-05-08T14:34:06.619Z</time>
      </trkpt>
      <trkpt lat="47.36268" lon="-0.75748">
        <ele>63.16786</ele>
        <time>2023-05-08T14:34:10.620Z</time>
      </trkpt>
      <trkpt lat="47.36843" lon="-0.74302">
        <ele>66.3399</ele>
        <time>2023-05-08T14:59:52.614Z</time>
      </trkpt>
      <trkpt lat="47.36846" lon="-0.74285">
        <ele>66.329746</ele>
        <time>2023-05-08T14:59:56.602Z</time>
      </trkpt>
      <trkpt lat="47.36847" lon="-0.7427">
        <ele>66.32085</ele>
        <time>2023-05-08T14:59:59.610Z</time>
      </trkpt>
      <trkpt lat="47.36845" lon="-0.74254">
        <ele>66.311198</ele>
        <time>2023-05-08T15:00:02.615Z</time>
      </trkpt>
      <trkpt lat="47.36841" lon="-0.74237">
        <ele>66.300509</ele>
        <time>2023-05-08T15:00:05.617Z</time>
      </trkpt>
      <trkpt lat="47.36835" lon="-0.74221">
        <ele>66.289927</ele>
        <time>2023-05-08T15:00:08.621Z</time>
      </trkpt>
      <trkpt lat="47.36829" lon="-0.74206">
        <ele>66.279404</ele>
        <time>2023-05-08T15:00:11.618Z</time>
      </trkpt>
      <trkpt lat="47.36824" lon="-0.7419">
        <ele>66.269004</ele>
        <time>2023-05-08T15:00:14.616Z</time>
      </trkpt>
      <trkpt lat="47.3682" lon="-0.74175">
        <ele>66.259204</ele>
        <time>2023-05-08T15:00:17.616Z</time>
      </trkpt>
      <trkpt lat="47.36814" lon="-0.7416">
        <ele>66.249406</ele>
        <time>2023-05-08T15:00:20.619Z</time>
      </trkpt>
      <trkpt lat="47.36808" lon="-0.74143">
        <ele>66.23824</ele>
        <time>2023-05-08T15:00:23.619Z</time>
      </trkpt>
      <trkpt lat="47.36802" lon="-0.74129">
        <ele>66.228203</ele>
        <time>2023-05-08T15:00:26.612Z</time>
      </trkpt>
      <trkpt lat="47.36797" lon="-0.74113">
        <ele>66.218053</ele>
        <time>2023-05-08T15:00:29.619Z</time>
      </trkpt>
      <trkpt lat="47.36793" lon="-0.74099">
        <ele>66.22151</ele>
        <time>2023-05-08T15:00:32.620Z</time>
      </trkpt>
      <trkpt lat="47.36789" lon="-0.74086">
        <ele>66.262467</ele>
        <time>2023-05-08T15:00:35.617Z</time>
      </trkpt>
      <trkpt lat="47.36785" lon="-0.74071">
        <ele>66.304853</ele>
        <time>2023-05-08T15:00:38.617Z</time>
      </trkpt>
      <trkpt lat="47.36782" lon="-0.74057">
        <ele>66.347945</ele>
        <time>2023-05-08T15:00:41.617Z</time>
      </trkpt>
      <trkpt lat="47.36778" lon="-0.7404">
        <ele>66.398245</ele>
        <time>2023-05-08T15:00:44.620Z</time>
      </trkpt>
      <trkpt lat="47.36774" lon="-0.74023">
        <ele>66.448449</ele>
        <time>2023-05-08T15:00:47.629Z</time>
      </trkpt>
      <trkpt lat="47.36771" lon="-0.74005">
        <ele>66.500883</ele>
        <time>2023-05-08T15:00:50.623Z</time>
      </trkpt>
      <trkpt lat="47.36768" lon="-0.73987">
        <ele>66.55452</ele>
        <time>2023-05-08T15:00:53.609Z</time>
      </trkpt>
      <trkpt lat="47.36764" lon="-0.73969">
        <ele>66.607776</ele>
        <time>2023-05-08T15:00:56.619Z</time>
      </trkpt>
      <trkpt lat="47.36761" lon="-0.73952">
        <ele>66.657053</ele>
        <time>2023-05-08T15:00:59.620Z</time>
      </trkpt>
      <trkpt lat="47.36759" lon="-0.73937">
        <ele>66.701906</ele>
        <time>2023-05-08T15:01:02.617Z</time>
      </trkpt>
      <trkpt lat="47.36756" lon="-0.73923">
        <ele>66.742913</ele>
        <time>2023-05-08T15:01:05.614Z</time>
      </trkpt>
      <trkpt lat="47.36753" lon="-0.73909">
        <ele>66.785463</ele>
        <time>2023-05-08T15:01:08.618Z</time>
      </trkpt>
      <trkpt lat="47.3675" lon="-0.73893">
        <ele>66.832151</ele>
        <time>2023-05-08T15:01:11.618Z</time>
      </trkpt>
      <trkpt lat="47.36746" lon="-0.73876">
        <ele>66.880921</ele>
        <time>2023-05-08T15:01:14.617Z</time>
      </trkpt>
      <trkpt lat="47.36743" lon="-0.73859">
        <ele>66.931495</ele>
        <time>2023-05-08T15:01:17.610Z</time>
      </trkpt>
      <trkpt lat="47.36739" lon="-0.73842">
        <ele>66.960664</ele>
        <time>2023-05-08T15:01:20.622Z</time>
      </trkpt>
      <trkpt lat="47.36736" lon="-0.73824">
        <ele>66.954547</ele>
        <time>2023-05-08T15:01:23.611Z</time>
      </trkpt>
      <trkpt lat="47.36732" lon="-0.73807">
        <ele>66.948369</ele>
        <time>2023-05-08T15:01:26.622Z</time>
      </trkpt>
      <trkpt lat="47.36729" lon="-0.7379">
        <ele>66.942434</ele>
        <time>2023-05-08T15:01:29.605Z</time>
      </trkpt>
      <trkpt lat="47.36726" lon="-0.73773">
        <ele>66.936557</ele>
        <time>2023-05-08T15:01:32.620Z</time>
      </trkpt>
      <trkpt lat="47.36723" lon="-0.73756">
        <ele>66.930577</ele>
        <time>2023-05-08T15:01:35.625Z</time>
      </trkpt>
      <trkpt lat="47.3672" lon="-0.73738">
        <ele>66.924551</ele>
        <time>2023-05-08T15:01:38.623Z</time>
      </trkpt>
      <trkpt lat="47.36716" lon="-0.73722">
        <ele>66.918641</ele>
        <time>2023-05-08T15:01:41.617Z</time>
      </trkpt>
      <trkpt lat="47.36714" lon="-0.73705">
        <ele>66.912851</ele>
        <time>2023-05-08T15:01:44.617Z</time>
      </trkpt>
      <trkpt lat="47.36711" lon="-0.73689">
        <ele>66.907259</ele>
        <time>2023-05-08T15:01:47.618Z</time>
      </trkpt>
      <trkpt lat="47.36708" lon="-0.73673">
        <ele>66.901928</ele>
        <time>2023-05-08T15:01:50.620Z</time>
      </trkpt>
      <trkpt lat="47.36706" lon="-0.73659">
        <ele>66.897023</ele>
        <time>2023-05-08T15:01:53.614Z</time>
      </trkpt>
      <trkpt lat="47.36703" lon="-0.73646">
        <ele>66.892293</ele>
        <time>2023-05-08T15:01:56.617Z</time>
      </trkpt>
      <trkpt lat="47.367" lon="-0.73632">
        <ele>66.887312</ele>
        <time>2023-05-08T15:01:59.620Z</time>
      </trkpt>
      <trkpt lat="47.36697" lon="-0.73617">
        <ele>66.882065</ele>
        <time>2023-05-08T15:02:02.616Z</time>
      </trkpt>
      <trkpt lat="47.36694" lon="-0.73601">
        <ele>66.876552</ele>
        <time>2023-05-08T15:02:05.615Z</time>
      </trkpt>
      <trkpt lat="47.36691" lon="-0.73585">
        <ele>66.877813</ele>
        <time>2023-05-08T15:02:08.611Z</time>
      </trkpt>
      <trkpt lat="47.36687" lon="-0.73569">
        <ele>66.885676</ele>
        <time>2023-05-08T15:02:11.619Z</time>
      </trkpt>
      <trkpt lat="47.36683" lon="-0.73552">
        <ele>66.893779</ele>
        <time>2023-05-08T15:02:14.614Z</time>
      </trkpt>
      <trkpt lat="47.36679" lon="-0.73535">
        <ele>66.902232</ele>
        <time>2023-05-08T15:02:17.619Z</time>
      </trkpt>
      <trkpt lat="47.36675" lon="-0.73518">
        <ele>66.910819</ele>
        <time>2023-05-08T15:02:20.616Z</time>
      </trkpt>
      <trkpt lat="47.36671" lon="-0.735">
        <ele>66.919583</ele>
        <time>2023-05-08T15:02:23.626Z</time>
      </trkpt>
      <trkpt lat="47.36667" lon="-0.73482">
        <ele>66.927993</ele>
        <time>2023-05-08T15:02:26.617Z</time>
      </trkpt>
      <trkpt lat="47.36663" lon="-0.73467">
        <ele>66.935538</ele>
        <time>2023-05-08T15:02:29.622Z</time>
      </trkpt>
      <trkpt lat="47.36659" lon="-0.73454">
        <ele>66.942516</ele>
        <time>2023-05-08T15:02:32.660Z</time>
      </trkpt>
      <trkpt lat="47.36655" lon="-0.73439">
        <ele>66.949833</ele>
        <time>2023-05-08T15:02:35.612Z</time>
      </trkpt>
      <trkpt lat="47.3665" lon="-0.73424">
        <ele>66.957586</ele>
        <time>2023-05-08T15:02:38.618Z</time>
      </trkpt>
      <trkpt lat="47.36644" lon="-0.73409">
        <ele>66.96573</ele>
        <time>2023-05-08T15:02:41.619Z</time>
      </trkpt>
      <trkpt lat="47.36639" lon="-0.73392">
        <ele>66.974279</ele>
        <time>2023-05-08T15:02:44.615Z</time>
      </trkpt>
      <trkpt lat="47.36633" lon="-0.73375">
        <ele>66.98318</ele>
        <time>2023-05-08T15:02:47.615Z</time>
      </trkpt>
      <trkpt lat="47.36627" lon="-0.73359">
        <ele>66.991781</ele>
        <time>2023-05-08T15:02:50.618Z</time>
      </trkpt>
      <trkpt lat="47.36621" lon="-0.73342">
        <ele>66.988566</ele>
        <time>2023-05-08T15:02:53.626Z</time>
      </trkpt>
      <trkpt lat="47.36615" lon="-0.73325">
        <ele>66.965326</ele>
        <time>2023-05-08T15:02:56.617Z</time>
      </trkpt>
      <trkpt lat="47.36609" lon="-0.73308">
        <ele>66.942651</ele>
        <time>2023-05-08T15:02:59.621Z</time>
      </trkpt>
      <trkpt lat="47.36603" lon="-0.73292">
        <ele>66.919986</ele>
        <time>2023-05-08T15:03:02.610Z</time>
      </trkpt>
      <trkpt lat="47.36596" lon="-0.73276">
        <ele>66.897593</ele>
        <time>2023-05-08T15:03:05.620Z</time>
      </trkpt>
      <trkpt lat="47.3659" lon="-0.73262">
        <ele>66.877077</ele>
        <time>2023-05-08T15:03:08.619Z</time>
      </trkpt>
      <trkpt lat="47.36586" lon="-0.73247">
        <ele>66.857379</ele>
        <time>2023-05-08T15:03:11.617Z</time>
      </trkpt>
      <trkpt lat="47.36581" lon="-0.73232">
        <ele>66.838255</ele>
        <time>2023-05-08T15:03:14.618Z</time>
      </trkpt>
      <trkpt lat="47.36578" lon="-0.73217">
        <ele>66.818302</ele>
        <time>2023-05-08T15:03:17.619Z</time>
      </trkpt>
      <trkpt lat="47.36575" lon="-0.73199">
        <ele>66.7961</ele>
        <time>2023-05-08T15:03:20.615Z</time>
      </trkpt>
      <trkpt lat="47.36571" lon="-0.73181">
        <ele>66.773354</ele>
        <time>2023-05-08T15:03:23.611Z</time>
      </trkpt>
      <trkpt lat="47.36565" lon="-0.73164">
        <ele>66.750954</ele>
        <time>2023-05-08T15:03:26.630Z</time>
      </trkpt>
      <trkpt lat="47.36559" lon="-0.73148">
        <ele>66.728587</ele>
        <time>2023-05-08T15:03:29.614Z</time>
      </trkpt>
      <trkpt lat="47.36553" lon="-0.73131">
        <ele>66.70569</ele>
        <time>2023-05-08T15:03:32.617Z</time>
      </trkpt>
      <trkpt lat="47.36546" lon="-0.73116">
        <ele>66.683504</ele>
        <time>2023-05-08T15:03:35.620Z</time>
      </trkpt>
      <trkpt lat="47.3654" lon="-0.73101">
        <ele>66.647069</ele>
        <time>2023-05-08T15:03:38.615Z</time>
      </trkpt>
      <trkpt lat="47.36532" lon="-0.73088">
        <ele>66.604859</ele>
        <time>2023-05-08T15:03:41.616Z</time>
      </trkpt>
      <trkpt lat="47.36526" lon="-0.73073">
        <ele>66.56089</ele>
        <time>2023-05-08T15:03:44.615Z</time>
      </trkpt>
      <trkpt lat="47.36521" lon="-0.73055">
        <ele>66.513329</ele>
        <time>2023-05-08T15:03:47.620Z</time>
      </trkpt>
      <trkpt lat="47.36518" lon="-0.73036">
        <ele>66.465555</ele>
        <time>2023-05-08T15:03:50.598Z</time>
      </trkpt>
      <trkpt lat="47.36516" lon="-0.73017">
        <ele>66.417855</ele>
        <time>2023-05-08T15:03:53.627Z</time>
      </trkpt>
      <trkpt lat="47.36512" lon="-0.72998">
        <ele>66.370586</ele>
        <time>2023-05-08T15:03:56.615Z</time>
      </trkpt>
      <trkpt lat="47.36507" lon="-0.72982">
        <ele>66.325332</ele>
        <time>2023-05-08T15:03:59.623Z</time>
      </trkpt>
      <trkpt lat="47.36501" lon="-0.72967">
        <ele>66.282489</ele>
        <time>2023-05-08T15:04:02.619Z</time>
      </trkpt>
      <trkpt lat="47.36496" lon="-0.72953">
        <ele>66.244532</ele>
        <time>2023-05-08T15:04:05.625Z</time>
      </trkpt>
      <trkpt lat="47.36491" lon="-0.72941">
        <ele>66.209889</ele>
        <time>2023-05-08T15:04:08.621Z</time>
      </trkpt>
      <trkpt lat="47.36485" lon="-0.72926">
        <ele>66.167465</ele>
        <time>2023-05-08T15:04:12.611Z</time>
      </trkpt>
      <trkpt lat="47.36481" lon="-0.72914">
        <ele>66.133402</ele>
        <time>2023-05-08T15:04:15.619Z</time>
      </trkpt>
      <trkpt lat="47.36476" lon="-0.72902">
        <ele>66.097528</ele>
        <time>2023-05-08T15:04:18.611Z</time>
      </trkpt>
      <trkpt lat="47.3647" lon="-0.72889">
        <ele>66.060029</ele>
        <time>2023-05-08T15:04:21.647Z</time>
      </trkpt>
      <trkpt lat="47.36464" lon="-0.72875">
        <ele>66.030179</ele>
        <time>2023-05-08T15:04:24.615Z</time>
      </trkpt>
      <trkpt lat="47.36458" lon="-0.7286">
        <ele>66.123582</ele>
        <time>2023-05-08T15:04:27.613Z</time>
      </trkpt>
      <trkpt lat="47.36452" lon="-0.72845">
        <ele>66.214343</ele>
        <time>2023-05-08T15:04:30.619Z</time>
      </trkpt>
      <trkpt lat="47.36446" lon="-0.7283">
        <ele>66.308403</ele>
        <time>2023-05-08T15:04:33.620Z</time>
      </trkpt>
      <trkpt lat="47.36439" lon="-0.72813">
        <ele>66.406594</ele>
        <time>2023-05-08T15:04:36.618Z</time>
      </trkpt>
      <trkpt lat="47.36432" lon="-0.72798">
        <ele>66.504664</ele>
        <time>2023-05-08T15:04:39.619Z</time>
      </trkpt>
      <trkpt lat="47.36426" lon="-0.72783">
        <ele>66.598357</ele>
        <time>2023-05-08T15:04:42.615Z</time>
      </trkpt>
      <trkpt lat="47.36419" lon="-0.72767">
        <ele>66.695527</ele>
        <time>2023-05-08T15:04:45.616Z</time>
      </trkpt>
      <trkpt lat="47.36411" lon="-0.72753">
        <ele>66.790586</ele>
        <time>2023-05-08T15:04:48.620Z</time>
      </trkpt>
      <trkpt lat="47.36403" lon="-0.72739">
        <ele>66.891341</ele>
        <time>2023-05-08T15:04:51.617Z</time>
      </trkpt>
      <trkpt lat="47.36397" lon="-0.72728">
        <ele>66.962246</ele>
        <time>2023-05-08T15:04:53.616Z</time>
      </trkpt>
      <trkpt lat="47.36389" lon="-0.72711">
        <ele>67.070257</ele>
        <time>2023-05-08T15:04:56.612Z</time>
      </trkpt>
      <trkpt lat="47.36383" lon="-0.72693">
        <ele>67.175232</ele>
        <time>2023-05-08T15:04:59.615Z</time>
      </trkpt>
      <trkpt lat="47.36381" lon="-0.7268">
        <ele>67.246777</ele>
        <time>2023-05-08T15:05:01.615Z</time>
      </trkpt>
      <trkpt lat="47.3638" lon="-0.72665">
        <ele>67.322992</ele>
        <time>2023-05-08T15:05:03.615Z</time>
      </trkpt>
      <trkpt lat="47.36382" lon="-0.72652">
        <ele>67.394208</ele>
        <time>2023-05-08T15:05:05.621Z</time>
      </trkpt>
      <trkpt lat="47.36386" lon="-0.72634">
        <ele>67.326206</ele>
        <time>2023-05-08T15:05:08.617Z</time>
      </trkpt>
      <trkpt lat="47.36391" lon="-0.72618">
        <ele>67.224461</ele>
        <time>2023-05-08T15:05:11.613Z</time>
      </trkpt>
      <trkpt lat="47.36395" lon="-0.72603">
        <ele>67.128204</ele>
        <time>2023-05-08T15:05:14.614Z</time>
      </trkpt>
      <trkpt lat="47.364" lon="-0.72587">
        <ele>67.024186</ele>
        <time>2023-05-08T15:05:17.621Z</time>
      </trkpt>
      <trkpt lat="47.36405" lon="-0.72569">
        <ele>66.913568</ele>
        <time>2023-05-08T15:05:20.616Z</time>
      </trkpt>
      <trkpt lat="47.3641" lon="-0.72552">
        <ele>66.800727</ele>
        <time>2023-05-08T15:05:23.611Z</time>
      </trkpt>
      <trkpt lat="47.36414" lon="-0.72534">
        <ele>66.695034</ele>
        <time>2023-05-08T15:05:26.613Z</time>
      </trkpt>
      <trkpt lat="47.36417" lon="-0.72522">
        <ele>66.615149</ele>
        <time>2023-05-08T15:05:28.615Z</time>
      </trkpt>
      <trkpt lat="47.36421" lon="-0.72509">
        <ele>66.533957</ele>
        <time>2023-05-08T15:05:30.618Z</time>
      </trkpt>
      <trkpt lat="47.36424" lon="-0.72496">
        <ele>66.453435</ele>
        <time>2023-05-08T15:05:32.618Z</time>
      </trkpt>
      <trkpt lat="47.3643" lon="-0.72479">
        <ele>66.340135</ele>
        <time>2023-05-08T15:05:35.617Z</time>
      </trkpt>
      <trkpt lat="47.36435" lon="-0.72462">
        <ele>66.230926</ele>
        <time>2023-05-08T15:05:38.619Z</time>
      </trkpt>
      <trkpt lat="47.36438" lon="-0.72445">
        <ele>66.125135</ele>
        <time>2023-05-08T15:05:41.619Z</time>
      </trkpt>
      <trkpt lat="47.36442" lon="-0.7243">
        <ele>66.032098</ele>
        <time>2023-05-08T15:05:44.617Z</time>
      </trkpt>
      <trkpt lat="47.36445" lon="-0.72416">
        <ele>65.947123</ele>
        <time>2023-05-08T15:05:47.616Z</time>
      </trkpt>
      <trkpt lat="47.36448" lon="-0.72402">
        <ele>65.860904</ele>
        <time>2023-05-08T15:05:50.617Z</time>
      </trkpt>
      <trkpt lat="47.3645" lon="-0.72386">
        <ele>65.779594</ele>
        <time>2023-05-08T15:05:53.616Z</time>
      </trkpt>
      <trkpt lat="47.36453" lon="-0.72369">
        <ele>65.692905</ele>
        <time>2023-05-08T15:05:56.609Z</time>
      </trkpt>
      <trkpt lat="47.36456" lon="-0.72352">
        <ele>65.601955</ele>
        <time>2023-05-08T15:05:59.602Z</time>
      </trkpt>
      <trkpt lat="47.36458" lon="-0.72333">
        <ele>65.509267</ele>
        <time>2023-05-08T15:06:02.620Z</time>
      </trkpt>
      <trkpt lat="47.36459" lon="-0.72314">
        <ele>65.413718</ele>
        <time>2023-05-08T15:06:05.611Z</time>
      </trkpt>
      <trkpt lat="47.36459" lon="-0.72301">
        <ele>65.347651</ele>
        <time>2023-05-08T15:06:07.618Z</time>
      </trkpt>
      <trkpt lat="47.36459" lon="-0.72281">
        <ele>65.250333</ele>
        <time>2023-05-08T15:06:10.619Z</time>
      </trkpt>
      <trkpt lat="47.36459" lon="-0.72262">
        <ele>65.15643</ele>
        <time>2023-05-08T15:06:13.618Z</time>
      </trkpt>
      <trkpt lat="47.36458" lon="-0.72245">
        <ele>65.069967</ele>
        <time>2023-05-08T15:06:16.616Z</time>
      </trkpt>
      <trkpt lat="47.36458" lon="-0.72229">
        <ele>64.992844</ele>
        <time>2023-05-08T15:06:19.611Z</time>
      </trkpt>
      <trkpt lat="47.36456" lon="-0.72213">
        <ele>64.910583</ele>
        <time>2023-05-08T15:06:22.630Z</time>
      </trkpt>
      <trkpt lat="47.36454" lon="-0.72196">
        <ele>64.82403</ele>
        <time>2023-05-08T15:06:25.605Z</time>
      </trkpt>
      <trkpt lat="47.36452" lon="-0.72177">
        <ele>64.732818</ele>
        <time>2023-05-08T15:06:28.618Z</time>
      </trkpt>
      <trkpt lat="47.36449" lon="-0.72159">
        <ele>64.637213</ele>
        <time>2023-05-08T15:06:31.627Z</time>
      </trkpt>
      <trkpt lat="47.36447" lon="-0.7214">
        <ele>64.541517</ele>
        <time>2023-05-08T15:06:34.615Z</time>
      </trkpt>
      <trkpt lat="47.36445" lon="-0.7212">
        <ele>64.544244</ele>
        <time>2023-05-08T15:06:37.619Z</time>
      </trkpt>
      <trkpt lat="47.36443" lon="-0.72101">
        <ele>64.552347</ele>
        <time>2023-05-08T15:06:40.618Z</time>
      </trkpt>
      <trkpt lat="47.36441" lon="-0.72088">
        <ele>64.557852</ele>
        <time>2023-05-08T15:06:42.614Z</time>
      </trkpt>
      <trkpt lat="47.3644" lon="-0.72068">
        <ele>64.565947</ele>
        <time>2023-05-08T15:06:45.615Z</time>
      </trkpt>
      <trkpt lat="47.36438" lon="-0.72055">
        <ele>64.571501</ele>
        <time>2023-05-08T15:06:47.626Z</time>
      </trkpt>
      <trkpt lat="47.36437" lon="-0.72037">
        <ele>64.578838</ele>
        <time>2023-05-08T15:06:50.616Z</time>
      </trkpt>
      <trkpt lat="47.36437" lon="-0.7202">
        <ele>64.585864</ele>
        <time>2023-05-08T15:06:53.610Z</time>
      </trkpt>
      <trkpt lat="47.36436" lon="-0.72001">
        <ele>64.593757</ele>
        <time>2023-05-08T15:06:56.617Z</time>
      </trkpt>
      <trkpt lat="47.36436" lon="-0.71987">
        <ele>64.599388</ele>
        <time>2023-05-08T15:06:58.612Z</time>
      </trkpt>
      <trkpt lat="47.36436" lon="-0.71973">
        <ele>64.605115</ele>
        <time>2023-05-08T15:07:00.615Z</time>
      </trkpt>
      <trkpt lat="47.36435" lon="-0.71954">
        <ele>64.612986</ele>
        <time>2023-05-08T15:07:03.616Z</time>
      </trkpt>
      <trkpt lat="47.36434" lon="-0.71935">
        <ele>64.620754</ele>
        <time>2023-05-08T15:07:06.611Z</time>
      </trkpt>
      <trkpt lat="47.36434" lon="-0.71917">
        <ele>64.628109</ele>
        <time>2023-05-08T15:07:09.619Z</time>
      </trkpt>
      <trkpt lat="47.36435" lon="-0.719">
        <ele>64.635055</ele>
        <time>2023-05-08T15:07:12.615Z</time>
      </trkpt>
      <trkpt lat="47.36435" lon="-0.71884">
        <ele>64.641549</ele>
        <time>2023-05-08T15:07:15.613Z</time>
      </trkpt>
      <trkpt lat="47.36436" lon="-0.71869">
        <ele>64.606271</ele>
        <time>2023-05-08T15:07:18.622Z</time>
      </trkpt>
      <trkpt lat="47.36437" lon="-0.71851">
        <ele>64.482242</ele>
        <time>2023-05-08T15:07:21.615Z</time>
      </trkpt>
      <trkpt lat="47.3644" lon="-0.71833">
        <ele>64.35538</ele>
        <time>2023-05-08T15:07:24.612Z</time>
      </trkpt>
      <trkpt lat="47.36445" lon="-0.71816">
        <ele>64.223586</ele>
        <time>2023-05-08T15:07:27.617Z</time>
      </trkpt>
      <trkpt lat="47.36451" lon="-0.71798">
        <ele>64.086424</ele>
        <time>2023-05-08T15:07:30.617Z</time>
      </trkpt>
      <trkpt lat="47.36455" lon="-0.71786">
        <ele>63.993562</ele>
        <time>2023-05-08T15:07:32.609Z</time>
      </trkpt>
      <trkpt lat="47.36459" lon="-0.71774">
        <ele>63.90084</ele>
        <time>2023-05-08T15:07:34.616Z</time>
      </trkpt>
      <trkpt lat="47.36465" lon="-0.71757">
        <ele>63.767915</ele>
        <time>2023-05-08T15:07:37.616Z</time>
      </trkpt>
      <trkpt lat="47.36471" lon="-0.71741">
        <ele>63.63855</ele>
        <time>2023-05-08T15:07:40.614Z</time>
      </trkpt>
      <trkpt lat="47.36476" lon="-0.71726">
        <ele>63.51934</ele>
        <time>2023-05-08T15:07:43.610Z</time>
      </trkpt>
      <trkpt lat="47.36481" lon="-0.71711">
        <ele>63.403572</ele>
        <time>2023-05-08T15:07:46.615Z</time>
      </trkpt>
      <trkpt lat="47.36486" lon="-0.71696">
        <ele>63.287562</ele>
        <time>2023-05-08T15:07:49.603Z</time>
      </trkpt>
      <trkpt lat="47.36491" lon="-0.71681">
        <ele>63.172166</ele>
        <time>2023-05-08T15:07:52.608Z</time>
      </trkpt>
      <trkpt lat="47.36495" lon="-0.71664">
        <ele>63.044083</ele>
        <time>2023-05-08T15:07:55.625Z</time>
      </trkpt>
      <trkpt lat="47.36498" lon="-0.71644">
        <ele>62.906364</ele>
        <time>2023-05-08T15:07:58.615Z</time>
      </trkpt>
      <trkpt lat="47.36499" lon="-0.71631">
        <ele>62.813288</ele>
        <time>2023-05-08T15:08:00.610Z</time>
      </trkpt>
      <trkpt lat="47.36502" lon="-0.71613">
        <ele>62.874761</ele>
        <time>2023-05-08T15:08:03.616Z</time>
      </trkpt>
      <trkpt lat="47.36503" lon="-0.71595">
        <ele>62.962301</ele>
        <time>2023-05-08T15:08:06.600Z</time>
      </trkpt>
      <trkpt lat="47.36503" lon="-0.71577">
        <ele>63.046318</ele>
        <time>2023-05-08T15:08:09.613Z</time>
      </trkpt>
      <trkpt lat="47.36503" lon="-0.71562">
        <ele>63.123438</ele>
        <time>2023-05-08T15:08:12.608Z</time>
      </trkpt>
      <trkpt lat="47.36504" lon="-0.71546">
        <ele>63.198253</ele>
        <time>2023-05-08T15:08:15.616Z</time>
      </trkpt>
      <trkpt lat="47.36504" lon="-0.71529">
        <ele>63.280233</ele>
        <time>2023-05-08T15:08:18.611Z</time>
      </trkpt>
      <trkpt lat="47.36505" lon="-0.71512">
        <ele>63.366322</ele>
        <time>2023-05-08T15:08:21.613Z</time>
      </trkpt>
      <trkpt lat="47.36506" lon="-0.71493">
        <ele>63.455312</ele>
        <time>2023-05-08T15:08:24.614Z</time>
      </trkpt>
      <trkpt lat="47.36507" lon="-0.71474">
        <ele>63.547117</ele>
        <time>2023-05-08T15:08:27.611Z</time>
      </trkpt>
      <trkpt lat="47.36507" lon="-0.71455">
        <ele>63.639798</ele>
        <time>2023-05-08T15:08:30.602Z</time>
      </trkpt>
      <trkpt lat="47.36508" lon="-0.71436">
        <ele>63.735613</ele>
        <time>2023-05-08T15:08:33.616Z</time>
      </trkpt>
      <trkpt lat="47.36508" lon="-0.71416">
        <ele>63.830234</ele>
        <time>2023-05-08T15:08:36.615Z</time>
      </trkpt>
      <trkpt lat="47.36509" lon="-0.71397">
        <ele>63.924337</ele>
        <time>2023-05-08T15:08:39.618Z</time>
      </trkpt>
      <trkpt lat="47.3651" lon="-0.71378">
        <ele>64.013176</ele>
        <time>2023-05-08T15:08:42.610Z</time>
      </trkpt>
      <trkpt lat="47.36511" lon="-0.71361">
        <ele>64.083876</ele>
        <time>2023-05-08T15:08:45.619Z</time>
      </trkpt>
      <trkpt lat="47.36512" lon="-0.71345">
        <ele>64.084765</ele>
        <time>2023-05-08T15:08:48.613Z</time>
      </trkpt>
      <trkpt lat="47.36511" lon="-0.7133">
        <ele>64.085641</ele>
        <time>2023-05-08T15:08:51.605Z</time>
      </trkpt>
      <trkpt lat="47.36512" lon="-0.71315">
        <ele>64.086452</ele>
        <time>2023-05-08T15:08:54.611Z</time>
      </trkpt>
      <trkpt lat="47.36512" lon="-0.71301">
        <ele>64.087216</ele>
        <time>2023-05-08T15:08:57.611Z</time>
      </trkpt>
      <trkpt lat="47.36513" lon="-0.71285">
        <ele>64.088098</ele>
        <time>2023-05-08T15:09:01.616Z</time>
      </trkpt>
      <trkpt lat="47.36514" lon="-0.71269">
        <ele>64.089032</ele>
        <time>2023-05-08T15:09:05.616Z</time>
      </trkpt>
      <trkpt lat="47.36514" lon="-0.71251">
        <ele>64.089997</ele>
        <time>2023-05-08T15:09:09.615Z</time>
      </trkpt>
      <trkpt lat="47.36515" lon="-0.71236">
        <ele>64.090825</ele>
        <time>2023-05-08T15:09:12.620Z</time>
      </trkpt>
      <trkpt lat="47.36516" lon="-0.71223">
        <ele>64.09157</ele>
        <time>2023-05-08T15:09:15.611Z</time>
      </trkpt>
      <trkpt lat="47.36516" lon="-0.71206">
        <ele>64.092495</ele>
        <time>2023-05-08T15:09:19.616Z</time>
      </trkpt>
      <trkpt lat="47.36517" lon="-0.71189">
        <ele>64.093478</ele>
        <time>2023-05-08T15:09:23.617Z</time>
      </trkpt>
      <trkpt lat="47.36518" lon="-0.71173">
        <ele>64.094348</ele>
        <time>2023-05-08T15:09:26.616Z</time>
      </trkpt>
      <trkpt lat="47.36519" lon="-0.71157">
        <ele>64.095258</ele>
        <time>2023-05-08T15:09:29.620Z</time>
      </trkpt>
      <trkpt lat="47.36519" lon="-0.71139">
        <ele>64.096234</ele>
        <time>2023-05-08T15:09:32.617Z</time>
      </trkpt>
      <trkpt lat="47.3652" lon="-0.71121">
        <ele>64.097239</ele>
        <time>2023-05-08T15:09:35.618Z</time>
      </trkpt>
      <trkpt lat="47.3652" lon="-0.71103">
        <ele>64.098253</ele>
        <time>2023-05-08T15:09:38.612Z</time>
      </trkpt>
      <trkpt lat="47.3652" lon="-0.71084">
        <ele>64.014945</ele>
        <time>2023-05-08T15:09:41.615Z</time>
      </trkpt>
      <trkpt lat="47.36521" lon="-0.71066">
        <ele>63.912296</ele>
        <time>2023-05-08T15:09:44.615Z</time>
      </trkpt>
      <trkpt lat="47.36521" lon="-0.71047">
        <ele>63.804725</ele>
        <time>2023-05-08T15:09:47.616Z</time>
      </trkpt>
      <trkpt lat="47.36522" lon="-0.71028">
        <ele>63.696459</ele>
        <time>2023-05-08T15:09:50.617Z</time>
      </trkpt>
      <trkpt lat="47.36523" lon="-0.7101">
        <ele>63.590343</ele>
        <time>2023-05-08T15:09:53.617Z</time>
      </trkpt>
      <trkpt lat="47.36524" lon="-0.70993">
        <ele>63.492961</ele>
        <time>2023-05-08T15:09:56.610Z</time>
      </trkpt>
      <trkpt lat="47.36525" lon="-0.70976">
        <ele>63.399448</ele>
        <time>2023-05-08T15:09:59.613Z</time>
      </trkpt>
      <trkpt lat="47.36525" lon="-0.70961">
        <ele>63.310664</ele>
        <time>2023-05-08T15:10:02.619Z</time>
      </trkpt>
      <trkpt lat="47.36526" lon="-0.70947">
        <ele>63.230883</ele>
        <time>2023-05-08T15:10:05.600Z</time>
      </trkpt>
      <trkpt lat="47.36527" lon="-0.70933">
        <ele>63.15147</ele>
        <time>2023-05-08T15:10:08.615Z</time>
      </trkpt>
      <trkpt lat="47.36527" lon="-0.70917">
        <ele>63.064354</ele>
        <time>2023-05-08T15:10:11.616Z</time>
      </trkpt>
      <trkpt lat="47.36527" lon="-0.70901">
        <ele>62.970454</ele>
        <time>2023-05-08T15:10:14.615Z</time>
      </trkpt>
      <trkpt lat="47.36528" lon="-0.70885">
        <ele>62.878076</ele>
        <time>2023-05-08T15:10:17.617Z</time>
      </trkpt>
      <trkpt lat="47.36529" lon="-0.7087">
        <ele>62.792433</ele>
        <time>2023-05-08T15:10:20.613Z</time>
      </trkpt>
      <trkpt lat="47.3653" lon="-0.70855">
        <ele>62.709192</ele>
        <time>2023-05-08T15:10:23.616Z</time>
      </trkpt>
      <trkpt lat="47.3653" lon="-0.70839">
        <ele>62.614769</ele>
        <time>2023-05-08T15:10:26.614Z</time>
      </trkpt>
      <trkpt lat="47.3653" lon="-0.70821">
        <ele>62.658878</ele>
        <time>2023-05-08T15:10:29.612Z</time>
      </trkpt>
      <trkpt lat="47.36531" lon="-0.70802">
        <ele>62.758785</ele>
        <time>2023-05-08T15:10:32.618Z</time>
      </trkpt>
      <trkpt lat="47.36531" lon="-0.70783">
        <ele>62.860364</ele>
        <time>2023-05-08T15:10:35.617Z</time>
      </trkpt>
      <trkpt lat="47.36532" lon="-0.70764">
        <ele>62.963746</ele>
        <time>2023-05-08T15:10:38.614Z</time>
      </trkpt>
      <trkpt lat="47.36534" lon="-0.70745">
        <ele>63.067508</ele>
        <time>2023-05-08T15:10:41.615Z</time>
      </trkpt>
      <trkpt lat="47.36535" lon="-0.70727">
        <ele>63.165003</ele>
        <time>2023-05-08T15:10:44.618Z</time>
      </trkpt>
      <trkpt lat="47.36536" lon="-0.7071">
        <ele>63.25649</ele>
        <time>2023-05-08T15:10:47.616Z</time>
      </trkpt>
      <trkpt lat="47.36536" lon="-0.70692">
        <ele>63.349452</ele>
        <time>2023-05-08T15:10:50.612Z</time>
      </trkpt>
      <trkpt lat="47.36536" lon="-0.70674">
        <ele>63.449321</ele>
        <time>2023-05-08T15:10:53.619Z</time>
      </trkpt>
      <trkpt lat="47.36537" lon="-0.70654">
        <ele>63.554693</ele>
        <time>2023-05-08T15:10:56.618Z</time>
      </trkpt>
      <trkpt lat="47.36537" lon="-0.70635">
        <ele>63.660482</ele>
        <time>2023-05-08T15:10:59.612Z</time>
      </trkpt>
      <trkpt lat="47.36539" lon="-0.70615">
        <ele>63.763463</ele>
        <time>2023-05-08T15:11:02.617Z</time>
      </trkpt>
      <trkpt lat="47.36539" lon="-0.70597">
        <ele>63.862401</ele>
        <time>2023-05-08T15:11:05.619Z</time>
      </trkpt>
      <trkpt lat="47.3654" lon="-0.7058">
        <ele>63.956623</ele>
        <time>2023-05-08T15:11:08.605Z</time>
      </trkpt>
      <trkpt lat="47.36541" lon="-0.70563">
        <ele>64.033193</ele>
        <time>2023-05-08T15:11:11.618Z</time>
      </trkpt>
      <trkpt lat="47.36542" lon="-0.70548">
        <ele>64.08452</ele>
        <time>2023-05-08T15:11:14.618Z</time>
      </trkpt>
      <trkpt lat="47.36541" lon="-0.70524">
        <ele>64.162769</ele>
        <time>2023-05-08T15:12:01.611Z</time>
      </trkpt>
      <trkpt lat="47.36542" lon="-0.70507">
        <ele>64.220645</ele>
        <time>2023-05-08T15:12:05.606Z</time>
      </trkpt>
      <trkpt lat="47.36542" lon="-0.70491">
        <ele>64.273595</ele>
        <time>2023-05-08T15:12:08.616Z</time>
      </trkpt>
      <trkpt lat="47.36543" lon="-0.70474">
        <ele>64.32997</ele>
        <time>2023-05-08T15:12:11.611Z</time>
      </trkpt>
      <trkpt lat="47.36544" lon="-0.70456">
        <ele>64.388921</ele>
        <time>2023-05-08T15:12:14.615Z</time>
      </trkpt>
      <trkpt lat="47.36545" lon="-0.70438">
        <ele>64.449933</ele>
        <time>2023-05-08T15:12:17.615Z</time>
      </trkpt>
      <trkpt lat="47.36546" lon="-0.70419">
        <ele>64.5122</ele>
        <time>2023-05-08T15:12:20.616Z</time>
      </trkpt>
      <trkpt lat="47.36547" lon="-0.70401">
        <ele>64.573112</ele>
        <time>2023-05-08T15:12:23.619Z</time>
      </trkpt>
      <trkpt lat="47.36548" lon="-0.70383">
        <ele>64.63443</ele>
        <time>2023-05-08T15:12:26.610Z</time>
      </trkpt>
      <trkpt lat="47.36549" lon="-0.70363">
        <ele>64.700119</ele>
        <time>2023-05-08T15:12:29.617Z</time>
      </trkpt>
      <trkpt lat="47.36551" lon="-0.70345">
        <ele>64.761571</ele>
        <time>2023-05-08T15:12:32.607Z</time>
      </trkpt>
      <trkpt lat="47.36554" lon="-0.70328">
        <ele>64.818425</ele>
        <time>2023-05-08T15:12:35.609Z</time>
      </trkpt>
      <trkpt lat="47.36558" lon="-0.70312">
        <ele>64.877285</ele>
        <time>2023-05-08T15:12:38.615Z</time>
      </trkpt>
      <trkpt lat="47.36563" lon="-0.70295">
        <ele>64.86523</ele>
        <time>2023-05-08T15:12:41.606Z</time>
      </trkpt>
      <trkpt lat="47.36567" lon="-0.70277">
        <ele>64.818151</ele>
        <time>2023-05-08T15:12:44.612Z</time>
      </trkpt>
      <trkpt lat="47.36571" lon="-0.7026">
        <ele>64.774129</ele>
        <time>2023-05-08T15:12:47.615Z</time>
      </trkpt>
      <trkpt lat="47.36576" lon="-0.70244">
        <ele>64.731281</ele>
        <time>2023-05-08T15:12:50.615Z</time>
      </trkpt>
      <trkpt lat="47.36579" lon="-0.70229">
        <ele>64.691518</ele>
        <time>2023-05-08T15:12:53.620Z</time>
      </trkpt>
      <trkpt lat="47.36582" lon="-0.70214">
        <ele>64.651355</ele>
        <time>2023-05-08T15:12:56.604Z</time>
      </trkpt>
      <trkpt lat="47.36585" lon="-0.70197">
        <ele>64.609148</ele>
        <time>2023-05-08T15:12:59.610Z</time>
      </trkpt>
      <trkpt lat="47.36586" lon="-0.7018">
        <ele>64.565646</ele>
        <time>2023-05-08T15:13:02.611Z</time>
      </trkpt>
      <trkpt lat="47.36587" lon="-0.70162">
        <ele>64.521423</ele>
        <time>2023-05-08T15:13:05.618Z</time>
      </trkpt>
      <trkpt lat="47.36589" lon="-0.70147">
        <ele>64.483777</ele>
        <time>2023-05-08T15:13:08.611Z</time>
      </trkpt>
      <trkpt lat="47.3659" lon="-0.70134">
        <ele>64.450736</ele>
        <time>2023-05-08T15:13:11.615Z</time>
      </trkpt>
      <trkpt lat="47.36591" lon="-0.70117">
        <ele>64.407826</ele>
        <time>2023-05-08T15:13:15.617Z</time>
      </trkpt>
      <trkpt lat="47.36592" lon="-0.70101">
        <ele>64.368041</ele>
        <time>2023-05-08T15:13:19.625Z</time>
      </trkpt>
      <trkpt lat="47.36594" lon="-0.70085">
        <ele>64.327746</ele>
        <time>2023-05-08T15:13:23.609Z</time>
      </trkpt>
      <trkpt lat="47.36597" lon="-0.7007">
        <ele>64.287983</ele>
        <time>2023-05-08T15:13:27.612Z</time>
      </trkpt>
      <trkpt lat="47.36603" lon="-0.70057">
        <ele>64.249599</ele>
        <time>2023-05-08T15:13:31.613Z</time>
      </trkpt>
      <trkpt lat="47.36593" lon="-0.70053">
        <ele>64.233699</ele>
        <time>2023-05-08T15:13:38.609Z</time>
      </trkpt>
      <trkpt lat="47.36586" lon="-0.70063">
        <ele>64.231949</ele>
        <time>2023-05-08T15:13:43.620Z</time>
      </trkpt>
      <trkpt lat="47.37092" lon="-0.68403">
        <ele>63.012093</ele>
        <time>2023-05-08T15:23:35.610Z</time>
      </trkpt>
      <trkpt lat="47.37101" lon="-0.6841">
        <ele>62.946859</ele>
        <time>2023-05-08T15:27:56.608Z</time>
      </trkpt>
      <trkpt lat="47.37109" lon="-0.68419">
        <ele>63.225279</ele>
        <time>2023-05-08T15:28:01.596Z</time>
      </trkpt>
      <trkpt lat="47.37117" lon="-0.68426">
        <ele>63.518978</ele>
        <time>2023-05-08T15:28:05.615Z</time>
      </trkpt>
      <trkpt lat="47.37127" lon="-0.68432">
        <ele>63.851524</ele>
        <time>2023-05-08T15:28:09.616Z</time>
      </trkpt>
      <trkpt lat="47.37139" lon="-0.68438">
        <ele>64.213056</ele>
        <time>2023-05-08T15:28:13.612Z</time>
      </trkpt>
      <trkpt lat="47.37147" lon="-0.68444">
        <ele>64.500501</ele>
        <time>2023-05-08T15:28:16.607Z</time>
      </trkpt>
      <trkpt lat="47.37156" lon="-0.68449">
        <ele>64.795852</ele>
        <time>2023-05-08T15:28:20.608Z</time>
      </trkpt>
      <trkpt lat="47.37166" lon="-0.68451">
        <ele>65.108682</ele>
        <time>2023-05-08T15:28:25.613Z</time>
      </trkpt>
      <trkpt lat="47.37176" lon="-0.68452">
        <ele>65.405201</ele>
        <time>2023-05-08T15:28:29.613Z</time>
      </trkpt>
      <trkpt lat="47.37186" lon="-0.68456">
        <ele>65.723572</ele>
        <time>2023-05-08T15:28:33.615Z</time>
      </trkpt>
      <trkpt lat="47.37196" lon="-0.6846">
        <ele>66.025663</ele>
        <time>2023-05-08T15:28:37.614Z</time>
      </trkpt>
      <trkpt lat="47.37205" lon="-0.68462">
        <ele>66.314114</ele>
        <time>2023-05-08T15:28:43.605Z</time>
      </trkpt>
      <trkpt lat="47.37221" lon="-0.68466">
        <ele>66.793225</ele>
        <time>2023-05-08T15:29:13.617Z</time>
      </trkpt>
      <trkpt lat="47.3723" lon="-0.68469">
        <ele>67.08697</ele>
        <time>2023-05-08T15:29:17.617Z</time>
      </trkpt>
      <trkpt lat="47.37241" lon="-0.68474">
        <ele>67.430754</ele>
        <time>2023-05-08T15:29:22.609Z</time>
      </trkpt>
      <trkpt lat="47.37251" lon="-0.68478">
        <ele>67.743355</ele>
        <time>2023-05-08T15:29:26.611Z</time>
      </trkpt>
      <trkpt lat="47.3726" lon="-0.68481">
        <ele>68.027757</ele>
        <time>2023-05-08T15:29:30.615Z</time>
      </trkpt>
      <trkpt lat="47.37271" lon="-0.68485">
        <ele>68.361867</ele>
        <time>2023-05-08T15:29:35.611Z</time>
      </trkpt>
      <trkpt lat="47.37281" lon="-0.68488">
        <ele>68.982004</ele>
        <time>2023-05-08T15:29:40.611Z</time>
      </trkpt>
      <trkpt lat="47.37291" lon="-0.68492">
        <ele>69.65336</ele>
        <time>2023-05-08T15:29:45.614Z</time>
      </trkpt>
      <trkpt lat="47.37302" lon="-0.68494">
        <ele>70.336215</ele>
        <time>2023-05-08T15:29:50.606Z</time>
      </trkpt>
      <trkpt lat="47.37312" lon="-0.68497">
        <ele>71.015745</ele>
        <time>2023-05-08T15:29:55.609Z</time>
      </trkpt>
      <trkpt lat="47.37322" lon="-0.68501">
        <ele>71.670517</ele>
        <time>2023-05-08T15:30:00.612Z</time>
      </trkpt>
      <trkpt lat="47.37331" lon="-0.68505">
        <ele>72.249506</ele>
        <time>2023-05-08T15:30:04.609Z</time>
      </trkpt>
      <trkpt lat="47.37342" lon="-0.68508">
        <ele>72.933773</ele>
        <time>2023-05-08T15:30:09.597Z</time>
      </trkpt>
      <trkpt lat="47.37352" lon="-0.68509">
        <ele>73.624253</ele>
        <time>2023-05-08T15:30:14.601Z</time>
      </trkpt>
      <trkpt lat="47.37361" lon="-0.68513">
        <ele>74.202901</ele>
        <time>2023-05-08T15:30:19.607Z</time>
      </trkpt>
      <trkpt lat="47.37372" lon="-0.68515">
        <ele>74.878157</ele>
        <time>2023-05-08T15:30:24.615Z</time>
      </trkpt>
      <trkpt lat="47.37382" lon="-0.6852">
        <ele>75.594742</ele>
        <time>2023-05-08T15:30:30.610Z</time>
      </trkpt>
      <trkpt lat="47.37391" lon="-0.68515">
        <ele>76.168295</ele>
        <time>2023-05-08T15:30:43.605Z</time>
      </trkpt>
      <trkpt lat="47.37394" lon="-0.68499">
        <ele>76.907173</ele>
        <time>2023-05-08T15:31:02.610Z</time>
      </trkpt>
      <trkpt lat="47.37396" lon="-0.68483">
        <ele>77.606457</ele>
        <time>2023-05-08T15:31:07.605Z</time>
      </trkpt>
      <trkpt lat="47.37397" lon="-0.68467">
        <ele>78.270143</ele>
        <time>2023-05-08T15:31:12.615Z</time>
      </trkpt>
      <trkpt lat="47.37404" lon="-0.68459">
        <ele>78.848566</ele>
        <time>2023-05-08T15:31:19.607Z</time>
      </trkpt>
      <trkpt lat="47.37414" lon="-0.68458">
        <ele>79.443694</ele>
        <time>2023-05-08T15:31:23.610Z</time>
      </trkpt>
      <trkpt lat="47.37425" lon="-0.68459">
        <ele>80.101146</ele>
        <time>2023-05-08T15:31:28.603Z</time>
      </trkpt>
      <trkpt lat="47.37435" lon="-0.68464">
        <ele>80.685913</ele>
        <time>2023-05-08T15:31:33.620Z</time>
      </trkpt>
      <trkpt lat="47.37445" lon="-0.68468">
        <ele>81.217055</ele>
        <time>2023-05-08T15:31:37.621Z</time>
      </trkpt>
      <trkpt lat="47.37455" lon="-0.68472">
        <ele>81.814228</ele>
        <time>2023-05-08T15:31:41.616Z</time>
      </trkpt>
      <trkpt lat="47.37465" lon="-0.68478">
        <ele>82.40571</ele>
        <time>2023-05-08T15:31:45.615Z</time>
      </trkpt>
      <trkpt lat="47.37476" lon="-0.68484">
        <ele>83.010835</ele>
        <time>2023-05-08T15:31:49.611Z</time>
      </trkpt>
      <trkpt lat="47.37484" lon="-0.68493">
        <ele>83.550343</ele>
        <time>2023-05-08T15:31:53.614Z</time>
      </trkpt>
      <trkpt lat="47.37494" lon="-0.68499">
        <ele>84.113754</ele>
        <time>2023-05-08T15:31:58.606Z</time>
      </trkpt>
      <trkpt lat="47.37503" lon="-0.68501">
        <ele>84.632286</ele>
        <time>2023-05-08T15:32:04.611Z</time>
      </trkpt>
      <trkpt lat="47.37513" lon="-0.68503">
        <ele>85.174904</ele>
        <time>2023-05-08T15:32:09.605Z</time>
      </trkpt>
      <trkpt lat="47.37523" lon="-0.68503">
        <ele>85.724502</ele>
        <time>2023-05-08T15:32:16.606Z</time>
      </trkpt>
      <trkpt lat="47.37534" lon="-0.68503">
        <ele>86.279723</ele>
        <time>2023-05-08T15:32:23.605Z</time>
      </trkpt>
      <trkpt lat="47.37544" lon="-0.68501">
        <ele>86.830591</ele>
        <time>2023-05-08T15:32:29.600Z</time>
      </trkpt>
      <trkpt lat="47.39365" lon="-0.64606">
        <ele>107.49433</ele>
        <time>2023-05-08T16:14:20.605Z</time>
      </trkpt>
      <trkpt lat="47.39376" lon="-0.64594">
        <ele>107.532145</ele>
        <time>2023-05-08T16:15:08.606Z</time>
      </trkpt>
      <trkpt lat="47.39385" lon="-0.64584">
        <ele>107.564301</ele>
        <time>2023-05-08T16:15:12.597Z</time>
      </trkpt>
      <trkpt lat="47.39391" lon="-0.64573">
        <ele>107.592469</ele>
        <time>2023-05-08T16:15:15.598Z</time>
      </trkpt>
      <trkpt lat="47.39399" lon="-0.6456">
        <ele>107.626217</ele>
        <time>2023-05-08T16:15:18.600Z</time>
      </trkpt>
      <trkpt lat="47.39409" lon="-0.64546">
        <ele>107.663874</ele>
        <time>2023-05-08T16:15:21.599Z</time>
      </trkpt>
      <trkpt lat="47.39416" lon="-0.64535">
        <ele>107.693563</ele>
        <time>2023-05-08T16:15:23.593Z</time>
      </trkpt>
      <trkpt lat="47.39425" lon="-0.64525">
        <ele>107.724891</ele>
        <time>2023-05-08T16:15:25.603Z</time>
      </trkpt>
      <trkpt lat="47.39436" lon="-0.64515">
        <ele>107.526159</ele>
        <time>2023-05-08T16:15:27.598Z</time>
      </trkpt>
      <trkpt lat="47.40881" lon="-0.61764">
        <ele>66.115194</ele>
        <time>2023-05-08T16:39:15.608Z</time>
      </trkpt>
      <trkpt lat="47.40906" lon="-0.61755">
        <ele>66.369698</ele>
        <time>2023-05-08T16:40:10.600Z</time>
      </trkpt>
      <trkpt lat="47.40915" lon="-0.61753">
        <ele>66.461754</ele>
        <time>2023-05-08T16:40:14.605Z</time>
      </trkpt>
      <trkpt lat="47.40925" lon="-0.61749">
        <ele>66.565245</ele>
        <time>2023-05-08T16:40:19.600Z</time>
      </trkpt>
      <trkpt lat="47.40936" lon="-0.61747">
        <ele>66.670381</ele>
        <time>2023-05-08T16:40:24.608Z</time>
      </trkpt>
      <trkpt lat="47.40946" lon="-0.61748">
        <ele>66.772879</ele>
        <time>2023-05-08T16:40:29.608Z</time>
      </trkpt>
      <trkpt lat="47.40957" lon="-0.61744">
        <ele>66.87852</ele>
        <time>2023-05-08T16:40:34.605Z</time>
      </trkpt>
      <trkpt lat="47.40965" lon="-0.61741">
        <ele>66.967544</ele>
        <time>2023-05-08T16:40:38.596Z</time>
      </trkpt>
      <trkpt lat="47.40974" lon="-0.61737">
        <ele>67.060545</ele>
        <time>2023-05-08T16:40:43.604Z</time>
      </trkpt>
      <trkpt lat="47.40983" lon="-0.61734">
        <ele>67.151605</ele>
        <time>2023-05-08T16:40:47.604Z</time>
      </trkpt>
      <trkpt lat="47.40992" lon="-0.61729">
        <ele>67.24109</ele>
        <time>2023-05-08T16:40:51.596Z</time>
      </trkpt>
      <trkpt lat="47.41002" lon="-0.61724">
        <ele>67.341271</ele>
        <time>2023-05-08T16:40:56.602Z</time>
      </trkpt>
      <trkpt lat="47.41012" lon="-0.61722">
        <ele>67.444123</ele>
        <time>2023-05-08T16:41:02.609Z</time>
      </trkpt>
      <trkpt lat="47.41022" lon="-0.61719">
        <ele>67.547442</ele>
        <time>2023-05-08T16:41:07.595Z</time>
      </trkpt>
      <trkpt lat="47.41032" lon="-0.61718">
        <ele>67.630905</ele>
        <time>2023-05-08T16:41:11.609Z</time>
      </trkpt>
      <trkpt lat="47.41043" lon="-0.61716">
        <ele>67.702298</ele>
        <time>2023-05-08T16:41:15.616Z</time>
      </trkpt>
      <trkpt lat="47.41053" lon="-0.61714">
        <ele>67.767097</ele>
        <time>2023-05-08T16:41:19.606Z</time>
      </trkpt>
      <trkpt lat="47.41062" lon="-0.61715">
        <ele>67.831154</ele>
        <time>2023-05-08T16:41:23.601Z</time>
      </trkpt>
      <trkpt lat="47.41071" lon="-0.61718">
        <ele>67.892922</ele>
        <time>2023-05-08T16:41:27.608Z</time>
      </trkpt>
      <trkpt lat="47.41082" lon="-0.61718">
        <ele>67.967584</ele>
        <time>2023-05-08T16:41:33.608Z</time>
      </trkpt>
      <trkpt lat="47.41093" lon="-0.61715">
        <ele>68.044219</ele>
        <time>2023-05-08T16:41:37.598Z</time>
      </trkpt>
      <trkpt lat="47.41103" lon="-0.6171">
        <ele>68.115303</ele>
        <time>2023-05-08T16:41:40.606Z</time>
      </trkpt>
      <trkpt lat="47.41114" lon="-0.61708">
        <ele>68.185175</ele>
        <time>2023-05-08T16:41:43.610Z</time>
      </trkpt>
      <trkpt lat="47.41125" lon="-0.61706">
        <ele>68.264561</ele>
        <time>2023-05-08T16:41:47.606Z</time>
      </trkpt>
      <trkpt lat="47.41135" lon="-0.61702">
        <ele>68.333473</ele>
        <time>2023-05-08T16:41:52.604Z</time>
      </trkpt>
      <trkpt lat="47.41146" lon="-0.61695">
        <ele>68.411938</ele>
        <time>2023-05-08T16:41:57.594Z</time>
      </trkpt>
      <trkpt lat="47.41155" lon="-0.61691">
        <ele>68.476439</ele>
        <time>2023-05-08T16:42:00.609Z</time>
      </trkpt>
      <trkpt lat="47.41164" lon="-0.61687">
        <ele>68.537733</ele>
        <time>2023-05-08T16:42:03.601Z</time>
      </trkpt>
      <trkpt lat="47.41174" lon="-0.61683">
        <ele>68.606763</ele>
        <time>2023-05-08T16:42:07.617Z</time>
      </trkpt>
      <trkpt lat="47.41183" lon="-0.61678">
        <ele>68.67601</ele>
        <time>2023-05-08T16:42:12.616Z</time>
      </trkpt>
      <trkpt lat="47.41193" lon="-0.61674">
        <ele>68.743221</ele>
        <time>2023-05-08T16:42:16.608Z</time>
      </trkpt>
      <trkpt lat="47.41203" lon="-0.6167">
        <ele>68.790141</ele>
        <time>2023-05-08T16:42:20.605Z</time>
      </trkpt>
      <trkpt lat="47.41212" lon="-0.61668">
        <ele>68.72471</ele>
        <time>2023-05-08T16:42:24.609Z</time>
      </trkpt>
      <trkpt lat="47.41222" lon="-0.61665">
        <ele>68.65941</ele>
        <time>2023-05-08T16:42:28.601Z</time>
      </trkpt>
      <trkpt lat="47.41233" lon="-0.61661">
        <ele>68.581466</ele>
        <time>2023-05-08T16:42:32.605Z</time>
      </trkpt>
      <trkpt lat="47.41242" lon="-0.61658">
        <ele>68.517047</ele>
        <time>2023-05-08T16:42:35.602Z</time>
      </trkpt>
      <trkpt lat="47.41253" lon="-0.61656">
        <ele>68.438716</ele>
        <time>2023-05-08T16:42:39.601Z</time>
      </trkpt>
      <trkpt lat="47.41262" lon="-0.61653">
        <ele>68.37621</ele>
        <time>2023-05-08T16:42:43.600Z</time>
      </trkpt>
      <trkpt lat="47.41272" lon="-0.6165">
        <ele>68.303766</ele>
        <time>2023-05-08T16:42:48.612Z</time>
      </trkpt>
      <trkpt lat="47.41282" lon="-0.61644">
        <ele>68.227564</ele>
        <time>2023-05-08T16:42:52.619Z</time>
      </trkpt>
      <trkpt lat="47.41292" lon="-0.61636">
        <ele>68.151786</ele>
        <time>2023-05-08T16:42:55.607Z</time>
      </trkpt>
      <trkpt lat="47.413" lon="-0.61627">
        <ele>68.08146</ele>
        <time>2023-05-08T16:42:58.602Z</time>
      </trkpt>
      <trkpt lat="47.41307" lon="-0.61617">
        <ele>68.01539</ele>
        <time>2023-05-08T16:43:01.611Z</time>
      </trkpt>
      <trkpt lat="47.41316" lon="-0.61607">
        <ele>67.934816</ele>
        <time>2023-05-08T16:43:05.612Z</time>
      </trkpt>
      <trkpt lat="47.41326" lon="-0.61599">
        <ele>67.861765</ele>
        <time>2023-05-08T16:43:08.619Z</time>
      </trkpt>
      <trkpt lat="47.41335" lon="-0.61592">
        <ele>67.78645</ele>
        <time>2023-05-08T16:43:11.614Z</time>
      </trkpt>
      <trkpt lat="47.41345" lon="-0.61585">
        <ele>67.712487</ele>
        <time>2023-05-08T16:43:14.601Z</time>
      </trkpt>
      <trkpt lat="47.41354" lon="-0.61577">
        <ele>67.639568</ele>
        <time>2023-05-08T16:43:17.603Z</time>
      </trkpt>
      <trkpt lat="47.41363" lon="-0.61569">
        <ele>67.567349</ele>
        <time>2023-05-08T16:43:20.603Z</time>
      </trkpt>
      <trkpt lat="47.41371" lon="-0.61562">
        <ele>67.512908</ele>
        <time>2023-05-08T16:43:23.608Z</time>
      </trkpt>
      <trkpt lat="47.41382" lon="-0.61554">
        <ele>67.449546</ele>
        <time>2023-05-08T16:43:27.614Z</time>
      </trkpt>
      <trkpt lat="47.41392" lon="-0.61546">
        <ele>67.385509</ele>
        <time>2023-05-08T16:43:31.599Z</time>
      </trkpt>
      <trkpt lat="47.41402" lon="-0.6154">
        <ele>67.327083</ele>
        <time>2023-05-08T16:43:35.613Z</time>
      </trkpt>
      <trkpt lat="47.41413" lon="-0.61532">
        <ele>67.26193</ele>
        <time>2023-05-08T16:43:39.598Z</time>
      </trkpt>
      <trkpt lat="47.41421" lon="-0.61525">
        <ele>67.212022</ele>
        <time>2023-05-08T16:43:42.598Z</time>
      </trkpt>
      <trkpt lat="47.41429" lon="-0.61519">
        <ele>67.158737</ele>
        <time>2023-05-08T16:43:45.607Z</time>
      </trkpt>
      <trkpt lat="47.41438" lon="-0.61513">
        <ele>67.104982</ele>
        <time>2023-05-08T16:43:48.610Z</time>
      </trkpt>
      <trkpt lat="47.41447" lon="-0.61507">
        <ele>67.052435</ele>
        <time>2023-05-08T16:43:51.610Z</time>
      </trkpt>
      <trkpt lat="47.41455" lon="-0.61502">
        <ele>67.002887</ele>
        <time>2023-05-08T16:43:54.604Z</time>
      </trkpt>
      <trkpt lat="47.41466" lon="-0.61496">
        <ele>66.942306</ele>
        <time>2023-05-08T16:43:58.622Z</time>
      </trkpt>
      <trkpt lat="47.41475" lon="-0.6149">
        <ele>66.888247</ele>
        <time>2023-05-08T16:44:02.602Z</time>
      </trkpt>
      <trkpt lat="47.41483" lon="-0.61485">
        <ele>66.839284</ele>
        <time>2023-05-08T16:44:06.606Z</time>
      </trkpt>
      <trkpt lat="47.41492" lon="-0.6148">
        <ele>66.789209</ele>
        <time>2023-05-08T16:44:10.611Z</time>
      </trkpt>
      <trkpt lat="47.41501" lon="-0.61475">
        <ele>66.73809</ele>
        <time>2023-05-08T16:44:14.602Z</time>
      </trkpt>
      <trkpt lat="47.4151" lon="-0.61471">
        <ele>66.687002</ele>
        <time>2023-05-08T16:44:18.622Z</time>
      </trkpt>
      <trkpt lat="47.41518" lon="-0.61465">
        <ele>66.636182</ele>
        <time>2023-05-08T16:44:22.617Z</time>
      </trkpt>
      <trkpt lat="47.41527" lon="-0.6146">
        <ele>66.585597</ele>
        <time>2023-05-08T16:44:26.608Z</time>
      </trkpt>
      <trkpt lat="47.41536" lon="-0.61454">
        <ele>66.773919</ele>
        <time>2023-05-08T16:44:31.592Z</time>
      </trkpt>
      <trkpt lat="47.41546" lon="-0.61451">
        <ele>66.993552</ele>
        <time>2023-05-08T16:44:36.612Z</time>
      </trkpt>
      <trkpt lat="47.41556" lon="-0.61449">
        <ele>67.210547</ele>
        <time>2023-05-08T16:44:41.612Z</time>
      </trkpt>
      <trkpt lat="47.41566" lon="-0.61446">
        <ele>67.419428</ele>
        <time>2023-05-08T16:44:47.598Z</time>
      </trkpt>
      <trkpt lat="47.41575" lon="-0.61441">
        <ele>67.627882</ele>
        <time>2023-05-08T16:44:52.616Z</time>
      </trkpt>
      <trkpt lat="47.41585" lon="-0.61432">
        <ele>67.875281</ele>
        <time>2023-05-08T16:44:57.596Z</time>
      </trkpt>
      <trkpt lat="47.41594" lon="-0.61424">
        <ele>68.110522</ele>
        <time>2023-05-08T16:45:01.609Z</time>
      </trkpt>
      <trkpt lat="47.41602" lon="-0.61415">
        <ele>68.322588</ele>
        <time>2023-05-08T16:45:04.610Z</time>
      </trkpt>
      <trkpt lat="47.41611" lon="-0.61408">
        <ele>68.532085</ele>
        <time>2023-05-08T16:45:07.600Z</time>
      </trkpt>
      <trkpt lat="47.41619" lon="-0.61401">
        <ele>68.725099</ele>
        <time>2023-05-08T16:45:10.598Z</time>
      </trkpt>
      <trkpt lat="47.41629" lon="-0.61396">
        <ele>68.952431</ele>
        <time>2023-05-08T16:45:14.617Z</time>
      </trkpt>
      <trkpt lat="47.41639" lon="-0.61391">
        <ele>69.1753</ele>
        <time>2023-05-08T16:45:18.605Z</time>
      </trkpt>
      <trkpt lat="47.41648" lon="-0.61386">
        <ele>69.391059</ele>
        <time>2023-05-08T16:45:21.612Z</time>
      </trkpt>
      <trkpt lat="47.41657" lon="-0.61382">
        <ele>69.592531</ele>
        <time>2023-05-08T16:45:24.620Z</time>
      </trkpt>
      <trkpt lat="47.41666" lon="-0.61377">
        <ele>69.789293</ele>
        <time>2023-05-08T16:45:28.589Z</time>
      </trkpt>
      <trkpt lat="47.41676" lon="-0.61374">
        <ele>70.01142</ele>
        <time>2023-05-08T16:45:32.592Z</time>
      </trkpt>
      <trkpt lat="47.41687" lon="-0.6137">
        <ele>70.244954</ele>
        <time>2023-05-08T16:45:36.603Z</time>
      </trkpt>
      <trkpt lat="47.41697" lon="-0.61365">
        <ele>70.384289</ele>
        <time>2023-05-08T16:45:41.602Z</time>
      </trkpt>
      <trkpt lat="47.41708" lon="-0.61359">
        <ele>70.208764</ele>
        <time>2023-05-08T16:45:45.602Z</time>
      </trkpt>
      <trkpt lat="47.41718" lon="-0.61351">
        <ele>70.046516</ele>
        <time>2023-05-08T16:45:49.593Z</time>
      </trkpt>
      <trkpt lat="47.41719" lon="-0.61335">
        <ele>69.895107</ele>
        <time>2023-05-08T16:45:54.599Z</time>
      </trkpt>
      <trkpt lat="47.41712" lon="-0.61326">
        <ele>69.753669</ele>
        <time>2023-05-08T16:45:57.599Z</time>
      </trkpt>
      <trkpt lat="47.41702" lon="-0.61319">
        <ele>69.600677</ele>
        <time>2023-05-08T16:46:00.615Z</time>
      </trkpt>
      <trkpt lat="47.41693" lon="-0.61314">
        <ele>69.464704</ele>
        <time>2023-05-08T16:46:03.598Z</time>
      </trkpt>
      <trkpt lat="47.41685" lon="-0.61306">
        <ele>69.324844</ele>
        <time>2023-05-08T16:46:06.601Z</time>
      </trkpt>
      <trkpt lat="47.41675" lon="-0.61302">
        <ele>69.175464</ele>
        <time>2023-05-08T16:46:10.600Z</time>
      </trkpt>
      <trkpt lat="47.41669" lon="-0.61291">
        <ele>69.042937</ele>
        <time>2023-05-08T16:46:15.610Z</time>
      </trkpt>
      <trkpt lat="47.41673" lon="-0.61278">
        <ele>68.902415</ele>
        <time>2023-05-08T16:46:20.598Z</time>
      </trkpt>
      <trkpt lat="47.41682" lon="-0.61268">
        <ele>68.741226</ele>
        <time>2023-05-08T16:46:24.612Z</time>
      </trkpt>
      <trkpt lat="47.4169" lon="-0.61259">
        <ele>68.606999</ele>
        <time>2023-05-08T16:46:27.604Z</time>
      </trkpt>
      <trkpt lat="47.41697" lon="-0.61251">
        <ele>68.467537</ele>
        <time>2023-05-08T16:46:30.609Z</time>
      </trkpt>
      <trkpt lat="47.41707" lon="-0.61241">
        <ele>68.300773</ele>
        <time>2023-05-08T16:46:34.616Z</time>
      </trkpt>
      <trkpt lat="47.41715" lon="-0.61232">
        <ele>68.153022</ele>
        <time>2023-05-08T16:46:38.597Z</time>
      </trkpt>
      <trkpt lat="47.41724" lon="-0.61221">
        <ele>67.984746</ele>
        <time>2023-05-08T16:46:42.605Z</time>
      </trkpt>
      <trkpt lat="47.41731" lon="-0.61212">
        <ele>67.844841</ele>
        <time>2023-05-08T16:46:45.605Z</time>
      </trkpt>
      <trkpt lat="47.41739" lon="-0.61204">
        <ele>67.695266</ele>
        <time>2023-05-08T16:46:48.607Z</time>
      </trkpt>
      <trkpt lat="47.41748" lon="-0.61194">
        <ele>67.508642</ele>
        <time>2023-05-08T16:46:52.612Z</time>
      </trkpt>
      <trkpt lat="47.41756" lon="-0.61184">
        <ele>67.347408</ele>
        <time>2023-05-08T16:46:56.601Z</time>
      </trkpt>
      <trkpt lat="47.41763" lon="-0.61175">
        <ele>67.189378</ele>
        <time>2023-05-08T16:47:01.591Z</time>
      </trkpt>
      <trkpt lat="47.4177" lon="-0.61164">
        <ele>67.029002</ele>
        <time>2023-05-08T16:47:05.608Z</time>
      </trkpt>
      <trkpt lat="47.41777" lon="-0.61151">
        <ele>66.84079</ele>
        <time>2023-05-08T16:47:09.604Z</time>
      </trkpt>
      <trkpt lat="47.41786" lon="-0.6114">
        <ele>66.658179</ele>
        <time>2023-05-08T16:47:13.605Z</time>
      </trkpt>
      <trkpt lat="47.41795" lon="-0.6113">
        <ele>66.48134</ele>
        <time>2023-05-08T16:47:17.605Z</time>
      </trkpt>
      <trkpt lat="47.41804" lon="-0.61122">
        <ele>66.302821</ele>
        <time>2023-05-08T16:47:21.615Z</time>
      </trkpt>
      <trkpt lat="47.41813" lon="-0.61115">
        <ele>66.139604</ele>
        <time>2023-05-08T16:47:25.603Z</time>
      </trkpt>
      <trkpt lat="47.41822" lon="-0.61106">
        <ele>65.96159</ele>
        <time>2023-05-08T16:47:30.605Z</time>
      </trkpt>
      <trkpt lat="47.41832" lon="-0.611">
        <ele>65.792721</ele>
        <time>2023-05-08T16:47:36.603Z</time>
      </trkpt>
      <trkpt lat="47.41839" lon="-0.61093">
        <ele>65.646603</ele>
        <time>2023-05-08T16:47:48.588Z</time>
      </trkpt>
      <trkpt lat="47.41851" lon="-0.61082">
        <ele>65.419204</ele>
        <time>2023-05-08T16:48:20.593Z</time>
      </trkpt>
      <trkpt lat="47.4186" lon="-0.61074">
        <ele>65.258819</ele>
        <time>2023-05-08T16:48:24.593Z</time>
      </trkpt>
      <trkpt lat="47.42352" lon="-0.55139">
        <ele>76.505696</ele>
        <time>2023-05-08T17:19:46.602Z</time>
      </trkpt>
      <trkpt lat="47.4235" lon="-0.55125">
        <ele>76.301435</ele>
        <time>2023-05-08T17:20:22.589Z</time>
      </trkpt>
      <trkpt lat="47.42348" lon="-0.55109">
        <ele>76.072412</ele>
        <time>2023-05-08T17:20:27.604Z</time>
      </trkpt>
      <trkpt lat="47.42347" lon="-0.55096">
        <ele>75.878697</ele>
        <time>2023-05-08T17:20:31.624Z</time>
      </trkpt>
      <trkpt lat="47.42349" lon="-0.55083">
        <ele>75.687478</ele>
        <time>2023-05-08T17:20:35.597Z</time>
      </trkpt>
      <trkpt lat="47.42356" lon="-0.5507">
        <ele>75.454177</ele>
        <time>2023-05-08T17:20:39.593Z</time>
      </trkpt>
      <trkpt lat="47.42363" lon="-0.55061">
        <ele>75.257279</ele>
        <time>2023-05-08T17:20:43.597Z</time>
      </trkpt>
      <trkpt lat="47.4237" lon="-0.55048">
        <ele>75.014154</ele>
        <time>2023-05-08T17:20:48.594Z</time>
      </trkpt>
      <trkpt lat="47.42379" lon="-0.55038">
        <ele>74.770319</ele>
        <time>2023-05-08T17:20:52.598Z</time>
      </trkpt>
      <trkpt lat="47.42388" lon="-0.55028">
        <ele>74.53344</ele>
        <time>2023-05-08T17:20:56.598Z</time>
      </trkpt>
      <trkpt lat="47.42397" lon="-0.55019">
        <ele>74.315284</ele>
        <time>2023-05-08T17:21:00.598Z</time>
      </trkpt>
      <trkpt lat="47.42406" lon="-0.5501">
        <ele>74.098982</ele>
        <time>2023-05-08T17:21:04.593Z</time>
      </trkpt>
      <trkpt lat="47.42416" lon="-0.54999">
        <ele>73.993161</ele>
        <time>2023-05-08T17:21:08.600Z</time>
      </trkpt>
      <trkpt lat="47.42425" lon="-0.54992">
        <ele>73.904369</ele>
        <time>2023-05-08T17:21:11.596Z</time>
      </trkpt>
      <trkpt lat="47.42433" lon="-0.54983">
        <ele>73.815551</ele>
        <time>2023-05-08T17:21:14.595Z</time>
      </trkpt>
      <trkpt lat="47.42441" lon="-0.54973">
        <ele>73.720685</ele>
        <time>2023-05-08T17:21:17.601Z</time>
      </trkpt>
      <trkpt lat="47.42451" lon="-0.54964">
        <ele>73.624251</ele>
        <time>2023-05-08T17:21:20.597Z</time>
      </trkpt>
      <trkpt lat="47.4246" lon="-0.54955">
        <ele>73.527272</ele>
        <time>2023-05-08T17:21:23.596Z</time>
      </trkpt>
      <trkpt lat="47.42468" lon="-0.54946">
        <ele>73.433373</ele>
        <time>2023-05-08T17:21:26.598Z</time>
      </trkpt>
      <trkpt lat="47.42477" lon="-0.54938">
        <ele>73.344514</ele>
        <time>2023-05-08T17:21:29.597Z</time>
      </trkpt>
      <trkpt lat="47.42484" lon="-0.54929">
        <ele>73.258816</ele>
        <time>2023-05-08T17:21:32.596Z</time>
      </trkpt>
      <trkpt lat="47.42494" lon="-0.54919">
        <ele>73.15796</ele>
        <time>2023-05-08T17:21:36.599Z</time>
      </trkpt>
      <trkpt lat="47.42501" lon="-0.54911">
        <ele>73.075506</ele>
        <time>2023-05-08T17:21:39.596Z</time>
      </trkpt>
      <trkpt lat="47.4251" lon="-0.54903">
        <ele>72.988309</ele>
        <time>2023-05-08T17:21:42.598Z</time>
      </trkpt>
      <trkpt lat="47.42518" lon="-0.54894">
        <ele>72.898072</ele>
        <time>2023-05-08T17:21:45.601Z</time>
      </trkpt>
      <trkpt lat="47.42527" lon="-0.54883">
        <ele>72.799232</ele>
        <time>2023-05-08T17:21:48.594Z</time>
      </trkpt>
      <trkpt lat="47.42534" lon="-0.5487">
        <ele>72.695782</ele>
        <time>2023-05-08T17:21:51.595Z</time>
      </trkpt>
      <trkpt lat="47.42541" lon="-0.54855">
        <ele>72.587774</ele>
        <time>2023-05-08T17:21:54.597Z</time>
      </trkpt>
      <trkpt lat="47.42546" lon="-0.54841">
        <ele>72.664434</ele>
        <time>2023-05-08T17:21:57.585Z</time>
      </trkpt>
      <trkpt lat="47.42551" lon="-0.54827">
        <ele>72.943731</ele>
        <time>2023-05-08T17:22:00.595Z</time>
      </trkpt>
      <trkpt lat="47.42555" lon="-0.54814">
        <ele>73.205113</ele>
        <time>2023-05-08T17:22:03.596Z</time>
      </trkpt>
      <trkpt lat="47.42561" lon="-0.54799">
        <ele>73.52085</ele>
        <time>2023-05-08T17:22:07.599Z</time>
      </trkpt>
      <trkpt lat="47.42565" lon="-0.54786">
        <ele>73.768937</ele>
        <time>2023-05-08T17:22:10.598Z</time>
      </trkpt>
      <trkpt lat="47.4257" lon="-0.54773">
        <ele>74.048983</ele>
        <time>2023-05-08T17:22:13.598Z</time>
      </trkpt>
      <trkpt lat="47.42574" lon="-0.54758">
        <ele>74.333768</ele>
        <time>2023-05-08T17:22:16.598Z</time>
      </trkpt>
      <trkpt lat="47.42579" lon="-0.54744">
        <ele>74.628447</ele>
        <time>2023-05-08T17:22:19.598Z</time>
      </trkpt>
      <trkpt lat="47.42583" lon="-0.54727">
        <ele>74.947648</ele>
        <time>2023-05-08T17:22:22.597Z</time>
      </trkpt>
      <trkpt lat="47.42588" lon="-0.54712">
        <ele>75.241792</ele>
        <time>2023-05-08T17:22:25.595Z</time>
      </trkpt>
      <trkpt lat="47.42591" lon="-0.54699">
        <ele>75.509389</ele>
        <time>2023-05-08T17:22:28.598Z</time>
      </trkpt>
      <trkpt lat="47.42595" lon="-0.54685">
        <ele>75.776811</ele>
        <time>2023-05-08T17:22:31.602Z</time>
      </trkpt>
      <trkpt lat="47.42599" lon="-0.54671">
        <ele>76.044673</ele>
        <time>2023-05-08T17:22:34.597Z</time>
      </trkpt>
      <trkpt lat="47.42603" lon="-0.54659">
        <ele>76.289435</ele>
        <time>2023-05-08T17:22:37.596Z</time>
      </trkpt>
      <trkpt lat="47.42607" lon="-0.54646">
        <ele>76.540771</ele>
        <time>2023-05-08T17:22:40.590Z</time>
      </trkpt>
      <trkpt lat="47.42611" lon="-0.54634">
        <ele>76.787063</ele>
        <time>2023-05-08T17:22:43.598Z</time>
      </trkpt>
      <trkpt lat="47.42616" lon="-0.5462">
        <ele>77.072249</ele>
        <time>2023-05-08T17:22:46.597Z</time>
      </trkpt>
      <trkpt lat="47.42621" lon="-0.54604">
        <ele>77.364317</ele>
        <time>2023-05-08T17:22:49.602Z</time>
      </trkpt>
      <trkpt lat="47.42626" lon="-0.54587">
        <ele>77.499839</ele>
        <time>2023-05-08T17:22:52.599Z</time>
      </trkpt>
      <trkpt lat="47.4263" lon="-0.5457">
        <ele>77.624583</ele>
        <time>2023-05-08T17:22:55.590Z</time>
      </trkpt>
      <trkpt lat="47.42633" lon="-0.54557">
        <ele>77.727896</ele>
        <time>2023-05-08T17:22:58.598Z</time>
      </trkpt>
      <trkpt lat="47.42637" lon="-0.54541">
        <ele>77.852271</ele>
        <time>2023-05-08T17:23:02.598Z</time>
      </trkpt>
      <trkpt lat="47.42642" lon="-0.54525">
        <ele>77.981137</ele>
        <time>2023-05-08T17:23:06.598Z</time>
      </trkpt>
      <trkpt lat="47.42646" lon="-0.54512">
        <ele>78.080212</ele>
        <time>2023-05-08T17:23:09.600Z</time>
      </trkpt>
      <trkpt lat="47.4265" lon="-0.54498">
        <ele>78.191687</ele>
        <time>2023-05-08T17:23:12.598Z</time>
      </trkpt>
      <trkpt lat="47.42654" lon="-0.54484">
        <ele>78.296893</ele>
        <time>2023-05-08T17:23:15.601Z</time>
      </trkpt>
      <trkpt lat="47.42658" lon="-0.54469">
        <ele>78.413973</ele>
        <time>2023-05-08T17:23:18.597Z</time>
      </trkpt>
      <trkpt lat="47.42662" lon="-0.54455">
        <ele>78.522292</ele>
        <time>2023-05-08T17:23:21.597Z</time>
      </trkpt>
      <trkpt lat="47.42665" lon="-0.54442">
        <ele>78.627233</ele>
        <time>2023-05-08T17:23:24.588Z</time>
      </trkpt>
      <trkpt lat="47.4267" lon="-0.54426">
        <ele>78.751712</ele>
        <time>2023-05-08T17:23:28.598Z</time>
      </trkpt>
      <trkpt lat="47.42674" lon="-0.54411">
        <ele>78.865505</ele>
        <time>2023-05-08T17:23:32.598Z</time>
      </trkpt>
      <trkpt lat="47.42678" lon="-0.54399">
        <ele>78.965232</ele>
        <time>2023-05-08T17:23:35.599Z</time>
      </trkpt>
      <trkpt lat="47.42681" lon="-0.54385">
        <ele>79.069499</ele>
        <time>2023-05-08T17:23:38.600Z</time>
      </trkpt>
      <trkpt lat="47.42685" lon="-0.54371">
        <ele>79.179243</ele>
        <time>2023-05-08T17:23:41.598Z</time>
      </trkpt>
      <trkpt lat="47.42689" lon="-0.54357">
        <ele>79.261186</ele>
        <time>2023-05-08T17:23:44.594Z</time>
      </trkpt>
      <trkpt lat="47.42694" lon="-0.54342">
        <ele>79.259319</ele>
        <time>2023-05-08T17:23:47.596Z</time>
      </trkpt>
      <trkpt lat="47.42699" lon="-0.54326">
        <ele>79.257405</ele>
        <time>2023-05-08T17:23:50.596Z</time>
      </trkpt>
      <trkpt lat="47.42703" lon="-0.54312">
        <ele>79.255568</ele>
        <time>2023-05-08T17:23:53.598Z</time>
      </trkpt>
      <trkpt lat="47.42707" lon="-0.54297">
        <ele>79.253785</ele>
        <time>2023-05-08T17:23:56.597Z</time>
      </trkpt>
      <trkpt lat="47.4271" lon="-0.54283">
        <ele>79.25208</ele>
        <time>2023-05-08T17:23:59.599Z</time>
      </trkpt>
      <trkpt lat="47.42714" lon="-0.54271">
        <ele>79.250558</ele>
        <time>2023-05-08T17:24:02.598Z</time>
      </trkpt>
      <trkpt lat="47.42718" lon="-0.54256">
        <ele>79.248714</ele>
        <time>2023-05-08T17:24:06.596Z</time>
      </trkpt>
      <trkpt lat="47.42722" lon="-0.54242">
        <ele>79.247013</ele>
        <time>2023-05-08T17:24:09.598Z</time>
      </trkpt>
      <trkpt lat="47.42726" lon="-0.54227">
        <ele>79.245177</ele>
        <time>2023-05-08T17:24:12.597Z</time>
      </trkpt>
      <trkpt lat="47.4273" lon="-0.54211">
        <ele>79.243248</ele>
        <time>2023-05-08T17:24:15.599Z</time>
      </trkpt>
      <trkpt lat="47.42735" lon="-0.54194">
        <ele>79.24115</ele>
        <time>2023-05-08T17:24:18.595Z</time>
      </trkpt>
      <trkpt lat="47.42739" lon="-0.54179">
        <ele>79.239247</ele>
        <time>2023-05-08T17:24:21.596Z</time>
      </trkpt>
      <trkpt lat="47.42743" lon="-0.54163">
        <ele>79.237358</ele>
        <time>2023-05-08T17:24:24.595Z</time>
      </trkpt>
      <trkpt lat="47.42747" lon="-0.5415">
        <ele>79.235711</ele>
        <time>2023-05-08T17:24:27.599Z</time>
      </trkpt>
      <trkpt lat="47.42751" lon="-0.54136">
        <ele>79.233946</ele>
        <time>2023-05-08T17:24:30.597Z</time>
      </trkpt>
      <trkpt lat="47.42756" lon="-0.5412">
        <ele>79.232002</ele>
        <time>2023-05-08T17:24:33.601Z</time>
      </trkpt>
      <trkpt lat="47.42761" lon="-0.54104">
        <ele>79.236304</ele>
        <time>2023-05-08T17:24:36.600Z</time>
      </trkpt>
      <trkpt lat="47.42766" lon="-0.54087">
        <ele>79.243641</ele>
        <time>2023-05-08T17:24:39.603Z</time>
      </trkpt>
      <trkpt lat="47.4277" lon="-0.5407">
        <ele>79.250486</ele>
        <time>2023-05-08T17:24:42.597Z</time>
      </trkpt>
      <trkpt lat="47.42775" lon="-0.54055">
        <ele>79.257015</ele>
        <time>2023-05-08T17:24:45.597Z</time>
      </trkpt>
      <trkpt lat="47.42779" lon="-0.5404">
        <ele>79.263267</ele>
        <time>2023-05-08T17:24:48.599Z</time>
      </trkpt>
      <trkpt lat="47.42783" lon="-0.54027">
        <ele>79.269015</ele>
        <time>2023-05-08T17:24:51.600Z</time>
      </trkpt>
      <trkpt lat="47.42787" lon="-0.54013">
        <ele>79.274834</ele>
        <time>2023-05-08T17:24:54.596Z</time>
      </trkpt>
      <trkpt lat="47.42792" lon="-0.53998">
        <ele>79.281277</ele>
        <time>2023-05-08T17:24:57.599Z</time>
      </trkpt>
      <trkpt lat="47.42797" lon="-0.53983">
        <ele>79.287938</ele>
        <time>2023-05-08T17:25:00.597Z</time>
      </trkpt>
      <trkpt lat="47.42801" lon="-0.53967">
        <ele>79.294477</ele>
        <time>2023-05-08T17:25:03.595Z</time>
      </trkpt>
      <trkpt lat="47.42805" lon="-0.53952">
        <ele>79.300917</ele>
        <time>2023-05-08T17:25:06.603Z</time>
      </trkpt>
      <trkpt lat="47.42809" lon="-0.53937">
        <ele>79.306894</ele>
        <time>2023-05-08T17:25:09.597Z</time>
      </trkpt>
      <trkpt lat="47.42813" lon="-0.53923">
        <ele>79.312979</ele>
        <time>2023-05-08T17:25:12.598Z</time>
      </trkpt>
      <trkpt lat="47.42817" lon="-0.53909">
        <ele>79.318848</ele>
        <time>2023-05-08T17:25:15.597Z</time>
      </trkpt>
      <trkpt lat="47.42821" lon="-0.53896">
        <ele>79.32457</ele>
        <time>2023-05-08T17:25:18.597Z</time>
      </trkpt>
      <trkpt lat="47.42824" lon="-0.53883">
        <ele>79.329816</ele>
        <time>2023-05-08T17:25:21.599Z</time>
      </trkpt>
      <trkpt lat="47.42827" lon="-0.53869">
        <ele>79.323686</ele>
        <time>2023-05-08T17:25:24.596Z</time>
      </trkpt>
      <trkpt lat="47.42831" lon="-0.53853">
        <ele>79.200967</ele>
        <time>2023-05-08T17:25:27.598Z</time>
      </trkpt>
      <trkpt lat="47.42835" lon="-0.53838">
        <ele>79.076475</ele>
        <time>2023-05-08T17:25:30.597Z</time>
      </trkpt>
      <trkpt lat="47.42839" lon="-0.53824">
        <ele>78.962331</ele>
        <time>2023-05-08T17:25:33.600Z</time>
      </trkpt>
      <trkpt lat="47.42844" lon="-0.53811">
        <ele>78.853967</ele>
        <time>2023-05-08T17:25:36.598Z</time>
      </trkpt>
      <trkpt lat="47.42848" lon="-0.53797">
        <ele>78.745049</ele>
        <time>2023-05-08T17:25:39.595Z</time>
      </trkpt>
      <trkpt lat="47.42852" lon="-0.53782">
        <ele>78.625874</ele>
        <time>2023-05-08T17:25:42.596Z</time>
      </trkpt>
      <trkpt lat="47.42856" lon="-0.53767">
        <ele>78.502739</ele>
        <time>2023-05-08T17:25:45.596Z</time>
      </trkpt>
      <trkpt lat="47.42861" lon="-0.53752">
        <ele>78.381415</ele>
        <time>2023-05-08T17:25:48.595Z</time>
      </trkpt>
      <trkpt lat="47.42866" lon="-0.53738">
        <ele>78.261227</ele>
        <time>2023-05-08T17:25:51.598Z</time>
      </trkpt>
      <trkpt lat="47.4287" lon="-0.53724">
        <ele>78.149359</ele>
        <time>2023-05-08T17:25:54.598Z</time>
      </trkpt>
      <trkpt lat="47.42874" lon="-0.53708">
        <ele>78.026693</ele>
        <time>2023-05-08T17:25:58.599Z</time>
      </trkpt>
      <trkpt lat="47.42878" lon="-0.53696">
        <ele>77.923049</ele>
        <time>2023-05-08T17:26:02.596Z</time>
      </trkpt>
      <trkpt lat="47.42885" lon="-0.53683">
        <ele>77.798085</ele>
        <time>2023-05-08T17:26:07.600Z</time>
      </trkpt>
      <trkpt lat="47.42891" lon="-0.5367">
        <ele>77.683128</ele>
        <time>2023-05-08T17:26:11.597Z</time>
      </trkpt>
      <trkpt lat="47.42895" lon="-0.53657">
        <ele>77.579631</ele>
        <time>2023-05-08T17:26:15.594Z</time>
      </trkpt>
      <trkpt lat="47.429" lon="-0.53643">
        <ele>77.459673</ele>
        <time>2023-05-08T17:26:19.595Z</time>
      </trkpt>
      <trkpt lat="47.42905" lon="-0.53627">
        <ele>77.427918</ele>
        <time>2023-05-08T17:26:23.600Z</time>
      </trkpt>
      <trkpt lat="47.42909" lon="-0.53614">
        <ele>77.61454</ele>
        <time>2023-05-08T17:26:26.598Z</time>
      </trkpt>
      <trkpt lat="47.42912" lon="-0.536">
        <ele>77.800767</ele>
        <time>2023-05-08T17:26:29.603Z</time>
      </trkpt>
      <trkpt lat="47.42916" lon="-0.53586">
        <ele>78.006476</ele>
        <time>2023-05-08T17:26:32.606Z</time>
      </trkpt>
      <trkpt lat="47.4292" lon="-0.5357">
        <ele>78.234236</ele>
        <time>2023-05-08T17:26:35.599Z</time>
      </trkpt>
      <trkpt lat="47.42925" lon="-0.53554">
        <ele>78.470775</ele>
        <time>2023-05-08T17:26:38.597Z</time>
      </trkpt>
      <trkpt lat="47.4293" lon="-0.53539">
        <ele>78.702486</ele>
        <time>2023-05-08T17:26:41.600Z</time>
      </trkpt>
      <trkpt lat="47.42935" lon="-0.53525">
        <ele>78.913405</ele>
        <time>2023-05-08T17:26:44.599Z</time>
      </trkpt>
      <trkpt lat="47.42939" lon="-0.53511">
        <ele>79.120347</ele>
        <time>2023-05-08T17:26:47.598Z</time>
      </trkpt>
      <trkpt lat="47.42944" lon="-0.53495">
        <ele>79.346732</ele>
        <time>2023-05-08T17:26:50.599Z</time>
      </trkpt>
      <trkpt lat="47.42949" lon="-0.53479">
        <ele>79.584476</ele>
        <time>2023-05-08T17:26:53.589Z</time>
      </trkpt>
      <trkpt lat="47.42955" lon="-0.53461">
        <ele>79.849562</ele>
        <time>2023-05-08T17:26:56.596Z</time>
      </trkpt>
      <trkpt lat="47.4296" lon="-0.53444">
        <ele>80.101937</ele>
        <time>2023-05-08T17:26:59.602Z</time>
      </trkpt>
      <trkpt lat="47.42965" lon="-0.53429">
        <ele>80.331585</ele>
        <time>2023-05-08T17:27:02.599Z</time>
      </trkpt>
      <trkpt lat="47.42969" lon="-0.53414">
        <ele>80.546492</ele>
        <time>2023-05-08T17:27:05.605Z</time>
      </trkpt>
      <trkpt lat="47.42973" lon="-0.53401">
        <ele>80.734348</ele>
        <time>2023-05-08T17:27:08.592Z</time>
      </trkpt>
      <trkpt lat="47.42977" lon="-0.53388">
        <ele>80.916357</ele>
        <time>2023-05-08T17:27:11.598Z</time>
      </trkpt>
      <trkpt lat="47.4298" lon="-0.53375">
        <ele>80.809411</ele>
        <time>2023-05-08T17:27:14.585Z</time>
      </trkpt>
      <trkpt lat="47.42985" lon="-0.5336">
        <ele>80.694459</ele>
        <time>2023-05-08T17:27:17.585Z</time>
      </trkpt>
      <trkpt lat="47.42989" lon="-0.53346">
        <ele>80.57856</ele>
        <time>2023-05-08T17:27:20.594Z</time>
      </trkpt>
      <trkpt lat="47.42994" lon="-0.53331">
        <ele>80.453389</ele>
        <time>2023-05-08T17:27:23.597Z</time>
      </trkpt>
      <trkpt lat="47.42998" lon="-0.53315">
        <ele>80.323002</ele>
        <time>2023-05-08T17:27:26.601Z</time>
      </trkpt>
      <trkpt lat="47.43002" lon="-0.53298">
        <ele>80.189652</ele>
        <time>2023-05-08T17:27:29.601Z</time>
      </trkpt>
      <trkpt lat="47.43007" lon="-0.53282">
        <ele>80.062015</ele>
        <time>2023-05-08T17:27:32.599Z</time>
      </trkpt>
      <trkpt lat="47.43011" lon="-0.53268">
        <ele>79.941633</ele>
        <time>2023-05-08T17:27:35.596Z</time>
      </trkpt>
      <trkpt lat="47.43015" lon="-0.53254">
        <ele>79.837234</ele>
        <time>2023-05-08T17:27:38.600Z</time>
      </trkpt>
      <trkpt lat="47.43019" lon="-0.53239">
        <ele>79.715941</ele>
        <time>2023-05-08T17:27:42.600Z</time>
      </trkpt>
      <trkpt lat="47.43023" lon="-0.53227">
        <ele>79.616843</ele>
        <time>2023-05-08T17:27:45.599Z</time>
      </trkpt>
      <trkpt lat="47.43026" lon="-0.53215">
        <ele>79.517225</ele>
        <time>2023-05-08T17:27:48.602Z</time>
      </trkpt>
      <trkpt lat="47.43029" lon="-0.53202">
        <ele>79.416629</ele>
        <time>2023-05-08T17:27:51.598Z</time>
      </trkpt>
      <trkpt lat="47.43033" lon="-0.53189">
        <ele>79.311622</ele>
        <time>2023-05-08T17:27:54.600Z</time>
      </trkpt>
      <trkpt lat="47.43036" lon="-0.53176">
        <ele>79.205371</ele>
        <time>2023-05-08T17:27:57.603Z</time>
      </trkpt>
      <trkpt lat="47.4304" lon="-0.53162">
        <ele>79.093583</ele>
        <time>2023-05-08T17:28:00.596Z</time>
      </trkpt>
      <trkpt lat="47.43042" lon="-0.53147">
        <ele>78.983763</ele>
        <time>2023-05-08T17:28:04.603Z</time>
      </trkpt>
      <trkpt lat="47.43047" lon="-0.53133">
        <ele>78.645534</ele>
        <time>2023-05-08T17:28:08.597Z</time>
      </trkpt>
      <trkpt lat="47.4305" lon="-0.53119">
        <ele>78.21299</ele>
        <time>2023-05-08T17:28:11.594Z</time>
      </trkpt>
      <trkpt lat="47.43054" lon="-0.53105">
        <ele>77.76929</ele>
        <time>2023-05-08T17:28:14.599Z</time>
      </trkpt>
      <trkpt lat="47.43059" lon="-0.53089">
        <ele>77.24152</ele>
        <time>2023-05-08T17:28:17.596Z</time>
      </trkpt>
      <trkpt lat="47.43064" lon="-0.53076">
        <ele>76.800064</ele>
        <time>2023-05-08T17:28:20.597Z</time>
      </trkpt>
      <trkpt lat="47.43069" lon="-0.53061">
        <ele>76.298632</ele>
        <time>2023-05-08T17:28:24.599Z</time>
      </trkpt>
      <trkpt lat="47.43072" lon="-0.53045">
        <ele>75.824037</ele>
        <time>2023-05-08T17:28:28.595Z</time>
      </trkpt>
      <trkpt lat="47.43074" lon="-0.53029">
        <ele>75.348967</ele>
        <time>2023-05-08T17:28:32.598Z</time>
      </trkpt>
      <trkpt lat="47.43073" lon="-0.53012">
        <ele>74.821448</ele>
        <time>2023-05-08T17:28:36.596Z</time>
      </trkpt>
      <trkpt lat="47.43072" lon="-0.52998">
        <ele>74.40246</ele>
        <time>2023-05-08T17:28:39.591Z</time>
      </trkpt>
      <trkpt lat="47.43071" lon="-0.52984">
        <ele>74.004041</ele>
        <time>2023-05-08T17:28:42.598Z</time>
      </trkpt>
      <trkpt lat="47.43071" lon="-0.5297">
        <ele>73.578112</ele>
        <time>2023-05-08T17:28:45.600Z</time>
      </trkpt>
      <trkpt lat="47.43073" lon="-0.52952">
        <ele>73.063192</ele>
        <time>2023-05-08T17:28:49.595Z</time>
      </trkpt>
      <trkpt lat="47.43074" lon="-0.52937">
        <ele>72.59715</ele>
        <time>2023-05-08T17:28:53.599Z</time>
      </trkpt>
      <trkpt lat="47.42584" lon="-0.52923">
        <ele>53.520767</ele>
        <time>2023-05-08T17:52:28.522Z</time>
      </trkpt>
    </trkseg>
  </trk>
</gpx>